﻿<?xml version="1.0" encoding="utf-8"?><gpx creator="Garmin Desktop App" version="1.1" xsi:schemaLocation="http://www.topografix.com/GPX/1/1 http://www.topografix.com/GPX/1/1/gpx.xsd http://www.garmin.com/xmlschemas/WaypointExtension/v1 http://www8.garmin.com/xmlschemas/WaypointExtensionv1.xsd http://www.garmin.com/xmlschemas/TrackPointExtension/v1 http://www.garmin.com/xmlschemas/TrackPointExtensionv1.xsd http://www.garmin.com/xmlschemas/GpxExtensions/v3 http://www8.garmin.com/xmlschemas/GpxExtensionsv3.xsd http://www.garmin.com/xmlschemas/ActivityExtension/v1 http://www8.garmin.com/xmlschemas/ActivityExtensionv1.xsd http://www.garmin.com/xmlschemas/AdventuresExtensions/v1 http://www8.garmin.com/xmlschemas/AdventuresExtensionv1.xsd http://www.garmin.com/xmlschemas/PressureExtension/v1 http://www.garmin.com/xmlschemas/PressureExtensionv1.xsd http://www.garmin.com/xmlschemas/TripExtensions/v1 http://www.garmin.com/xmlschemas/TripExtensionsv1.xsd http://www.garmin.com/xmlschemas/TripMetaDataExtensions/v1 http://www.garmin.com/xmlschemas/TripMetaDataExtensionsv1.xsd http://www.garmin.com/xmlschemas/ViaPointTransportationModeExtensions/v1 http://www.garmin.com/xmlschemas/ViaPointTransportationModeExtensionsv1.xsd http://www.garmin.com/xmlschemas/CreationTimeExtension/v1 http://www.garmin.com/xmlschemas/CreationTimeExtensionsv1.xsd http://www.garmin.com/xmlschemas/AccelerationExtension/v1 http://www.garmin.com/xmlschemas/AccelerationExtensionv1.xsd http://www.garmin.com/xmlschemas/PowerExtension/v1 http://www.garmin.com/xmlschemas/PowerExtensionv1.xsd http://www.garmin.com/xmlschemas/VideoExtension/v1 http://www.garmin.com/xmlschemas/VideoExtensionv1.xsd" xmlns="http://www.topografix.com/GPX/1/1" xmlns:xsi="http://www.w3.org/2001/XMLSchema-instance" xmlns:wptx1="http://www.garmin.com/xmlschemas/WaypointExtension/v1" xmlns:gpxtrx="http://www.garmin.com/xmlschemas/GpxExtensions/v3" xmlns:gpxtpx="http://www.garmin.com/xmlschemas/TrackPointExtension/v1" xmlns:gpxx="http://www.garmin.com/xmlschemas/GpxExtensions/v3" xmlns:trp="http://www.garmin.com/xmlschemas/TripExtensions/v1" xmlns:adv="http://www.garmin.com/xmlschemas/AdventuresExtensions/v1" xmlns:prs="http://www.garmin.com/xmlschemas/PressureExtension/v1" xmlns:tmd="http://www.garmin.com/xmlschemas/TripMetaDataExtensions/v1" xmlns:vptm="http://www.garmin.com/xmlschemas/ViaPointTransportationModeExtensions/v1" xmlns:ctx="http://www.garmin.com/xmlschemas/CreationTimeExtension/v1" xmlns:gpxacc="http://www.garmin.com/xmlschemas/AccelerationExtension/v1" xmlns:gpxpx="http://www.garmin.com/xmlschemas/PowerExtension/v1" xmlns:vidx1="http://www.garmin.com/xmlschemas/VideoExtension/v1">

  <metadata>
    <link href="http://www.garmin.com">
      <text>Garmin International</text>
    </link>
    <time>2018-03-05T08:39:51Z</time>
    <bounds maxlat="46.322864145040512" maxlon="11.819247230887413" minlat="46.299435133114457" minlon="11.779007473960519" />
  </metadata>

  <trk>
    <name>val venegia2018-03-04</name>
    <extensions>
      <gpxx:TrackExtension>
        <gpxx:DisplayColor>Yellow</gpxx:DisplayColor>
      </gpxx:TrackExtension>
      <gpxtrkx:TrackStatsExtension xmlns:gpxtrkx="http://www.garmin.com/xmlschemas/TrackStatsExtension/v1">
        <gpxtrkx:Distance>12521</gpxtrkx:Distance>
        <gpxtrkx:TotalElapsedTime>14180</gpxtrkx:TotalElapsedTime>
        <gpxtrkx:MovingTime>11013</gpxtrkx:MovingTime>
        <gpxtrkx:StoppedTime>3160</gpxtrkx:StoppedTime>
        <gpxtrkx:MovingSpeed>1</gpxtrkx:MovingSpeed>
        <gpxtrkx:MaxSpeed>2</gpxtrkx:MaxSpeed>
        <gpxtrkx:MaxElevation>2059</gpxtrkx:MaxElevation>
        <gpxtrkx:MinElevation>1679</gpxtrkx:MinElevation>
        <gpxtrkx:Ascent>398</gpxtrkx:Ascent>
        <gpxtrkx:Descent>404</gpxtrkx:Descent>
        <gpxtrkx:AvgAscentRate>0</gpxtrkx:AvgAscentRate>
        <gpxtrkx:MaxAscentRate>0</gpxtrkx:MaxAscentRate>
        <gpxtrkx:AvgDescentRate>0</gpxtrkx:AvgDescentRate>
        <gpxtrkx:MaxDescentRate>-1</gpxtrkx:MaxDescentRate>
      </gpxtrkx:TrackStatsExtension>
    </extensions>
    <trkseg>
      <trkpt lat="46.321735857054591" lon="11.779013425111771">
        <ele>1686.29</ele>
        <time>2018-03-04T09:17:47Z</time>
      </trkpt>
      <trkpt lat="46.321688080206513" lon="11.779007473960519">
        <ele>1683.8900000000001</ele>
        <time>2018-03-04T09:17:53Z</time>
      </trkpt>
      <trkpt lat="46.321611721068621" lon="11.779062291607261">
        <ele>1684.3699999999999</ele>
        <time>2018-03-04T09:18:03Z</time>
      </trkpt>
      <trkpt lat="46.321571655571461" lon="11.779259601607919">
        <ele>1684.3699999999999</ele>
        <time>2018-03-04T09:18:16Z</time>
      </trkpt>
      <trkpt lat="46.32152714766562" lon="11.779434029012918">
        <ele>1684.8499999999999</ele>
        <time>2018-03-04T09:18:26Z</time>
      </trkpt>
      <trkpt lat="46.321514826267958" lon="11.779477363452315">
        <ele>1684.8499999999999</ele>
        <time>2018-03-04T09:18:31Z</time>
      </trkpt>
      <trkpt lat="46.321434611454606" lon="11.779653802514076">
        <ele>1684.3699999999999</ele>
        <time>2018-03-04T09:18:46Z</time>
      </trkpt>
      <trkpt lat="46.321425894275308" lon="11.779707949608564">
        <ele>1684.3699999999999</ele>
        <time>2018-03-04T09:18:50Z</time>
      </trkpt>
      <trkpt lat="46.321407118812203" lon="11.77991489879787">
        <ele>1684.3699999999999</ele>
        <time>2018-03-04T09:19:02Z</time>
      </trkpt>
      <trkpt lat="46.321405777707696" lon="11.780062336474657">
        <ele>1684.8499999999999</ele>
        <time>2018-03-04T09:19:12Z</time>
      </trkpt>
      <trkpt lat="46.321361185982823" lon="11.78012260235846">
        <ele>1684.3699999999999</ele>
        <time>2018-03-04T09:19:21Z</time>
      </trkpt>
      <trkpt lat="46.321388259530067" lon="11.780077842995524">
        <ele>1684.3699999999999</ele>
        <time>2018-03-04T09:19:29Z</time>
      </trkpt>
      <trkpt lat="46.321438802406192" lon="11.780063677579165">
        <ele>1684.8499999999999</ele>
        <time>2018-03-04T09:19:35Z</time>
      </trkpt>
      <trkpt lat="46.32150468416512" lon="11.780139785259962">
        <ele>1684.8499999999999</ele>
        <time>2018-03-04T09:19:42Z</time>
      </trkpt>
      <trkpt lat="46.321493620052934" lon="11.780315721407533">
        <ele>1685.3299999999999</ele>
        <time>2018-03-04T09:19:53Z</time>
      </trkpt>
      <trkpt lat="46.321510300040245" lon="11.78048956207931">
        <ele>1685.3299999999999</ele>
        <time>2018-03-04T09:20:04Z</time>
      </trkpt>
      <trkpt lat="46.321550197899342" lon="11.780591737478971">
        <ele>1685.3299999999999</ele>
        <time>2018-03-04T09:20:14Z</time>
      </trkpt>
      <trkpt lat="46.321559585630894" lon="11.780626522377133">
        <ele>1685.3299999999999</ele>
        <time>2018-03-04T09:20:16Z</time>
      </trkpt>
      <trkpt lat="46.321570901200175" lon="11.780736744403839">
        <ele>1685.3299999999999</ele>
        <time>2018-03-04T09:20:22Z</time>
      </trkpt>
      <trkpt lat="46.321577690541744" lon="11.78094151429832">
        <ele>1686.29</ele>
        <time>2018-03-04T09:20:34Z</time>
      </trkpt>
      <trkpt lat="46.321586072444916" lon="11.781028266996145">
        <ele>1686.29</ele>
        <time>2018-03-04T09:20:40Z</time>
      </trkpt>
      <trkpt lat="46.321572661399841" lon="11.781080570071936">
        <ele>1686.77</ele>
        <time>2018-03-04T09:20:44Z</time>
      </trkpt>
      <trkpt lat="46.321568051353097" lon="11.781138069927692">
        <ele>1687.25</ele>
        <time>2018-03-04T09:20:48Z</time>
      </trkpt>
      <trkpt lat="46.321595376357436" lon="11.781344264745712">
        <ele>1687.25</ele>
        <time>2018-03-04T09:21:00Z</time>
      </trkpt>
      <trkpt lat="46.321604680269957" lon="11.781419282779098">
        <ele>1687.25</ele>
        <time>2018-03-04T09:21:04Z</time>
      </trkpt>
      <trkpt lat="46.321610296145082" lon="11.781464461237192">
        <ele>1687.25</ele>
        <time>2018-03-04T09:21:07Z</time>
      </trkpt>
      <trkpt lat="46.321618929505348" lon="11.781543251127005">
        <ele>1687.73</ele>
        <time>2018-03-04T09:21:12Z</time>
      </trkpt>
      <trkpt lat="46.321640890091658" lon="11.781700914725661">
        <ele>1687.73</ele>
        <time>2018-03-04T09:21:23Z</time>
      </trkpt>
      <trkpt lat="46.321648685261607" lon="11.781734023243189">
        <ele>1688.6900000000001</ele>
        <time>2018-03-04T09:21:32Z</time>
      </trkpt>
      <trkpt lat="46.321649691089988" lon="11.781811220571399">
        <ele>1688.6900000000001</ele>
        <time>2018-03-04T09:21:40Z</time>
      </trkpt>
      <trkpt lat="46.321663521230221" lon="11.782043818384409">
        <ele>1689.6500000000001</ele>
        <time>2018-03-04T09:21:53Z</time>
      </trkpt>
      <trkpt lat="46.321655809879303" lon="11.782192010432482">
        <ele>1690.1400000000001</ele>
        <time>2018-03-04T09:22:02Z</time>
      </trkpt>
      <trkpt lat="46.321635777130723" lon="11.782342297956347">
        <ele>1691.0999999999999</ele>
        <time>2018-03-04T09:22:12Z</time>
      </trkpt>
      <trkpt lat="46.321617169305682" lon="11.782499123364687">
        <ele>1692.0599999999999</ele>
        <time>2018-03-04T09:22:22Z</time>
      </trkpt>
      <trkpt lat="46.321602668613195" lon="11.782700708135962">
        <ele>1693.02</ele>
        <time>2018-03-04T09:22:35Z</time>
      </trkpt>
      <trkpt lat="46.321614235639572" lon="11.782815288752317">
        <ele>1693.5</ele>
        <time>2018-03-04T09:22:44Z</time>
      </trkpt>
      <trkpt lat="46.321631753817201" lon="11.782896593213081">
        <ele>1693.5</ele>
        <time>2018-03-04T09:22:49Z</time>
      </trkpt>
      <trkpt lat="46.321644494310021" lon="11.78307244554162">
        <ele>1693.98</ele>
        <time>2018-03-04T09:23:00Z</time>
      </trkpt>
      <trkpt lat="46.32164441049099" lon="11.783135812729597">
        <ele>1693.98</ele>
        <time>2018-03-04T09:23:04Z</time>
      </trkpt>
      <trkpt lat="46.321655223146081" lon="11.78330110386014">
        <ele>1694.46</ele>
        <time>2018-03-04T09:23:14Z</time>
      </trkpt>
      <trkpt lat="46.321646338328719" lon="11.783493300899863">
        <ele>1694.9400000000001</ele>
        <time>2018-03-04T09:23:26Z</time>
      </trkpt>
      <trkpt lat="46.321643572300673" lon="11.783661777153611">
        <ele>1695.4200000000001</ele>
        <time>2018-03-04T09:23:36Z</time>
      </trkpt>
      <trkpt lat="46.321624964475632" lon="11.783740483224392">
        <ele>1694.9400000000001</ele>
        <time>2018-03-04T09:23:45Z</time>
      </trkpt>
      <trkpt lat="46.321634687483311" lon="11.783817680552602">
        <ele>1695.4200000000001</ele>
        <time>2018-03-04T09:23:56Z</time>
      </trkpt>
      <trkpt lat="46.321628736332059" lon="11.783944834023714">
        <ele>1695.9000000000001</ele>
        <time>2018-03-04T09:24:05Z</time>
      </trkpt>
      <trkpt lat="46.32161607965827" lon="11.784062180668116">
        <ele>1696.3800000000001</ele>
        <time>2018-03-04T09:24:13Z</time>
      </trkpt>
      <trkpt lat="46.321615409106016" lon="11.784203583374619">
        <ele>1696.3800000000001</ele>
        <time>2018-03-04T09:24:23Z</time>
      </trkpt>
      <trkpt lat="46.321599232032895" lon="11.784334676340222">
        <ele>1696.8599999999999</ele>
        <time>2018-03-04T09:24:32Z</time>
      </trkpt>
      <trkpt lat="46.321583306416869" lon="11.784490495920181">
        <ele>1697.3399999999999</ele>
        <time>2018-03-04T09:24:42Z</time>
      </trkpt>
      <trkpt lat="46.32158188149333" lon="11.784506002441049">
        <ele>1697.3399999999999</ele>
        <time>2018-03-04T09:24:43Z</time>
      </trkpt>
      <trkpt lat="46.321579366922379" lon="11.784609518945217">
        <ele>1697.3399999999999</ele>
        <time>2018-03-04T09:24:49Z</time>
      </trkpt>
      <trkpt lat="46.32156528532505" lon="11.784665510058403">
        <ele>1697.3399999999999</ele>
        <time>2018-03-04T09:24:53Z</time>
      </trkpt>
      <trkpt lat="46.321557071059942" lon="11.78469518199563">
        <ele>1697.3399999999999</ele>
        <time>2018-03-04T09:24:55Z</time>
      </trkpt>
      <trkpt lat="46.321550281718373" lon="11.784742036834359">
        <ele>1697.8299999999999</ele>
        <time>2018-03-04T09:24:58Z</time>
      </trkpt>
      <trkpt lat="46.321517759934068" lon="11.784885786473751">
        <ele>1698.3099999999999</ele>
        <time>2018-03-04T09:25:08Z</time>
      </trkpt>
      <trkpt lat="46.321514742448926" lon="11.784899029880762">
        <ele>1698.3099999999999</ele>
        <time>2018-03-04T09:25:09Z</time>
      </trkpt>
      <trkpt lat="46.321482891216874" lon="11.784950075671077">
        <ele>1698.3099999999999</ele>
        <time>2018-03-04T09:25:14Z</time>
      </trkpt>
      <trkpt lat="46.321459757164121" lon="11.784974383190274">
        <ele>1698.3099999999999</ele>
        <time>2018-03-04T09:25:16Z</time>
      </trkpt>
      <trkpt lat="46.321443160995841" lon="11.78500740788877">
        <ele>1698.79</ele>
        <time>2018-03-04T09:25:19Z</time>
      </trkpt>
      <trkpt lat="46.321393037214875" lon="11.785065326839685">
        <ele>1698.79</ele>
        <time>2018-03-04T09:25:25Z</time>
      </trkpt>
      <trkpt lat="46.321328831836581" lon="11.785193318501115">
        <ele>1699.27</ele>
        <time>2018-03-04T09:25:36Z</time>
      </trkpt>
      <trkpt lat="46.321243923157454" lon="11.785303205251694">
        <ele>1699.75</ele>
        <time>2018-03-04T09:25:45Z</time>
      </trkpt>
      <trkpt lat="46.321190195158124" lon="11.78545500151813">
        <ele>1700.23</ele>
        <time>2018-03-04T09:25:54Z</time>
      </trkpt>
      <trkpt lat="46.321142418310046" lon="11.785602271556854">
        <ele>1700.71</ele>
        <time>2018-03-04T09:26:05Z</time>
      </trkpt>
      <trkpt lat="46.321128755807877" lon="11.785757755860686">
        <ele>1701.1900000000001</ele>
        <time>2018-03-04T09:26:15Z</time>
      </trkpt>
      <trkpt lat="46.321120290085673" lon="11.785932099446654">
        <ele>1701.6700000000001</ele>
        <time>2018-03-04T09:26:25Z</time>
      </trkpt>
      <trkpt lat="46.321110315620899" lon="11.78601055406034">
        <ele>1701.6700000000001</ele>
        <time>2018-03-04T09:26:30Z</time>
      </trkpt>
      <trkpt lat="46.321114171296358" lon="11.786083811894059">
        <ele>1701.6700000000001</ele>
        <time>2018-03-04T09:26:34Z</time>
      </trkpt>
      <trkpt lat="46.321110064163804" lon="11.786215240135789">
        <ele>1702.1500000000001</ele>
        <time>2018-03-04T09:26:42Z</time>
      </trkpt>
      <trkpt lat="46.32109665311873" lon="11.78638095036149">
        <ele>1703.1099999999999</ele>
        <time>2018-03-04T09:26:53Z</time>
      </trkpt>
      <trkpt lat="46.321083577349782" lon="11.786538027226925">
        <ele>1703.5899999999999</ele>
        <time>2018-03-04T09:27:03Z</time>
      </trkpt>
      <trkpt lat="46.321077290922403" lon="11.786648584529757">
        <ele>1704.0699999999999</ele>
        <time>2018-03-04T09:27:10Z</time>
      </trkpt>
      <trkpt lat="46.321078967303038" lon="11.786724524572492">
        <ele>1704.55</ele>
        <time>2018-03-04T09:27:14Z</time>
      </trkpt>
      <trkpt lat="46.321133617311716" lon="11.786884283646941">
        <ele>1705.52</ele>
        <time>2018-03-04T09:27:25Z</time>
      </trkpt>
      <trkpt lat="46.321202768012881" lon="11.786972461268306">
        <ele>1706</ele>
        <time>2018-03-04T09:27:34Z</time>
      </trkpt>
      <trkpt lat="46.321327155455947" lon="11.787039265036583">
        <ele>1706.48</ele>
        <time>2018-03-04T09:27:46Z</time>
      </trkpt>
      <trkpt lat="46.321369735524058" lon="11.787063824012876">
        <ele>1706.48</ele>
        <time>2018-03-04T09:27:50Z</time>
      </trkpt>
      <trkpt lat="46.321449698880315" lon="11.78717102855444">
        <ele>1707.9200000000001</ele>
        <time>2018-03-04T09:28:01Z</time>
      </trkpt>
      <trkpt lat="46.321523962542415" lon="11.787331374362111">
        <ele>1707.9200000000001</ele>
        <time>2018-03-04T09:28:13Z</time>
      </trkpt>
      <trkpt lat="46.321536535397172" lon="11.787379402667284">
        <ele>1707.9200000000001</ele>
        <time>2018-03-04T09:28:16Z</time>
      </trkpt>
      <trkpt lat="46.321598645299673" lon="11.787559948861599">
        <ele>1708.8800000000001</ele>
        <time>2018-03-04T09:28:28Z</time>
      </trkpt>
      <trkpt lat="46.321653882041574" lon="11.78771635517478">
        <ele>1709.3599999999999</ele>
        <time>2018-03-04T09:28:39Z</time>
      </trkpt>
      <trkpt lat="46.321694701910019" lon="11.787820542231202">
        <ele>1710.3199999999999</ele>
        <time>2018-03-04T09:28:48Z</time>
      </trkpt>
      <trkpt lat="46.321764858439565" lon="11.787926573306322">
        <ele>1711.28</ele>
        <time>2018-03-04T09:28:58Z</time>
      </trkpt>
      <trkpt lat="46.321821352466941" lon="11.78803495131433">
        <ele>1711.76</ele>
        <time>2018-03-04T09:29:06Z</time>
      </trkpt>
      <trkpt lat="46.321866950020194" lon="11.788194123655558">
        <ele>1712.73</ele>
        <time>2018-03-04T09:29:17Z</time>
      </trkpt>
      <trkpt lat="46.321925288066268" lon="11.78833301179111">
        <ele>1713.6900000000001</ele>
        <time>2018-03-04T09:29:27Z</time>
      </trkpt>
      <trkpt lat="46.321983626112342" lon="11.78847131319344">
        <ele>1714.6500000000001</ele>
        <time>2018-03-04T09:29:38Z</time>
      </trkpt>
      <trkpt lat="46.3220324087888" lon="11.788586648181081">
        <ele>1715.6099999999999</ele>
        <time>2018-03-04T09:29:48Z</time>
      </trkpt>
      <trkpt lat="46.322072558104992" lon="11.788686057552695">
        <ele>1716.5699999999999</ele>
        <time>2018-03-04T09:29:57Z</time>
      </trkpt>
      <trkpt lat="46.32211597636342" lon="11.788790998980403">
        <ele>1717.05</ele>
        <time>2018-03-04T09:30:06Z</time>
      </trkpt>
      <trkpt lat="46.322165848687291" lon="11.78892133757472">
        <ele>1718.49</ele>
        <time>2018-03-04T09:30:17Z</time>
      </trkpt>
      <trkpt lat="46.322188060730696" lon="11.789017980918288">
        <ele>1719.46</ele>
        <time>2018-03-04T09:30:24Z</time>
      </trkpt>
      <trkpt lat="46.322259055450559" lon="11.789192827418447">
        <ele>1720.9000000000001</ele>
        <time>2018-03-04T09:30:38Z</time>
      </trkpt>
      <trkpt lat="46.322302054613829" lon="11.789277903735638">
        <ele>1721.8599999999999</ele>
        <time>2018-03-04T09:30:45Z</time>
      </trkpt>
      <trkpt lat="46.322346981614828" lon="11.789406482130289">
        <ele>1723.3</ele>
        <time>2018-03-04T09:30:56Z</time>
      </trkpt>
      <trkpt lat="46.322362823411822" lon="11.789437662810087">
        <ele>1723.78</ele>
        <time>2018-03-04T09:30:59Z</time>
      </trkpt>
      <trkpt lat="46.3224106002599" lon="11.78950765170157">
        <ele>1724.26</ele>
        <time>2018-03-04T09:31:06Z</time>
      </trkpt>
      <trkpt lat="46.32241839542985" lon="11.789529109373689">
        <ele>1724.26</ele>
        <time>2018-03-04T09:31:08Z</time>
      </trkpt>
      <trkpt lat="46.322465837001801" lon="11.789613766595721">
        <ele>1724.74</ele>
        <time>2018-03-04T09:31:16Z</time>
      </trkpt>
      <trkpt lat="46.322541190311313" lon="11.789712840691209">
        <ele>1725.7</ele>
        <time>2018-03-04T09:31:26Z</time>
      </trkpt>
      <trkpt lat="46.322582932189107" lon="11.789769167080522">
        <ele>1726.6700000000001</ele>
        <time>2018-03-04T09:31:33Z</time>
      </trkpt>
      <trkpt lat="46.322659878060222" lon="11.789862206205726">
        <ele>1727.6300000000001</ele>
        <time>2018-03-04T09:31:43Z</time>
      </trkpt>
      <trkpt lat="46.322725508362055" lon="11.789963711053133">
        <ele>1728.5899999999999</ele>
        <time>2018-03-04T09:31:52Z</time>
      </trkpt>
      <trkpt lat="46.322739589959383" lon="11.789985587820411">
        <ele>1728.5899999999999</ele>
        <time>2018-03-04T09:31:54Z</time>
      </trkpt>
      <trkpt lat="46.322746044024825" lon="11.790013834834099">
        <ele>1729.0699999999999</ele>
        <time>2018-03-04T09:31:56Z</time>
      </trkpt>
      <trkpt lat="46.322780158370733" lon="11.790137216448784">
        <ele>1730.03</ele>
        <time>2018-03-04T09:32:05Z</time>
      </trkpt>
      <trkpt lat="46.322819720953703" lon="11.790235871449113">
        <ele>1730.99</ele>
        <time>2018-03-04T09:32:13Z</time>
      </trkpt>
      <trkpt lat="46.322841010987759" lon="11.790297646075487">
        <ele>1731.47</ele>
        <time>2018-03-04T09:32:18Z</time>
      </trkpt>
      <trkpt lat="46.322848303243518" lon="11.790367048233747">
        <ele>1731.95</ele>
        <time>2018-03-04T09:32:23Z</time>
      </trkpt>
      <trkpt lat="46.322863306850195" lon="11.790528986603022">
        <ele>1733.3900000000001</ele>
        <time>2018-03-04T09:32:35Z</time>
      </trkpt>
      <trkpt lat="46.322864145040512" lon="11.790579026564956">
        <ele>1733.3900000000001</ele>
        <time>2018-03-04T09:32:38Z</time>
      </trkpt>
      <trkpt lat="46.322849644348025" lon="11.790687656030059">
        <ele>1733.8800000000001</ele>
        <time>2018-03-04T09:32:46Z</time>
      </trkpt>
      <trkpt lat="46.322838244959712" lon="11.790728978812695">
        <ele>1733.8800000000001</ele>
        <time>2018-03-04T09:32:49Z</time>
      </trkpt>
      <trkpt lat="46.322825169190764" lon="11.790760159492493">
        <ele>1733.8800000000001</ele>
        <time>2018-03-04T09:32:51Z</time>
      </trkpt>
      <trkpt lat="46.322754761204123" lon="11.790915140882134">
        <ele>1734.8399999999999</ele>
        <time>2018-03-04T09:33:02Z</time>
      </trkpt>
      <trkpt lat="46.322702625766397" lon="11.79098823107779">
        <ele>1735.8</ele>
        <time>2018-03-04T09:33:10Z</time>
      </trkpt>
      <trkpt lat="46.322637414559722" lon="11.791084874421358">
        <ele>1736.28</ele>
        <time>2018-03-04T09:33:19Z</time>
      </trkpt>
      <trkpt lat="46.322593661025167" lon="11.791166514158249">
        <ele>1737.24</ele>
        <time>2018-03-04T09:33:26Z</time>
      </trkpt>
      <trkpt lat="46.322566587477922" lon="11.791207501664758">
        <ele>1737.72</ele>
        <time>2018-03-04T09:33:30Z</time>
      </trkpt>
      <trkpt lat="46.322488049045205" lon="11.791372541338205">
        <ele>1739.1600000000001</ele>
        <time>2018-03-04T09:33:43Z</time>
      </trkpt>
      <trkpt lat="46.322430381551385" lon="11.791503885760903">
        <ele>1740.1199999999999</ele>
        <time>2018-03-04T09:33:54Z</time>
      </trkpt>
      <trkpt lat="46.32239056751132" lon="11.791614443063736">
        <ele>1740.5999999999999</ele>
        <time>2018-03-04T09:34:05Z</time>
      </trkpt>
      <trkpt lat="46.32235343568027" lon="11.791649563238025">
        <ele>1741.0799999999999</ele>
        <time>2018-03-04T09:34:20Z</time>
      </trkpt>
      <trkpt lat="46.322278082370758" lon="11.791775040328503">
        <ele>1742.05</ele>
        <time>2018-03-04T09:34:32Z</time>
      </trkpt>
      <trkpt lat="46.322262408211827" lon="11.791802030056715">
        <ele>1742.05</ele>
        <time>2018-03-04T09:34:34Z</time>
      </trkpt>
      <trkpt lat="46.322228880599141" lon="11.791884005069733">
        <ele>1743.01</ele>
        <time>2018-03-04T09:34:44Z</time>
      </trkpt>
      <trkpt lat="46.322218654677272" lon="11.791914850473404">
        <ele>1743.01</ele>
        <time>2018-03-04T09:34:54Z</time>
      </trkpt>
      <trkpt lat="46.322223180904984" lon="11.791945360600948">
        <ele>1743.01</ele>
        <time>2018-03-04T09:35:09Z</time>
      </trkpt>
      <trkpt lat="46.322229718789458" lon="11.791910408064723">
        <ele>1743.01</ele>
        <time>2018-03-04T09:35:25Z</time>
      </trkpt>
      <trkpt lat="46.322202226147056" lon="11.791942259296775">
        <ele>1742.53</ele>
        <time>2018-03-04T09:35:35Z</time>
      </trkpt>
      <trkpt lat="46.322143049910665" lon="11.792088439688087">
        <ele>1743.49</ele>
        <time>2018-03-04T09:35:46Z</time>
      </trkpt>
      <trkpt lat="46.322092087939382" lon="11.792177623137832">
        <ele>1744.45</ele>
        <time>2018-03-04T09:35:55Z</time>
      </trkpt>
      <trkpt lat="46.322043221443892" lon="11.792269237339497">
        <ele>1744.9300000000001</ele>
        <time>2018-03-04T09:36:04Z</time>
      </trkpt>
      <trkpt lat="46.32203140296042" lon="11.792289270088077">
        <ele>1745.4100000000001</ele>
        <time>2018-03-04T09:36:06Z</time>
      </trkpt>
      <trkpt lat="46.322022685781121" lon="11.792308548465371">
        <ele>1745.4100000000001</ele>
        <time>2018-03-04T09:36:08Z</time>
      </trkpt>
      <trkpt lat="46.321986895054579" lon="11.792375268414617">
        <ele>1745.4100000000001</ele>
        <time>2018-03-04T09:36:14Z</time>
      </trkpt>
      <trkpt lat="46.321975160390139" lon="11.792406616732478">
        <ele>1745.8900000000001</ele>
        <time>2018-03-04T09:36:17Z</time>
      </trkpt>
      <trkpt lat="46.321938531473279" lon="11.792476689442992">
        <ele>1746.3699999999999</ele>
        <time>2018-03-04T09:36:23Z</time>
      </trkpt>
      <trkpt lat="46.321892933920026" lon="11.792563525959849">
        <ele>1747.3299999999999</ele>
        <time>2018-03-04T09:36:31Z</time>
      </trkpt>
      <trkpt lat="46.321848761290312" lon="11.7926558945328">
        <ele>1747.8099999999999</ele>
        <time>2018-03-04T09:36:39Z</time>
      </trkpt>
      <trkpt lat="46.321807354688644" lon="11.792728481814265">
        <ele>1748.29</ele>
        <time>2018-03-04T09:36:47Z</time>
      </trkpt>
      <trkpt lat="46.321790004149079" lon="11.792757231742144">
        <ele>1748.78</ele>
        <time>2018-03-04T09:36:50Z</time>
      </trkpt>
      <trkpt lat="46.321744406595826" lon="11.792856641113758">
        <ele>1749.26</ele>
        <time>2018-03-04T09:36:58Z</time>
      </trkpt>
      <trkpt lat="46.321730241179466" lon="11.792878853157163">
        <ele>1749.26</ele>
        <time>2018-03-04T09:37:00Z</time>
      </trkpt>
      <trkpt lat="46.32170207798481" lon="11.79291732609272">
        <ele>1749.74</ele>
        <time>2018-03-04T09:37:04Z</time>
      </trkpt>
      <trkpt lat="46.321662347763777" lon="11.792995361611247">
        <ele>1750.7</ele>
        <time>2018-03-04T09:37:11Z</time>
      </trkpt>
      <trkpt lat="46.32163611240685" lon="11.793040623888373">
        <ele>1750.7</ele>
        <time>2018-03-04T09:37:15Z</time>
      </trkpt>
      <trkpt lat="46.321632424369454" lon="11.79305562749505">
        <ele>1750.7</ele>
        <time>2018-03-04T09:37:16Z</time>
      </trkpt>
      <trkpt lat="46.321609206497669" lon="11.793104493990541">
        <ele>1751.1800000000001</ele>
        <time>2018-03-04T09:37:20Z</time>
      </trkpt>
      <trkpt lat="46.321568302810192" lon="11.793113378807902">
        <ele>1751.1800000000001</ele>
        <time>2018-03-04T09:37:30Z</time>
      </trkpt>
      <trkpt lat="46.321537289768457" lon="11.793116061016917">
        <ele>1750.7</ele>
        <time>2018-03-04T09:37:48Z</time>
      </trkpt>
      <trkpt lat="46.321552125737071" lon="11.793121760711074">
        <ele>1750.7</ele>
        <time>2018-03-04T09:37:57Z</time>
      </trkpt>
      <trkpt lat="46.32155254483223" lon="11.79312301799655">
        <ele>1750.7</ele>
        <time>2018-03-04T09:38:12Z</time>
      </trkpt>
      <trkpt lat="46.321556149050593" lon="11.79311815649271">
        <ele>1750.7</ele>
        <time>2018-03-04T09:38:25Z</time>
      </trkpt>
      <trkpt lat="46.321566291153431" lon="11.793133160099387">
        <ele>1750.22</ele>
        <time>2018-03-04T09:38:43Z</time>
      </trkpt>
      <trkpt lat="46.321566626429558" lon="11.793122095987201">
        <ele>1750.7</ele>
        <time>2018-03-04T09:38:53Z</time>
      </trkpt>
      <trkpt lat="46.321560926735401" lon="11.793188480660319">
        <ele>1751.1800000000001</ele>
        <time>2018-03-04T09:39:01Z</time>
      </trkpt>
      <trkpt lat="46.321535781025887" lon="11.793246818706393">
        <ele>1751.6600000000001</ele>
        <time>2018-03-04T09:39:11Z</time>
      </trkpt>
      <trkpt lat="46.321505857631564" lon="11.793305240571499">
        <ele>1752.1400000000001</ele>
        <time>2018-03-04T09:39:20Z</time>
      </trkpt>
      <trkpt lat="46.321464367210865" lon="11.793340779840946">
        <ele>1752.6199999999999</ele>
        <time>2018-03-04T09:39:28Z</time>
      </trkpt>
      <trkpt lat="46.321418853476644" lon="11.793420324102044">
        <ele>1753.0999999999999</ele>
        <time>2018-03-04T09:39:35Z</time>
      </trkpt>
      <trkpt lat="46.321373423561454" lon="11.793517554178834">
        <ele>1753.5799999999999</ele>
        <time>2018-03-04T09:39:42Z</time>
      </trkpt>
      <trkpt lat="46.321318857371807" lon="11.793642360717058">
        <ele>1754.54</ele>
        <time>2018-03-04T09:39:52Z</time>
      </trkpt>
      <trkpt lat="46.321300501003861" lon="11.793664405122399">
        <ele>1755.02</ele>
        <time>2018-03-04T09:39:54Z</time>
      </trkpt>
      <trkpt lat="46.321260603144765" lon="11.793777644634247">
        <ele>1755.99</ele>
        <time>2018-03-04T09:40:03Z</time>
      </trkpt>
      <trkpt lat="46.321226991713047" lon="11.793866995722055">
        <ele>1756.47</ele>
        <time>2018-03-04T09:40:10Z</time>
      </trkpt>
      <trkpt lat="46.321209473535419" lon="11.793929105624557">
        <ele>1756.95</ele>
        <time>2018-03-04T09:40:15Z</time>
      </trkpt>
      <trkpt lat="46.321199331432581" lon="11.793972859159112">
        <ele>1756.95</ele>
        <time>2018-03-04T09:40:18Z</time>
      </trkpt>
      <trkpt lat="46.321163792163134" lon="11.794116776436567">
        <ele>1757.9100000000001</ele>
        <time>2018-03-04T09:40:28Z</time>
      </trkpt>
      <trkpt lat="46.321117440238595" lon="11.794232781976461">
        <ele>1758.8699999999999</ele>
        <time>2018-03-04T09:40:38Z</time>
      </trkpt>
      <trkpt lat="46.321070166304708" lon="11.794371418654919">
        <ele>1759.3499999999999</ele>
        <time>2018-03-04T09:40:48Z</time>
      </trkpt>
      <trkpt lat="46.321035632863641" lon="11.794488010928035">
        <ele>1759.8299999999999</ele>
        <time>2018-03-04T09:40:58Z</time>
      </trkpt>
      <trkpt lat="46.321023060008883" lon="11.794538637623191">
        <ele>1760.3099999999999</ele>
        <time>2018-03-04T09:41:03Z</time>
      </trkpt>
      <trkpt lat="46.320977210998535" lon="11.794661181047559">
        <ele>1761.27</ele>
        <time>2018-03-04T09:41:13Z</time>
      </trkpt>
      <trkpt lat="46.320944437757134" lon="11.794747598469257">
        <ele>1761.75</ele>
        <time>2018-03-04T09:41:21Z</time>
      </trkpt>
      <trkpt lat="46.320915436372161" lon="11.794844325631857">
        <ele>1762.23</ele>
        <time>2018-03-04T09:41:29Z</time>
      </trkpt>
      <trkpt lat="46.320890374481678" lon="11.794953290373087">
        <ele>1762.71</ele>
        <time>2018-03-04T09:41:38Z</time>
      </trkpt>
      <trkpt lat="46.320853158831596" lon="11.795041048899293">
        <ele>1762.71</ele>
        <time>2018-03-04T09:41:46Z</time>
      </trkpt>
      <trkpt lat="46.320824911817908" lon="11.79511908441782">
        <ele>1763.6800000000001</ele>
        <time>2018-03-04T09:41:53Z</time>
      </trkpt>
      <trkpt lat="46.320791970938444" lon="11.795219331979752">
        <ele>1763.6800000000001</ele>
        <time>2018-03-04T09:42:01Z</time>
      </trkpt>
      <trkpt lat="46.320752156898379" lon="11.795332990586758">
        <ele>1764.1600000000001</ele>
        <time>2018-03-04T09:42:10Z</time>
      </trkpt>
      <trkpt lat="46.32072240114212" lon="11.79541664198041">
        <ele>1764.6400000000001</ele>
        <time>2018-03-04T09:42:17Z</time>
      </trkpt>
      <trkpt lat="46.320691388100386" lon="11.795519823208451">
        <ele>1765.1199999999999</ele>
        <time>2018-03-04T09:42:25Z</time>
      </trkpt>
      <trkpt lat="46.320652412250638" lon="11.79562384262681">
        <ele>1765.1199999999999</ele>
        <time>2018-03-04T09:42:33Z</time>
      </trkpt>
      <trkpt lat="46.320618716999888" lon="11.795705733820796">
        <ele>1766.0799999999999</ele>
        <time>2018-03-04T09:42:40Z</time>
      </trkpt>
      <trkpt lat="46.320585189387202" lon="11.795815620571375">
        <ele>1766.5599999999999</ele>
        <time>2018-03-04T09:42:48Z</time>
      </trkpt>
      <trkpt lat="46.320576136931777" lon="11.795834982767701">
        <ele>1766.5599999999999</ele>
        <time>2018-03-04T09:42:50Z</time>
      </trkpt>
      <trkpt lat="46.320570101961493" lon="11.795867336913943">
        <ele>1766.5599999999999</ele>
        <time>2018-03-04T09:42:52Z</time>
      </trkpt>
      <trkpt lat="46.320534981787205" lon="11.795966662466526">
        <ele>1767.04</ele>
        <time>2018-03-04T09:43:00Z</time>
      </trkpt>
      <trkpt lat="46.320497849956155" lon="11.796051235869527">
        <ele>1767.52</ele>
        <time>2018-03-04T09:43:06Z</time>
      </trkpt>
      <trkpt lat="46.320465747267008" lon="11.79616522975266">
        <ele>1767.04</ele>
        <time>2018-03-04T09:43:15Z</time>
      </trkpt>
      <trkpt lat="46.320427693426609" lon="11.796248042955995">
        <ele>1767.52</ele>
        <time>2018-03-04T09:43:22Z</time>
      </trkpt>
      <trkpt lat="46.320381509140134" lon="11.796402269974351">
        <ele>1768</ele>
        <time>2018-03-04T09:43:33Z</time>
      </trkpt>
      <trkpt lat="46.320377234369516" lon="11.796415010467172">
        <ele>1768.48</ele>
        <time>2018-03-04T09:43:34Z</time>
      </trkpt>
      <trkpt lat="46.320345383137465" lon="11.796506959944963">
        <ele>1768.96</ele>
        <time>2018-03-04T09:43:42Z</time>
      </trkpt>
      <trkpt lat="46.320335827767849" lon="11.796529591083527">
        <ele>1768.48</ele>
        <time>2018-03-04T09:43:44Z</time>
      </trkpt>
      <trkpt lat="46.320298109203577" lon="11.796642495319247">
        <ele>1768.48</ele>
        <time>2018-03-04T09:43:52Z</time>
      </trkpt>
      <trkpt lat="46.320260558277369" lon="11.79676135070622">
        <ele>1768.96</ele>
        <time>2018-03-04T09:44:01Z</time>
      </trkpt>
      <trkpt lat="46.320217391476035" lon="11.796885654330254">
        <ele>1769.4400000000001</ele>
        <time>2018-03-04T09:44:11Z</time>
      </trkpt>
      <trkpt lat="46.320197861641645" lon="11.796931838616729">
        <ele>1769.4400000000001</ele>
        <time>2018-03-04T09:44:14Z</time>
      </trkpt>
      <trkpt lat="46.320164501667023" lon="11.797023201361299">
        <ele>1769.9200000000001</ele>
        <time>2018-03-04T09:44:20Z</time>
      </trkpt>
      <trkpt lat="46.32012234069407" lon="11.797129567712545">
        <ele>1769.9200000000001</ele>
        <time>2018-03-04T09:44:28Z</time>
      </trkpt>
      <trkpt lat="46.320054950192571" lon="11.797304749488831">
        <ele>1769.9200000000001</ele>
        <time>2018-03-04T09:44:41Z</time>
      </trkpt>
      <trkpt lat="46.319992505013943" lon="11.797467861324549">
        <ele>1769.4400000000001</ele>
        <time>2018-03-04T09:44:53Z</time>
      </trkpt>
      <trkpt lat="46.319940369576216" lon="11.797643797472119">
        <ele>1769.4400000000001</ele>
        <time>2018-03-04T09:45:06Z</time>
      </trkpt>
      <trkpt lat="46.319937687367201" lon="11.797722754999995">
        <ele>1769.9200000000001</ele>
        <time>2018-03-04T09:45:12Z</time>
      </trkpt>
      <trkpt lat="46.319918492808938" lon="11.797817638143897">
        <ele>1769.4400000000001</ele>
        <time>2018-03-04T09:45:22Z</time>
      </trkpt>
      <trkpt lat="46.319900304079056" lon="11.797835491597652">
        <ele>1769.9200000000001</ele>
        <time>2018-03-04T09:45:26Z</time>
      </trkpt>
      <trkpt lat="46.319879181683064" lon="11.797825684770942">
        <ele>1769.9200000000001</ele>
        <time>2018-03-04T09:45:35Z</time>
      </trkpt>
      <trkpt lat="46.319872392341495" lon="11.797819649800658">
        <ele>1769.4400000000001</ele>
        <time>2018-03-04T09:45:49Z</time>
      </trkpt>
      <trkpt lat="46.319886893033981" lon="11.797852674499154">
        <ele>1770.4100000000001</ele>
        <time>2018-03-04T09:45:52Z</time>
      </trkpt>
      <trkpt lat="46.319902064278722" lon="11.797878993675113">
        <ele>1769.9200000000001</ele>
        <time>2018-03-04T09:45:55Z</time>
      </trkpt>
      <trkpt lat="46.319910613819957" lon="11.797902211546898">
        <ele>1769.9200000000001</ele>
        <time>2018-03-04T09:45:58Z</time>
      </trkpt>
      <trkpt lat="46.319912793114781" lon="11.798044536262751">
        <ele>1768.96</ele>
        <time>2018-03-04T09:46:08Z</time>
      </trkpt>
      <trkpt lat="46.319915223866701" lon="11.798075465485454">
        <ele>1770.4100000000001</ele>
        <time>2018-03-04T09:46:10Z</time>
      </trkpt>
      <trkpt lat="46.319934250786901" lon="11.798204211518168">
        <ele>1771.3699999999999</ele>
        <time>2018-03-04T09:46:19Z</time>
      </trkpt>
      <trkpt lat="46.319932071492076" lon="11.798241510987282">
        <ele>1770.4100000000001</ele>
        <time>2018-03-04T09:46:22Z</time>
      </trkpt>
      <trkpt lat="46.319946236908436" lon="11.798390205949545">
        <ele>1770.4100000000001</ele>
        <time>2018-03-04T09:46:32Z</time>
      </trkpt>
      <trkpt lat="46.319956798106432" lon="11.798531105741858">
        <ele>1769.4400000000001</ele>
        <time>2018-03-04T09:46:41Z</time>
      </trkpt>
      <trkpt lat="46.319978339597583" lon="11.798660941421986">
        <ele>1770.4100000000001</ele>
        <time>2018-03-04T09:46:51Z</time>
      </trkpt>
      <trkpt lat="46.319990996271372" lon="11.798677202314138">
        <ele>1770.4100000000001</ele>
        <time>2018-03-04T09:47:02Z</time>
      </trkpt>
      <trkpt lat="46.31995277479291" lon="11.798678794875741">
        <ele>1769.4400000000001</ele>
        <time>2018-03-04T09:47:13Z</time>
      </trkpt>
      <trkpt lat="46.319960318505764" lon="11.798684746026993">
        <ele>1769.4400000000001</ele>
        <time>2018-03-04T09:47:15Z</time>
      </trkpt>
      <trkpt lat="46.319962916895747" lon="11.79884391836822">
        <ele>1769.9200000000001</ele>
        <time>2018-03-04T09:47:25Z</time>
      </trkpt>
      <trkpt lat="46.319969706237316" lon="11.798957325518131">
        <ele>1769.9200000000001</ele>
        <time>2018-03-04T09:47:33Z</time>
      </trkpt>
      <trkpt lat="46.319970041513443" lon="11.798993619158864">
        <ele>1768.96</ele>
        <time>2018-03-04T09:47:35Z</time>
      </trkpt>
      <trkpt lat="46.319943889975548" lon="11.799104092642665">
        <ele>1769.4400000000001</ele>
        <time>2018-03-04T09:47:47Z</time>
      </trkpt>
      <trkpt lat="46.319953696802258" lon="11.799153797328472">
        <ele>1768.96</ele>
        <time>2018-03-04T09:47:59Z</time>
      </trkpt>
      <trkpt lat="46.319933915510774" lon="11.799235017970204">
        <ele>1768.48</ele>
        <time>2018-03-04T09:48:05Z</time>
      </trkpt>
      <trkpt lat="46.319928048178554" lon="11.799257481470704">
        <ele>1769.4400000000001</ele>
        <time>2018-03-04T09:48:07Z</time>
      </trkpt>
      <trkpt lat="46.319904830306768" lon="11.799325542524457">
        <ele>1769.4400000000001</ele>
        <time>2018-03-04T09:48:12Z</time>
      </trkpt>
      <trkpt lat="46.319874823093414" lon="11.799387987703085">
        <ele>1769.4400000000001</ele>
        <time>2018-03-04T09:48:17Z</time>
      </trkpt>
      <trkpt lat="46.319862836971879" lon="11.799412881955504">
        <ele>1768.96</ele>
        <time>2018-03-04T09:48:19Z</time>
      </trkpt>
      <trkpt lat="46.31978714838624" lon="11.79955386556685">
        <ele>1768.96</ele>
        <time>2018-03-04T09:48:31Z</time>
      </trkpt>
      <trkpt lat="46.319757141172886" lon="11.799626788124442">
        <ele>1770.4100000000001</ele>
        <time>2018-03-04T09:48:36Z</time>
      </trkpt>
      <trkpt lat="46.319746747612953" lon="11.799640702083707">
        <ele>1769.9200000000001</ele>
        <time>2018-03-04T09:48:37Z</time>
      </trkpt>
      <trkpt lat="46.319677932187915" lon="11.799731897190213">
        <ele>1770.4100000000001</ele>
        <time>2018-03-04T09:48:47Z</time>
      </trkpt>
      <trkpt lat="46.319590676575899" lon="11.799859050661325">
        <ele>1770.4100000000001</ele>
        <time>2018-03-04T09:49:00Z</time>
      </trkpt>
      <trkpt lat="46.319531416520476" lon="11.799943288788199">
        <ele>1770.4100000000001</ele>
        <time>2018-03-04T09:49:14Z</time>
      </trkpt>
      <trkpt lat="46.319469390437007" lon="11.80005325935781">
        <ele>1769.4400000000001</ele>
        <time>2018-03-04T09:49:26Z</time>
      </trkpt>
      <trkpt lat="46.319460002705455" lon="11.800069436430931">
        <ele>1769.9200000000001</ele>
        <time>2018-03-04T09:49:36Z</time>
      </trkpt>
      <trkpt lat="46.319395797327161" lon="11.80022282525897">
        <ele>1769.9200000000001</ele>
        <time>2018-03-04T09:49:48Z</time>
      </trkpt>
      <trkpt lat="46.319317677989602" lon="11.800370514392853">
        <ele>1769.9200000000001</ele>
        <time>2018-03-04T09:50:01Z</time>
      </trkpt>
      <trkpt lat="46.319242157042027" lon="11.800492638722062">
        <ele>1770.4100000000001</ele>
        <time>2018-03-04T09:50:12Z</time>
      </trkpt>
      <trkpt lat="46.319166133180261" lon="11.800619540736079">
        <ele>1771.3699999999999</ele>
        <time>2018-03-04T09:50:22Z</time>
      </trkpt>
      <trkpt lat="46.319103268906474" lon="11.800740910694003">
        <ele>1771.8499999999999</ele>
        <time>2018-03-04T09:50:33Z</time>
      </trkpt>
      <trkpt lat="46.319027161225677" lon="11.800889102742076">
        <ele>1771.8499999999999</ele>
        <time>2018-03-04T09:50:45Z</time>
      </trkpt>
      <trkpt lat="46.318955328315496" lon="11.801045006141067">
        <ele>1770.4100000000001</ele>
        <time>2018-03-04T09:50:57Z</time>
      </trkpt>
      <trkpt lat="46.318937558680773" lon="11.801122706383467">
        <ele>1770.4100000000001</ele>
        <time>2018-03-04T09:51:02Z</time>
      </trkpt>
      <trkpt lat="46.318925237283111" lon="11.801180122420192">
        <ele>1772.3299999999999</ele>
        <time>2018-03-04T09:51:05Z</time>
      </trkpt>
      <trkpt lat="46.318886764347553" lon="11.801267964765429">
        <ele>1771.3699999999999</ele>
        <time>2018-03-04T09:51:13Z</time>
      </trkpt>
      <trkpt lat="46.318848542869091" lon="11.801358489319682">
        <ele>1771.8499999999999</ele>
        <time>2018-03-04T09:51:20Z</time>
      </trkpt>
      <trkpt lat="46.318779559805989" lon="11.801559990271926">
        <ele>1771.8499999999999</ele>
        <time>2018-03-04T09:51:35Z</time>
      </trkpt>
      <trkpt lat="46.31872876547277" lon="11.801694938912988">
        <ele>1771.3699999999999</ele>
        <time>2018-03-04T09:51:46Z</time>
      </trkpt>
      <trkpt lat="46.318671265617013" lon="11.801821673288941">
        <ele>1771.8499999999999</ele>
        <time>2018-03-04T09:51:56Z</time>
      </trkpt>
      <trkpt lat="46.318617034703493" lon="11.801969613879919">
        <ele>1772.3299999999999</ele>
        <time>2018-03-04T09:52:07Z</time>
      </trkpt>
      <trkpt lat="46.318537322804332" lon="11.802117638289928">
        <ele>1772.8099999999999</ele>
        <time>2018-03-04T09:52:19Z</time>
      </trkpt>
      <trkpt lat="46.318453755229712" lon="11.802248731255531">
        <ele>1772.8099999999999</ele>
        <time>2018-03-04T09:52:31Z</time>
      </trkpt>
      <trkpt lat="46.318385526537895" lon="11.802374375984073">
        <ele>1773.29</ele>
        <time>2018-03-04T09:52:41Z</time>
      </trkpt>
      <trkpt lat="46.318340264260769" lon="11.802446292713284">
        <ele>1773.29</ele>
        <time>2018-03-04T09:52:50Z</time>
      </trkpt>
      <trkpt lat="46.318329786881804" lon="11.802471606060863">
        <ele>1773.77</ele>
        <time>2018-03-04T09:52:58Z</time>
      </trkpt>
      <trkpt lat="46.318284356966615" lon="11.802545702084899">
        <ele>1773.77</ele>
        <time>2018-03-04T09:53:08Z</time>
      </trkpt>
      <trkpt lat="46.318247057497501" lon="11.802601777017117">
        <ele>1773.29</ele>
        <time>2018-03-04T09:53:13Z</time>
      </trkpt>
      <trkpt lat="46.318222917616367" lon="11.802636561915278">
        <ele>1773.77</ele>
        <time>2018-03-04T09:53:16Z</time>
      </trkpt>
      <trkpt lat="46.318160640075803" lon="11.8027597758919">
        <ele>1775.21</ele>
        <time>2018-03-04T09:53:26Z</time>
      </trkpt>
      <trkpt lat="46.318103307858109" lon="11.802863460034132">
        <ele>1775.21</ele>
        <time>2018-03-04T09:53:35Z</time>
      </trkpt>
      <trkpt lat="46.318038683384657" lon="11.802986171096563">
        <ele>1774.73</ele>
        <time>2018-03-04T09:53:45Z</time>
      </trkpt>
      <trkpt lat="46.318024434149265" lon="11.80300947278738">
        <ele>1775.21</ele>
        <time>2018-03-04T09:53:47Z</time>
      </trkpt>
      <trkpt lat="46.318006496876478" lon="11.803027577698231">
        <ele>1773.77</ele>
        <time>2018-03-04T09:53:49Z</time>
      </trkpt>
      <trkpt lat="46.317931897938251" lon="11.803162945434451">
        <ele>1775.21</ele>
        <time>2018-03-04T09:54:00Z</time>
      </trkpt>
      <trkpt lat="46.317919073626399" lon="11.803190605714917">
        <ele>1775.6900000000001</ele>
        <time>2018-03-04T09:54:02Z</time>
      </trkpt>
      <trkpt lat="46.317899376153946" lon="11.803232012316585">
        <ele>1775.6900000000001</ele>
        <time>2018-03-04T09:54:05Z</time>
      </trkpt>
      <trkpt lat="46.317823100835085" lon="11.803377186879516">
        <ele>1776.1700000000001</ele>
        <time>2018-03-04T09:54:17Z</time>
      </trkpt>
      <trkpt lat="46.317768283188343" lon="11.803492438048124">
        <ele>1775.6900000000001</ele>
        <time>2018-03-04T09:54:26Z</time>
      </trkpt>
      <trkpt lat="46.317735342308879" lon="11.80354256182909">
        <ele>1776.6500000000001</ele>
        <time>2018-03-04T09:54:36Z</time>
      </trkpt>
      <trkpt lat="46.317724948748946" lon="11.803568881005049">
        <ele>1776.6500000000001</ele>
        <time>2018-03-04T09:54:38Z</time>
      </trkpt>
      <trkpt lat="46.317643309012055" lon="11.803753450512886">
        <ele>1777.1300000000001</ele>
        <time>2018-03-04T09:54:52Z</time>
      </trkpt>
      <trkpt lat="46.31758832372725" lon="11.803901558741927">
        <ele>1778.0999999999999</ele>
        <time>2018-03-04T09:55:04Z</time>
      </trkpt>
      <trkpt lat="46.317536942660809" lon="11.804080009460449">
        <ele>1778.0999999999999</ele>
        <time>2018-03-04T09:55:17Z</time>
      </trkpt>
      <trkpt lat="46.317497296258807" lon="11.804227279499173">
        <ele>1778.5799999999999</ele>
        <time>2018-03-04T09:55:27Z</time>
      </trkpt>
      <trkpt lat="46.317449100315571" lon="11.804378237575293">
        <ele>1778.5799999999999</ele>
        <time>2018-03-04T09:55:38Z</time>
      </trkpt>
      <trkpt lat="46.317402077838778" lon="11.804542439058423">
        <ele>1779.54</ele>
        <time>2018-03-04T09:55:50Z</time>
      </trkpt>
      <trkpt lat="46.317398557439446" lon="11.804558448493481">
        <ele>1779.54</ele>
        <time>2018-03-04T09:55:51Z</time>
      </trkpt>
      <trkpt lat="46.317348098382354" lon="11.804714854806662">
        <ele>1779.54</ele>
        <time>2018-03-04T09:56:03Z</time>
      </trkpt>
      <trkpt lat="46.317310966551304" lon="11.804853994399309">
        <ele>1780.02</ele>
        <time>2018-03-04T09:56:13Z</time>
      </trkpt>
      <trkpt lat="46.317275678738952" lon="11.804975531995296">
        <ele>1780.5</ele>
        <time>2018-03-04T09:56:22Z</time>
      </trkpt>
      <trkpt lat="46.317227818071842" lon="11.80510419420898">
        <ele>1780.02</ele>
        <time>2018-03-04T09:56:32Z</time>
      </trkpt>
      <trkpt lat="46.317201415076852" lon="11.805189438164234">
        <ele>1780.98</ele>
        <time>2018-03-04T09:56:39Z</time>
      </trkpt>
      <trkpt lat="46.317145843058825" lon="11.8053138256073">
        <ele>1780.98</ele>
        <time>2018-03-04T09:56:49Z</time>
      </trkpt>
      <trkpt lat="46.317084990441799" lon="11.805435111746192">
        <ele>1781.46</ele>
        <time>2018-03-04T09:56:59Z</time>
      </trkpt>
      <trkpt lat="46.317014750093222" lon="11.805545082315803">
        <ele>1781.46</ele>
        <time>2018-03-04T09:57:08Z</time>
      </trkpt>
      <trkpt lat="46.316904276609421" lon="11.805687742307782">
        <ele>1782.4200000000001</ele>
        <time>2018-03-04T09:57:21Z</time>
      </trkpt>
      <trkpt lat="46.316820457577705" lon="11.805810621008277">
        <ele>1782.9000000000001</ele>
        <time>2018-03-04T09:57:32Z</time>
      </trkpt>
      <trkpt lat="46.316797072067857" lon="11.80583911947906">
        <ele>1782.9000000000001</ele>
        <time>2018-03-04T09:57:35Z</time>
      </trkpt>
      <trkpt lat="46.316784834489226" lon="11.805866360664368">
        <ele>1782.9000000000001</ele>
        <time>2018-03-04T09:57:37Z</time>
      </trkpt>
      <trkpt lat="46.316728172823787" lon="11.805930817499757">
        <ele>1781.9400000000001</ele>
        <time>2018-03-04T09:57:44Z</time>
      </trkpt>
      <trkpt lat="46.316673774272203" lon="11.806013965979218">
        <ele>1782.4200000000001</ele>
        <time>2018-03-04T09:57:51Z</time>
      </trkpt>
      <trkpt lat="46.316602779552341" lon="11.806102059781551">
        <ele>1782.9000000000001</ele>
        <time>2018-03-04T09:57:59Z</time>
      </trkpt>
      <trkpt lat="46.316498592495918" lon="11.806298699229956">
        <ele>1783.3800000000001</ele>
        <time>2018-03-04T09:58:14Z</time>
      </trkpt>
      <trkpt lat="46.316407062113285" lon="11.806464996188879">
        <ele>1782.4200000000001</ele>
        <time>2018-03-04T09:58:26Z</time>
      </trkpt>
      <trkpt lat="46.316304048523307" lon="11.806642357259989">
        <ele>1781.46</ele>
        <time>2018-03-04T09:58:39Z</time>
      </trkpt>
      <trkpt lat="46.316186282783747" lon="11.806800439953804">
        <ele>1781.9400000000001</ele>
        <time>2018-03-04T09:58:52Z</time>
      </trkpt>
      <trkpt lat="46.316108833998442" lon="11.806979393586516">
        <ele>1781.46</ele>
        <time>2018-03-04T09:59:04Z</time>
      </trkpt>
      <trkpt lat="46.316045466810465" lon="11.807116186246276">
        <ele>1781.46</ele>
        <time>2018-03-04T09:59:13Z</time>
      </trkpt>
      <trkpt lat="46.315966593101621" lon="11.80728449486196">
        <ele>1781.46</ele>
        <time>2018-03-04T09:59:25Z</time>
      </trkpt>
      <trkpt lat="46.315944213420153" lon="11.807325063273311">
        <ele>1781.9400000000001</ele>
        <time>2018-03-04T09:59:28Z</time>
      </trkpt>
      <trkpt lat="46.315845223143697" lon="11.807509297505021">
        <ele>1781.46</ele>
        <time>2018-03-04T09:59:42Z</time>
      </trkpt>
      <trkpt lat="46.315752938389778" lon="11.807699566707015">
        <ele>1781.46</ele>
        <time>2018-03-04T09:59:56Z</time>
      </trkpt>
      <trkpt lat="46.315681021660566" lon="11.807856392115355">
        <ele>1782.4200000000001</ele>
        <time>2018-03-04T10:00:07Z</time>
      </trkpt>
      <trkpt lat="46.315636765211821" lon="11.807952951639891">
        <ele>1782.9000000000001</ele>
        <time>2018-03-04T10:00:14Z</time>
      </trkpt>
      <trkpt lat="46.315595777705312" lon="11.808082535862923">
        <ele>1783.3800000000001</ele>
        <time>2018-03-04T10:00:23Z</time>
      </trkpt>
      <trkpt lat="46.315544480457902" lon="11.80827783420682">
        <ele>1782.4200000000001</ele>
        <time>2018-03-04T10:00:37Z</time>
      </trkpt>
      <trkpt lat="46.31550332531333" lon="11.808445388451219">
        <ele>1783.3800000000001</ele>
        <time>2018-03-04T10:00:48Z</time>
      </trkpt>
      <trkpt lat="46.315487651154399" lon="11.808564160019159">
        <ele>1782.9000000000001</ele>
        <time>2018-03-04T10:00:56Z</time>
      </trkpt>
      <trkpt lat="46.315463008359075" lon="11.808753088116646">
        <ele>1784.3399999999999</ele>
        <time>2018-03-04T10:01:08Z</time>
      </trkpt>
      <trkpt lat="46.315445406362414" lon="11.808920726180077">
        <ele>1785.79</ele>
        <time>2018-03-04T10:01:18Z</time>
      </trkpt>
      <trkpt lat="46.315418835729361" lon="11.809053244069219">
        <ele>1786.75</ele>
        <time>2018-03-04T10:01:28Z</time>
      </trkpt>
      <trkpt lat="46.315393187105656" lon="11.809190036728978">
        <ele>1787.71</ele>
        <time>2018-03-04T10:01:39Z</time>
      </trkpt>
      <trkpt lat="46.315380362793803" lon="11.809306964278221">
        <ele>1789.1500000000001</ele>
        <time>2018-03-04T10:01:46Z</time>
      </trkpt>
      <trkpt lat="46.315365359187126" lon="11.809451971203089">
        <ele>1790.1099999999999</ele>
        <time>2018-03-04T10:01:56Z</time>
      </trkpt>
      <trkpt lat="46.315354462713003" lon="11.809569150209427">
        <ele>1790.5899999999999</ele>
        <time>2018-03-04T10:02:04Z</time>
      </trkpt>
      <trkpt lat="46.315326802432537" lon="11.809725807979703">
        <ele>1792.03</ele>
        <time>2018-03-04T10:02:15Z</time>
      </trkpt>
      <trkpt lat="46.315314816311002" lon="11.809879448264837">
        <ele>1793.48</ele>
        <time>2018-03-04T10:02:26Z</time>
      </trkpt>
      <trkpt lat="46.31529520265758" lon="11.810021437704563">
        <ele>1794.4400000000001</ele>
        <time>2018-03-04T10:02:36Z</time>
      </trkpt>
      <trkpt lat="46.315281959250569" lon="11.810166863724589">
        <ele>1794.9200000000001</ele>
        <time>2018-03-04T10:02:46Z</time>
      </trkpt>
      <trkpt lat="46.315263686701655" lon="11.810315391048789">
        <ele>1796.3599999999999</ele>
        <time>2018-03-04T10:02:58Z</time>
      </trkpt>
      <trkpt lat="46.315246503800154" lon="11.810448160395026">
        <ele>1796.8399999999999</ele>
        <time>2018-03-04T10:03:08Z</time>
      </trkpt>
      <trkpt lat="46.315244324505329" lon="11.810463164001703">
        <ele>1797.3199999999999</ele>
        <time>2018-03-04T10:03:09Z</time>
      </trkpt>
      <trkpt lat="46.315232757478952" lon="11.810501972213387">
        <ele>1797.3199999999999</ele>
        <time>2018-03-04T10:03:13Z</time>
      </trkpt>
      <trkpt lat="46.315189590677619" lon="11.810631724074483">
        <ele>1798.28</ele>
        <time>2018-03-04T10:03:22Z</time>
      </trkpt>
      <trkpt lat="46.315172491595149" lon="11.810699785128236">
        <ele>1798.76</ele>
        <time>2018-03-04T10:03:27Z</time>
      </trkpt>
      <trkpt lat="46.315130582079291" lon="11.810772037133574">
        <ele>1799.24</ele>
        <time>2018-03-04T10:03:34Z</time>
      </trkpt>
      <trkpt lat="46.315069478005171" lon="11.810877397656441">
        <ele>1800.6900000000001</ele>
        <time>2018-03-04T10:03:45Z</time>
      </trkpt>
      <trkpt lat="46.315008625388145" lon="11.810958702117205">
        <ele>1802.6099999999999</ele>
        <time>2018-03-04T10:03:54Z</time>
      </trkpt>
      <trkpt lat="46.314945844933391" lon="11.811112929135561">
        <ele>1803.5699999999999</ele>
        <time>2018-03-04T10:04:06Z</time>
      </trkpt>
      <trkpt lat="46.314891362562776" lon="11.811204962432384">
        <ele>1803.5699999999999</ele>
        <time>2018-03-04T10:04:14Z</time>
      </trkpt>
      <trkpt lat="46.314822044223547" lon="11.811304958537221">
        <ele>1804.05</ele>
        <time>2018-03-04T10:04:23Z</time>
      </trkpt>
      <trkpt lat="46.314724646508694" lon="11.811419203877449">
        <ele>1804.53</ele>
        <time>2018-03-04T10:04:34Z</time>
      </trkpt>
      <trkpt lat="46.314721880480647" lon="11.811431441456079">
        <ele>1805.01</ele>
        <time>2018-03-04T10:04:35Z</time>
      </trkpt>
      <trkpt lat="46.314633367583156" lon="11.811559349298477">
        <ele>1805.97</ele>
        <time>2018-03-04T10:04:46Z</time>
      </trkpt>
      <trkpt lat="46.314574526622891" lon="11.811625817790627">
        <ele>1806.9400000000001</ele>
        <time>2018-03-04T10:04:56Z</time>
      </trkpt>
      <trkpt lat="46.314568994566798" lon="11.81163277477026">
        <ele>1805.97</ele>
        <time>2018-03-04T10:05:06Z</time>
      </trkpt>
      <trkpt lat="46.314588105306029" lon="11.811642581596971">
        <ele>1806.9400000000001</ele>
        <time>2018-03-04T10:05:23Z</time>
      </trkpt>
      <trkpt lat="46.31457251496613" lon="11.811674851924181">
        <ele>1806.45</ele>
        <time>2018-03-04T10:05:36Z</time>
      </trkpt>
      <trkpt lat="46.314570754766464" lon="11.811664709821343">
        <ele>1806.9400000000001</ele>
        <time>2018-03-04T10:05:52Z</time>
      </trkpt>
      <trkpt lat="46.314562205225229" lon="11.81165280751884">
        <ele>1807.4200000000001</ele>
        <time>2018-03-04T10:06:12Z</time>
      </trkpt>
      <trkpt lat="46.314554996788502" lon="11.8116445094347">
        <ele>1807.4200000000001</ele>
        <time>2018-03-04T10:06:24Z</time>
      </trkpt>
      <trkpt lat="46.314556673169136" lon="11.811657669022679">
        <ele>1807.4200000000001</ele>
        <time>2018-03-04T10:06:37Z</time>
      </trkpt>
      <trkpt lat="46.314580393955112" lon="11.81163520552218">
        <ele>1806.9400000000001</ele>
        <time>2018-03-04T10:06:46Z</time>
      </trkpt>
      <trkpt lat="46.314596068114042" lon="11.811631014570594">
        <ele>1807.4200000000001</ele>
        <time>2018-03-04T10:07:02Z</time>
      </trkpt>
      <trkpt lat="46.314585926011205" lon="11.81163277477026">
        <ele>1806.9400000000001</ele>
        <time>2018-03-04T10:07:16Z</time>
      </trkpt>
      <trkpt lat="46.314591206610203" lon="11.811630679294467">
        <ele>1807.4200000000001</ele>
        <time>2018-03-04T10:07:31Z</time>
      </trkpt>
      <trkpt lat="46.314578633755445" lon="11.811645179986954">
        <ele>1807.9000000000001</ele>
        <time>2018-03-04T10:07:47Z</time>
      </trkpt>
      <trkpt lat="46.314566060900688" lon="11.81165574118495">
        <ele>1807.4200000000001</ele>
        <time>2018-03-04T10:07:57Z</time>
      </trkpt>
      <trkpt lat="46.314562456682324" lon="11.811701590195298">
        <ele>1807.4200000000001</ele>
        <time>2018-03-04T10:08:05Z</time>
      </trkpt>
      <trkpt lat="46.314554158598185" lon="11.811737883836031">
        <ele>1807.9000000000001</ele>
        <time>2018-03-04T10:08:10Z</time>
      </trkpt>
      <trkpt lat="46.31453144364059" lon="11.811772584915161">
        <ele>1807.4200000000001</ele>
        <time>2018-03-04T10:08:14Z</time>
      </trkpt>
      <trkpt lat="46.314476290717721" lon="11.811867468059063">
        <ele>1808.3800000000001</ele>
        <time>2018-03-04T10:08:23Z</time>
      </trkpt>
      <trkpt lat="46.314423903822899" lon="11.811969811096787">
        <ele>1808.8599999999999</ele>
        <time>2018-03-04T10:08:33Z</time>
      </trkpt>
      <trkpt lat="46.31438878364861" lon="11.8120745010674">
        <ele>1809.3399999999999</ele>
        <time>2018-03-04T10:08:42Z</time>
      </trkpt>
      <trkpt lat="46.314364057034254" lon="11.812210455536842">
        <ele>1810.3</ele>
        <time>2018-03-04T10:08:53Z</time>
      </trkpt>
      <trkpt lat="46.314335893839598" lon="11.812329310923815">
        <ele>1811.74</ele>
        <time>2018-03-04T10:09:04Z</time>
      </trkpt>
      <trkpt lat="46.314311670139432" lon="11.812438610941172">
        <ele>1812.22</ele>
        <time>2018-03-04T10:09:13Z</time>
      </trkpt>
      <trkpt lat="46.314287446439266" lon="11.812532236799598">
        <ele>1813.1800000000001</ele>
        <time>2018-03-04T10:09:22Z</time>
      </trkpt>
      <trkpt lat="46.314256684854627" lon="11.812653942033648">
        <ele>1814.1500000000001</ele>
        <time>2018-03-04T10:09:32Z</time>
      </trkpt>
      <trkpt lat="46.314229946583509" lon="11.812755111604929">
        <ele>1815.1099999999999</ele>
        <time>2018-03-04T10:09:40Z</time>
      </trkpt>
      <trkpt lat="46.314213518053293" lon="11.81287094950676">
        <ele>1816.55</ele>
        <time>2018-03-04T10:09:49Z</time>
      </trkpt>
      <trkpt lat="46.314201699569821" lon="11.812934149056673">
        <ele>1817.03</ele>
        <time>2018-03-04T10:09:54Z</time>
      </trkpt>
      <trkpt lat="46.314202537760139" lon="11.813075551763177">
        <ele>1817.51</ele>
        <time>2018-03-04T10:10:04Z</time>
      </trkpt>
      <trkpt lat="46.314212428405881" lon="11.813194407150149">
        <ele>1818.95</ele>
        <time>2018-03-04T10:10:13Z</time>
      </trkpt>
      <trkpt lat="46.314217373728752" lon="11.813200861215591">
        <ele>1818.47</ele>
        <time>2018-03-04T10:10:14Z</time>
      </trkpt>
      <trkpt lat="46.314235311001539" lon="11.813316028565168">
        <ele>1819.9100000000001</ele>
        <time>2018-03-04T10:10:23Z</time>
      </trkpt>
      <trkpt lat="46.314241345971823" lon="11.813361709937453">
        <ele>1820.8699999999999</ele>
        <time>2018-03-04T10:10:27Z</time>
      </trkpt>
      <trkpt lat="46.314247632399201" lon="11.813475955277681">
        <ele>1822.3199999999999</ele>
        <time>2018-03-04T10:10:37Z</time>
      </trkpt>
      <trkpt lat="46.314258277416229" lon="11.813597492873669">
        <ele>1823.28</ele>
        <time>2018-03-04T10:10:47Z</time>
      </trkpt>
      <trkpt lat="46.314249727874994" lon="11.813705954700708">
        <ele>1824.72</ele>
        <time>2018-03-04T10:10:57Z</time>
      </trkpt>
      <trkpt lat="46.314250398427248" lon="11.813712576404214">
        <ele>1824.72</ele>
        <time>2018-03-04T10:10:58Z</time>
      </trkpt>
      <trkpt lat="46.314243525266647" lon="11.813747780397534">
        <ele>1825.6800000000001</ele>
        <time>2018-03-04T10:11:01Z</time>
      </trkpt>
      <trkpt lat="46.314237490296364" lon="11.813790611922741">
        <ele>1825.6800000000001</ele>
        <time>2018-03-04T10:11:04Z</time>
      </trkpt>
      <trkpt lat="46.314231036230922" lon="11.813820283859968">
        <ele>1826.1600000000001</ele>
        <time>2018-03-04T10:11:07Z</time>
      </trkpt>
      <trkpt lat="46.314230365678668" lon="11.813853643834591">
        <ele>1826.1600000000001</ele>
        <time>2018-03-04T10:11:10Z</time>
      </trkpt>
      <trkpt lat="46.31422458216548" lon="11.813894044607878">
        <ele>1827.1199999999999</ele>
        <time>2018-03-04T10:11:13Z</time>
      </trkpt>
      <trkpt lat="46.314223576337099" lon="11.813918435946107">
        <ele>1827.1199999999999</ele>
        <time>2018-03-04T10:11:15Z</time>
      </trkpt>
      <trkpt lat="46.314216200262308" lon="11.813961435109377">
        <ele>1827.1199999999999</ele>
        <time>2018-03-04T10:11:18Z</time>
      </trkpt>
      <trkpt lat="46.314192563295364" lon="11.814049025997519">
        <ele>1827.1199999999999</ele>
        <time>2018-03-04T10:11:28Z</time>
      </trkpt>
      <trkpt lat="46.314186360687017" lon="11.814082721248269">
        <ele>1827.1199999999999</ele>
        <time>2018-03-04T10:11:39Z</time>
      </trkpt>
      <trkpt lat="46.31418501958251" lon="11.814087918028235">
        <ele>1827.1199999999999</ele>
        <time>2018-03-04T10:11:42Z</time>
      </trkpt>
      <trkpt lat="46.314139254391193" lon="11.814268799498677">
        <ele>1826.6400000000001</ele>
        <time>2018-03-04T10:11:55Z</time>
      </trkpt>
      <trkpt lat="46.314124334603548" lon="11.814328646287322">
        <ele>1827.1199999999999</ele>
        <time>2018-03-04T10:12:00Z</time>
      </trkpt>
      <trkpt lat="46.314070606604218" lon="11.814492763951421">
        <ele>1828.0799999999999</ele>
        <time>2018-03-04T10:12:14Z</time>
      </trkpt>
      <trkpt lat="46.31406432017684" lon="11.814535176381469">
        <ele>1829.05</ele>
        <time>2018-03-04T10:12:17Z</time>
      </trkpt>
      <trkpt lat="46.314003383740783" lon="11.814656797796488">
        <ele>1829.53</ele>
        <time>2018-03-04T10:12:28Z</time>
      </trkpt>
      <trkpt lat="46.313928449526429" lon="11.81475268676877">
        <ele>1830.97</ele>
        <time>2018-03-04T10:12:38Z</time>
      </trkpt>
      <trkpt lat="46.313916714861989" lon="11.81477028876543">
        <ele>1830.97</ele>
        <time>2018-03-04T10:12:40Z</time>
      </trkpt>
      <trkpt lat="46.313831806182861" lon="11.814847234636545">
        <ele>1831.9300000000001</ele>
        <time>2018-03-04T10:12:50Z</time>
      </trkpt>
      <trkpt lat="46.313772043213248" lon="11.814908506348729">
        <ele>1832.4100000000001</ele>
        <time>2018-03-04T10:12:57Z</time>
      </trkpt>
      <trkpt lat="46.313741449266672" lon="11.81495251134038">
        <ele>1833.3699999999999</ele>
        <time>2018-03-04T10:13:02Z</time>
      </trkpt>
      <trkpt lat="46.313651762902737" lon="11.81504781357944">
        <ele>1834.3299999999999</ele>
        <time>2018-03-04T10:13:13Z</time>
      </trkpt>
      <trkpt lat="46.313635753467679" lon="11.815056195482612">
        <ele>1834.8099999999999</ele>
        <time>2018-03-04T10:13:15Z</time>
      </trkpt>
      <trkpt lat="46.313579175621271" lon="11.815124591812491">
        <ele>1835.77</ele>
        <time>2018-03-04T10:13:23Z</time>
      </trkpt>
      <trkpt lat="46.313526453450322" lon="11.815183348953724">
        <ele>1836.26</ele>
        <time>2018-03-04T10:13:32Z</time>
      </trkpt>
      <trkpt lat="46.313507929444313" lon="11.815197011455894">
        <ele>1836.26</ele>
        <time>2018-03-04T10:13:34Z</time>
      </trkpt>
      <trkpt lat="46.31348772905767" lon="11.815209751948714">
        <ele>1836.74</ele>
        <time>2018-03-04T10:13:37Z</time>
      </trkpt>
      <trkpt lat="46.313473312184215" lon="11.815228359773755">
        <ele>1836.74</ele>
        <time>2018-03-04T10:13:39Z</time>
      </trkpt>
      <trkpt lat="46.313429307192564" lon="11.815340844914317">
        <ele>1837.7</ele>
        <time>2018-03-04T10:13:50Z</time>
      </trkpt>
      <trkpt lat="46.313409442082047" lon="11.815367750823498">
        <ele>1838.1800000000001</ele>
        <time>2018-03-04T10:13:58Z</time>
      </trkpt>
      <trkpt lat="46.313415057957172" lon="11.815353333950043">
        <ele>1838.1800000000001</ele>
        <time>2018-03-04T10:14:17Z</time>
      </trkpt>
      <trkpt lat="46.313419668003917" lon="11.815362554043531">
        <ele>1838.1800000000001</ele>
        <time>2018-03-04T10:14:31Z</time>
      </trkpt>
      <trkpt lat="46.313407514244318" lon="11.815381413325667">
        <ele>1838.6600000000001</ele>
        <time>2018-03-04T10:14:44Z</time>
      </trkpt>
      <trkpt lat="46.313407011330128" lon="11.815377892926335">
        <ele>1838.1800000000001</ele>
        <time>2018-03-04T10:14:57Z</time>
      </trkpt>
      <trkpt lat="46.31338463164866" lon="11.81537713855505">
        <ele>1838.6600000000001</ele>
        <time>2018-03-04T10:15:17Z</time>
      </trkpt>
      <trkpt lat="46.313400641083717" lon="11.815361380577087">
        <ele>1838.6600000000001</ele>
        <time>2018-03-04T10:15:40Z</time>
      </trkpt>
      <trkpt lat="46.313415393233299" lon="11.815347969532013">
        <ele>1838.1800000000001</ele>
        <time>2018-03-04T10:15:49Z</time>
      </trkpt>
      <trkpt lat="46.313412878662348" lon="11.815389459952712">
        <ele>1838.6600000000001</ele>
        <time>2018-03-04T10:16:02Z</time>
      </trkpt>
      <trkpt lat="46.313393767923117" lon="11.815398344770074">
        <ele>1838.1800000000001</ele>
        <time>2018-03-04T10:16:15Z</time>
      </trkpt>
      <trkpt lat="46.313405502587557" lon="11.815398093312979">
        <ele>1838.1800000000001</ele>
        <time>2018-03-04T10:16:34Z</time>
      </trkpt>
      <trkpt lat="46.313385050743818" lon="11.81539230979979">
        <ele>1838.1800000000001</ele>
        <time>2018-03-04T10:16:51Z</time>
      </trkpt>
      <trkpt lat="46.313428385183215" lon="11.815339000895619">
        <ele>1837.7</ele>
        <time>2018-03-04T10:17:07Z</time>
      </trkpt>
      <trkpt lat="46.313421260565519" lon="11.815389459952712">
        <ele>1838.1800000000001</ele>
        <time>2018-03-04T10:17:18Z</time>
      </trkpt>
      <trkpt lat="46.313421009108424" lon="11.815359117463231">
        <ele>1839.1400000000001</ele>
        <time>2018-03-04T10:17:31Z</time>
      </trkpt>
      <trkpt lat="46.313414052128792" lon="11.815352831035852">
        <ele>1839.1400000000001</ele>
        <time>2018-03-04T10:17:43Z</time>
      </trkpt>
      <trkpt lat="46.313389409333467" lon="11.81534880772233">
        <ele>1838.1800000000001</ele>
        <time>2018-03-04T10:18:02Z</time>
      </trkpt>
      <trkpt lat="46.313395611941814" lon="11.815384766086936">
        <ele>1837.7</ele>
        <time>2018-03-04T10:18:13Z</time>
      </trkpt>
      <trkpt lat="46.313383961096406" lon="11.815382838249207">
        <ele>1837.22</ele>
        <time>2018-03-04T10:18:25Z</time>
      </trkpt>
      <trkpt lat="46.313352696597576" lon="11.815362889319658">
        <ele>1838.1800000000001</ele>
        <time>2018-03-04T10:18:48Z</time>
      </trkpt>
      <trkpt lat="46.313366275280714" lon="11.815369594842196">
        <ele>1837.7</ele>
        <time>2018-03-04T10:19:01Z</time>
      </trkpt>
      <trkpt lat="46.313399970531464" lon="11.81534587405622">
        <ele>1837.7</ele>
        <time>2018-03-04T10:19:24Z</time>
      </trkpt>
      <trkpt lat="46.313425535336137" lon="11.815375294536352">
        <ele>1837.7</ele>
        <time>2018-03-04T10:19:41Z</time>
      </trkpt>
      <trkpt lat="46.313405083492398" lon="11.81536833755672">
        <ele>1838.1800000000001</ele>
        <time>2018-03-04T10:20:01Z</time>
      </trkpt>
      <trkpt lat="46.313391169533134" lon="11.815356770530343">
        <ele>1838.1800000000001</ele>
        <time>2018-03-04T10:20:13Z</time>
      </trkpt>
      <trkpt lat="46.313394354656339" lon="11.815363727509975">
        <ele>1837.7</ele>
        <time>2018-03-04T10:20:24Z</time>
      </trkpt>
      <trkpt lat="46.313382619991899" lon="11.815347634255886">
        <ele>1838.1800000000001</ele>
        <time>2018-03-04T10:20:41Z</time>
      </trkpt>
      <trkpt lat="46.313381949439645" lon="11.815353333950043">
        <ele>1838.1800000000001</ele>
        <time>2018-03-04T10:20:51Z</time>
      </trkpt>
      <trkpt lat="46.313373148441315" lon="11.815370097756386">
        <ele>1838.1800000000001</ele>
        <time>2018-03-04T10:21:05Z</time>
      </trkpt>
      <trkpt lat="46.313388822600245" lon="11.815419886261225">
        <ele>1837.7</ele>
        <time>2018-03-04T10:21:21Z</time>
      </trkpt>
      <trkpt lat="46.313384464010596" lon="11.815487192943692">
        <ele>1838.6600000000001</ele>
        <time>2018-03-04T10:21:31Z</time>
      </trkpt>
      <trkpt lat="46.313361246138811" lon="11.815610993653536">
        <ele>1840.0999999999999</ele>
        <time>2018-03-04T10:21:41Z</time>
      </trkpt>
      <trkpt lat="46.313334424048662" lon="11.815768992528319">
        <ele>1840.5799999999999</ele>
        <time>2018-03-04T10:21:53Z</time>
      </trkpt>
      <trkpt lat="46.313300393521786" lon="11.815883489325643">
        <ele>1841.54</ele>
        <time>2018-03-04T10:22:03Z</time>
      </trkpt>
      <trkpt lat="46.313257059082389" lon="11.81596739217639">
        <ele>1842.5</ele>
        <time>2018-03-04T10:22:12Z</time>
      </trkpt>
      <trkpt lat="46.313198134303093" lon="11.816052887588739">
        <ele>1842.98</ele>
        <time>2018-03-04T10:22:21Z</time>
      </trkpt>
      <trkpt lat="46.313149100169539" lon="11.816116003319621">
        <ele>1843.95</ele>
        <time>2018-03-04T10:22:28Z</time>
      </trkpt>
      <trkpt lat="46.31308950483799" lon="11.81621759198606">
        <ele>1844.9100000000001</ele>
        <time>2018-03-04T10:22:39Z</time>
      </trkpt>
      <trkpt lat="46.313067963346839" lon="11.816313983872533">
        <ele>1846.3499999999999</ele>
        <time>2018-03-04T10:22:46Z</time>
      </trkpt>
      <trkpt lat="46.313023623079062" lon="11.816416410729289">
        <ele>1846.3499999999999</ele>
        <time>2018-03-04T10:22:55Z</time>
      </trkpt>
      <trkpt lat="46.312969140708447" lon="11.816523363813758">
        <ele>1846.3499999999999</ele>
        <time>2018-03-04T10:23:05Z</time>
      </trkpt>
      <trkpt lat="46.312935361638665" lon="11.816631658002734">
        <ele>1847.3099999999999</ele>
        <time>2018-03-04T10:23:16Z</time>
      </trkpt>
      <trkpt lat="46.312898397445679" lon="11.816690247505903">
        <ele>1847.3099999999999</ele>
        <time>2018-03-04T10:23:22Z</time>
      </trkpt>
      <trkpt lat="46.312870066612959" lon="11.816745484247804">
        <ele>1848.27</ele>
        <time>2018-03-04T10:23:27Z</time>
      </trkpt>
      <trkpt lat="46.312808878719807" lon="11.816833997145295">
        <ele>1848.27</ele>
        <time>2018-03-04T10:23:36Z</time>
      </trkpt>
      <trkpt lat="46.3127953838557" lon="11.816855203360319">
        <ele>1848.75</ele>
        <time>2018-03-04T10:23:38Z</time>
      </trkpt>
      <trkpt lat="46.312779290601611" lon="11.816875403746963">
        <ele>1848.75</ele>
        <time>2018-03-04T10:23:40Z</time>
      </trkpt>
      <trkpt lat="46.312718437984586" lon="11.816988559439778">
        <ele>1849.71</ele>
        <time>2018-03-04T10:23:51Z</time>
      </trkpt>
      <trkpt lat="46.312704524025321" lon="11.817018315196037">
        <ele>1850.1900000000001</ele>
        <time>2018-03-04T10:23:54Z</time>
      </trkpt>
      <trkpt lat="46.312691448256373" lon="11.817037928849459">
        <ele>1850.6800000000001</ele>
        <time>2018-03-04T10:23:56Z</time>
      </trkpt>
      <trkpt lat="46.312635792419314" lon="11.817119400948286">
        <ele>1851.6400000000001</ele>
        <time>2018-03-04T10:24:05Z</time>
      </trkpt>
      <trkpt lat="46.312595726922154" lon="11.8172153737396">
        <ele>1852.1199999999999</ele>
        <time>2018-03-04T10:24:14Z</time>
      </trkpt>
      <trkpt lat="46.312572676688433" lon="11.817240100353956">
        <ele>1851.6400000000001</ele>
        <time>2018-03-04T10:24:17Z</time>
      </trkpt>
      <trkpt lat="46.312511404976249" lon="11.817353256046772">
        <ele>1853.0799999999999</ele>
        <time>2018-03-04T10:24:28Z</time>
      </trkpt>
      <trkpt lat="46.312471926212311" lon="11.817466579377651">
        <ele>1854.52</ele>
        <time>2018-03-04T10:24:38Z</time>
      </trkpt>
      <trkpt lat="46.31245038472116" lon="11.817530952394009">
        <ele>1855.48</ele>
        <time>2018-03-04T10:24:45Z</time>
      </trkpt>
      <trkpt lat="46.312388693913817" lon="11.817609826102853">
        <ele>1855.96</ele>
        <time>2018-03-04T10:24:54Z</time>
      </trkpt>
      <trkpt lat="46.312307808548212" lon="11.817691046744585">
        <ele>1856.9200000000001</ele>
        <time>2018-03-04T10:25:04Z</time>
      </trkpt>
      <trkpt lat="46.312260031700134" lon="11.817730274051428">
        <ele>1857.4000000000001</ele>
        <time>2018-03-04T10:25:10Z</time>
      </trkpt>
      <trkpt lat="46.312247542664409" lon="11.817750642076135">
        <ele>1857.4000000000001</ele>
        <time>2018-03-04T10:25:12Z</time>
      </trkpt>
      <trkpt lat="46.312188534066081" lon="11.81785399094224">
        <ele>1858.8499999999999</ele>
        <time>2018-03-04T10:25:23Z</time>
      </trkpt>
      <trkpt lat="46.312148803845048" lon="11.817950131371617">
        <ele>1859.3299999999999</ele>
        <time>2018-03-04T10:25:33Z</time>
      </trkpt>
      <trkpt lat="46.312115108594298" lon="11.818068148568273">
        <ele>1860.77</ele>
        <time>2018-03-04T10:25:43Z</time>
      </trkpt>
      <trkpt lat="46.312103541567922" lon="11.818108716979623">
        <ele>1860.77</ele>
        <time>2018-03-04T10:25:46Z</time>
      </trkpt>
      <trkpt lat="46.312091974541545" lon="11.818140903487802">
        <ele>1861.25</ele>
        <time>2018-03-04T10:25:49Z</time>
      </trkpt>
      <trkpt lat="46.312062218785286" lon="11.818240061402321">
        <ele>1861.73</ele>
        <time>2018-03-04T10:25:58Z</time>
      </trkpt>
      <trkpt lat="46.312017543241382" lon="11.818331843242049">
        <ele>1862.6900000000001</ele>
        <time>2018-03-04T10:26:07Z</time>
      </trkpt>
      <trkpt lat="46.312005138024688" lon="11.818365035578609">
        <ele>1863.1700000000001</ele>
        <time>2018-03-04T10:26:10Z</time>
      </trkpt>
      <trkpt lat="46.311988206580281" lon="11.818474000319839">
        <ele>1863.1700000000001</ele>
        <time>2018-03-04T10:26:19Z</time>
      </trkpt>
      <trkpt lat="46.311958031728864" lon="11.818473497405648">
        <ele>1863.6500000000001</ele>
        <time>2018-03-04T10:26:28Z</time>
      </trkpt>
      <trkpt lat="46.312009412795305" lon="11.818449944257736">
        <ele>1863.1700000000001</ele>
        <time>2018-03-04T10:26:39Z</time>
      </trkpt>
      <trkpt lat="46.311989966779947" lon="11.81845941580832">
        <ele>1863.6500000000001</ele>
        <time>2018-03-04T10:26:49Z</time>
      </trkpt>
      <trkpt lat="46.311977980658412" lon="11.818454219028354">
        <ele>1863.6500000000001</ele>
        <time>2018-03-04T10:27:06Z</time>
      </trkpt>
      <trkpt lat="46.311945877969265" lon="11.818515239283442">
        <ele>1864.6099999999999</ele>
        <time>2018-03-04T10:27:17Z</time>
      </trkpt>
      <trkpt lat="46.311945877969265" lon="11.818556562066078">
        <ele>1864.6099999999999</ele>
        <time>2018-03-04T10:27:33Z</time>
      </trkpt>
      <trkpt lat="46.311916206032038" lon="11.818649768829346">
        <ele>1865.5799999999999</ele>
        <time>2018-03-04T10:27:42Z</time>
      </trkpt>
      <trkpt lat="46.311889970675111" lon="11.818721517920494">
        <ele>1866.0599999999999</ele>
        <time>2018-03-04T10:27:49Z</time>
      </trkpt>
      <trkpt lat="46.311823921278119" lon="11.818768540397286">
        <ele>1867.02</ele>
        <time>2018-03-04T10:27:59Z</time>
      </trkpt>
      <trkpt lat="46.311794584617019" lon="11.818735850974917">
        <ele>1866.54</ele>
        <time>2018-03-04T10:28:20Z</time>
      </trkpt>
      <trkpt lat="46.311811432242393" lon="11.818779520690441">
        <ele>1866.54</ele>
        <time>2018-03-04T10:28:37Z</time>
      </trkpt>
      <trkpt lat="46.311802715063095" lon="11.818788824602962">
        <ele>1867.02</ele>
        <time>2018-03-04T10:28:38Z</time>
      </trkpt>
      <trkpt lat="46.311768516898155" lon="11.818789914250374">
        <ele>1867.5</ele>
        <time>2018-03-04T10:28:47Z</time>
      </trkpt>
      <trkpt lat="46.31173599511385" lon="11.818794859573245">
        <ele>1867.5</ele>
        <time>2018-03-04T10:29:01Z</time>
      </trkpt>
      <trkpt lat="46.311671873554587" lon="11.818774156272411">
        <ele>1867.98</ele>
        <time>2018-03-04T10:29:14Z</time>
      </trkpt>
      <trkpt lat="46.311651421710849" lon="11.818782957270741">
        <ele>1868.46</ele>
        <time>2018-03-04T10:29:27Z</time>
      </trkpt>
      <trkpt lat="46.311620157212019" lon="11.818724116310477">
        <ele>1868.9400000000001</ele>
        <time>2018-03-04T10:29:35Z</time>
      </trkpt>
      <trkpt lat="46.311528040096164" lon="11.81870081461966">
        <ele>1869.9000000000001</ele>
        <time>2018-03-04T10:29:45Z</time>
      </trkpt>
      <trkpt lat="46.311435839161277" lon="11.818738700821996">
        <ele>1870.8599999999999</ele>
        <time>2018-03-04T10:29:55Z</time>
      </trkpt>
      <trkpt lat="46.311426954343915" lon="11.818744819611311">
        <ele>1871.3399999999999</ele>
        <time>2018-03-04T10:29:56Z</time>
      </trkpt>
      <trkpt lat="46.311348835006356" lon="11.81881757453084">
        <ele>1872.3</ele>
        <time>2018-03-04T10:30:06Z</time>
      </trkpt>
      <trkpt lat="46.311312625184655" lon="11.818854790180922">
        <ele>1872.3</ele>
        <time>2018-03-04T10:30:10Z</time>
      </trkpt>
      <trkpt lat="46.311236601322889" lon="11.818938190117478">
        <ele>1873.75</ele>
        <time>2018-03-04T10:30:19Z</time>
      </trkpt>
      <trkpt lat="46.311162002384663" lon="11.818993510678411">
        <ele>1874.23</ele>
        <time>2018-03-04T10:30:28Z</time>
      </trkpt>
      <trkpt lat="46.311064604669809" lon="11.81901840493083">
        <ele>1875.6700000000001</ele>
        <time>2018-03-04T10:30:40Z</time>
      </trkpt>
      <trkpt lat="46.310983719304204" lon="11.819041287526488">
        <ele>1877.5899999999999</ele>
        <time>2018-03-04T10:30:50Z</time>
      </trkpt>
      <trkpt lat="46.310903504490852" lon="11.819063499569893">
        <ele>1877.1099999999999</ele>
        <time>2018-03-04T10:30:59Z</time>
      </trkpt>
      <trkpt lat="46.31082471460104" lon="11.819079760462046">
        <ele>1877.5899999999999</ele>
        <time>2018-03-04T10:31:07Z</time>
      </trkpt>
      <trkpt lat="46.310743577778339" lon="11.819080766290426">
        <ele>1878.55</ele>
        <time>2018-03-04T10:31:17Z</time>
      </trkpt>
      <trkpt lat="46.310691609978676" lon="11.819067522883415">
        <ele>1879.51</ele>
        <time>2018-03-04T10:31:27Z</time>
      </trkpt>
      <trkpt lat="46.310704685747623" lon="11.819086214527488">
        <ele>1879.51</ele>
        <time>2018-03-04T10:31:42Z</time>
      </trkpt>
      <trkpt lat="46.310711307451129" lon="11.819079425185919">
        <ele>1879.51</ele>
        <time>2018-03-04T10:32:01Z</time>
      </trkpt>
      <trkpt lat="46.310707619413733" lon="11.819083029404283">
        <ele>1880</ele>
        <time>2018-03-04T10:32:18Z</time>
      </trkpt>
      <trkpt lat="46.310712732374668" lon="11.819038521498442">
        <ele>1879.51</ele>
        <time>2018-03-04T10:32:34Z</time>
      </trkpt>
      <trkpt lat="46.310679456219077" lon="11.819077329710126">
        <ele>1880</ele>
        <time>2018-03-04T10:32:47Z</time>
      </trkpt>
      <trkpt lat="46.310641318559647" lon="11.819052184000611">
        <ele>1880</ele>
        <time>2018-03-04T10:33:02Z</time>
      </trkpt>
      <trkpt lat="46.310582561418414" lon="11.819047909229994">
        <ele>1880.48</ele>
        <time>2018-03-04T10:33:12Z</time>
      </trkpt>
      <trkpt lat="46.310516512021422" lon="11.81903793476522">
        <ele>1881.9200000000001</ele>
        <time>2018-03-04T10:33:20Z</time>
      </trkpt>
      <trkpt lat="46.310441661626101" lon="11.819034582003951">
        <ele>1882.8800000000001</ele>
        <time>2018-03-04T10:33:31Z</time>
      </trkpt>
      <trkpt lat="46.310362536460161" lon="11.819041790440679">
        <ele>1883.8399999999999</ele>
        <time>2018-03-04T10:33:42Z</time>
      </trkpt>
      <trkpt lat="46.310289027169347" lon="11.819102978333831">
        <ele>1884.8</ele>
        <time>2018-03-04T10:33:52Z</time>
      </trkpt>
      <trkpt lat="46.310205794870853" lon="11.819164920598269">
        <ele>1886.24</ele>
        <time>2018-03-04T10:34:02Z</time>
      </trkpt>
      <trkpt lat="46.310106385499239" lon="11.819181349128485">
        <ele>1886.24</ele>
        <time>2018-03-04T10:34:12Z</time>
      </trkpt>
      <trkpt lat="46.310006389394403" lon="11.819171290844679">
        <ele>1887.6900000000001</ele>
        <time>2018-03-04T10:34:22Z</time>
      </trkpt>
      <trkpt lat="46.309924414381385" lon="11.819151509553194">
        <ele>1888.1700000000001</ele>
        <time>2018-03-04T10:34:32Z</time>
      </trkpt>
      <trkpt lat="46.309898179024458" lon="11.819150419905782">
        <ele>1888.6500000000001</ele>
        <time>2018-03-04T10:34:35Z</time>
      </trkpt>
      <trkpt lat="46.309808911755681" lon="11.819153521209955">
        <ele>1889.6099999999999</ele>
        <time>2018-03-04T10:34:45Z</time>
      </trkpt>
      <trkpt lat="46.309748310595751" lon="11.81917523033917">
        <ele>1890.0899999999999</ele>
        <time>2018-03-04T10:34:53Z</time>
      </trkpt>
      <trkpt lat="46.309655690565705" lon="11.819186797365546">
        <ele>1891.05</ele>
        <time>2018-03-04T10:35:03Z</time>
      </trkpt>
      <trkpt lat="46.309569189324975" lon="11.819217894226313">
        <ele>1891.53</ele>
        <time>2018-03-04T10:35:13Z</time>
      </trkpt>
      <trkpt lat="46.309554018080235" lon="11.819225940853357">
        <ele>1892.49</ele>
        <time>2018-03-04T10:35:15Z</time>
      </trkpt>
      <trkpt lat="46.309492914006114" lon="11.819231724366546">
        <ele>1892.97</ele>
        <time>2018-03-04T10:35:22Z</time>
      </trkpt>
      <trkpt lat="46.309402389451861" lon="11.819247230887413">
        <ele>1893.9300000000001</ele>
        <time>2018-03-04T10:35:32Z</time>
      </trkpt>
      <trkpt lat="46.309288060292602" lon="11.819238429889083">
        <ele>1895.3800000000001</ele>
        <time>2018-03-04T10:35:45Z</time>
      </trkpt>
      <trkpt lat="46.309194434434175" lon="11.819230047985911">
        <ele>1895.3800000000001</ele>
        <time>2018-03-04T10:35:56Z</time>
      </trkpt>
      <trkpt lat="46.309179766103625" lon="11.819231305271387">
        <ele>1895.3800000000001</ele>
        <time>2018-03-04T10:35:58Z</time>
      </trkpt>
      <trkpt lat="46.309081446379423" lon="11.819231389090419">
        <ele>1896.8199999999999</ele>
        <time>2018-03-04T10:36:08Z</time>
      </trkpt>
      <trkpt lat="46.309071388095617" lon="11.819228790700436">
        <ele>1897.3</ele>
        <time>2018-03-04T10:36:09Z</time>
      </trkpt>
      <trkpt lat="46.308959992602468" lon="11.81921579875052">
        <ele>1898.26</ele>
        <time>2018-03-04T10:36:21Z</time>
      </trkpt>
      <trkpt lat="46.308881789445877" lon="11.81919819675386">
        <ele>1899.22</ele>
        <time>2018-03-04T10:36:30Z</time>
      </trkpt>
      <trkpt lat="46.308788415044546" lon="11.81919920258224">
        <ele>1900.1800000000001</ele>
        <time>2018-03-04T10:36:41Z</time>
      </trkpt>
      <trkpt lat="46.308708367869258" lon="11.819174978882074">
        <ele>1901.1400000000001</ele>
        <time>2018-03-04T10:36:51Z</time>
      </trkpt>
      <trkpt lat="46.308665871620178" lon="11.819173889234662">
        <ele>1901.6300000000001</ele>
        <time>2018-03-04T10:36:56Z</time>
      </trkpt>
      <trkpt lat="46.308564618229866" lon="11.819165926426649">
        <ele>1902.5899999999999</ele>
        <time>2018-03-04T10:37:07Z</time>
      </trkpt>
      <trkpt lat="46.308543663471937" lon="11.819168273359537">
        <ele>1902.5899999999999</ele>
        <time>2018-03-04T10:37:09Z</time>
      </trkpt>
      <trkpt lat="46.308464873582125" lon="11.819173889234662">
        <ele>1903.0699999999999</ele>
        <time>2018-03-04T10:37:19Z</time>
      </trkpt>
      <trkpt lat="46.308359680697322" lon="11.819169530645013">
        <ele>1904.51</ele>
        <time>2018-03-04T10:37:31Z</time>
      </trkpt>
      <trkpt lat="46.308271419256926" lon="11.81915863417089">
        <ele>1905.47</ele>
        <time>2018-03-04T10:37:41Z</time>
      </trkpt>
      <trkpt lat="46.30820662714541" lon="11.819117479026318">
        <ele>1906.4300000000001</ele>
        <time>2018-03-04T10:37:51Z</time>
      </trkpt>
      <trkpt lat="46.308147618547082" lon="11.819067187607288">
        <ele>1907.3900000000001</ele>
        <time>2018-03-04T10:38:00Z</time>
      </trkpt>
      <trkpt lat="46.308102859184146" lon="11.81904723867774">
        <ele>1907.8699999999999</ele>
        <time>2018-03-04T10:38:11Z</time>
      </trkpt>
      <trkpt lat="46.308058938011527" lon="11.819030055776238">
        <ele>1908.3499999999999</ele>
        <time>2018-03-04T10:38:20Z</time>
      </trkpt>
      <trkpt lat="46.308008814230561" lon="11.818986302241683">
        <ele>1909.3199999999999</ele>
        <time>2018-03-04T10:38:28Z</time>
      </trkpt>
      <trkpt lat="46.307951733469963" lon="11.818921091035008">
        <ele>1908.8299999999999</ele>
        <time>2018-03-04T10:38:37Z</time>
      </trkpt>
      <trkpt lat="46.30788903683424" lon="11.818865099921823">
        <ele>1909.3199999999999</ele>
        <time>2018-03-04T10:38:46Z</time>
      </trkpt>
      <trkpt lat="46.307844864204526" lon="11.818823274224997">
        <ele>1912.6800000000001</ele>
        <time>2018-03-04T10:38:54Z</time>
      </trkpt>
      <trkpt lat="46.30778250284493" lon="11.818800223991275">
        <ele>1911.72</ele>
        <time>2018-03-04T10:39:04Z</time>
      </trkpt>
      <trkpt lat="46.307776551693678" lon="11.818793602287769">
        <ele>1912.6800000000001</ele>
        <time>2018-03-04T10:39:13Z</time>
      </trkpt>
      <trkpt lat="46.307780155912042" lon="11.818801900371909">
        <ele>1912.2</ele>
        <time>2018-03-04T10:39:29Z</time>
      </trkpt>
      <trkpt lat="46.307699689641595" lon="11.818785220384598">
        <ele>1912.6800000000001</ele>
        <time>2018-03-04T10:39:38Z</time>
      </trkpt>
      <trkpt lat="46.307634226977825" lon="11.81875261478126">
        <ele>1913.1600000000001</ele>
        <time>2018-03-04T10:39:48Z</time>
      </trkpt>
      <trkpt lat="46.307571949437261" lon="11.818746663630009">
        <ele>1916.04</ele>
        <time>2018-03-04T10:39:59Z</time>
      </trkpt>
      <trkpt lat="46.307506151497364" lon="11.818770552054048">
        <ele>1916.53</ele>
        <time>2018-03-04T10:40:09Z</time>
      </trkpt>
      <trkpt lat="46.307446639984846" lon="11.818795362487435">
        <ele>1917.49</ele>
        <time>2018-03-04T10:40:18Z</time>
      </trkpt>
      <trkpt lat="46.307391654700041" lon="11.818818664178252">
        <ele>1918.45</ele>
        <time>2018-03-04T10:40:28Z</time>
      </trkpt>
      <trkpt lat="46.307336585596204" lon="11.818834086880088">
        <ele>1919.8900000000001</ele>
        <time>2018-03-04T10:40:37Z</time>
      </trkpt>
      <trkpt lat="46.307284869253635" lon="11.818794272840023">
        <ele>1920.8499999999999</ele>
        <time>2018-03-04T10:40:48Z</time>
      </trkpt>
      <trkpt lat="46.307273050770164" lon="11.818770971149206">
        <ele>1921.3299999999999</ele>
        <time>2018-03-04T10:40:50Z</time>
      </trkpt>
      <trkpt lat="46.307239858433604" lon="11.81870031170547">
        <ele>1921.3299999999999</ele>
        <time>2018-03-04T10:40:59Z</time>
      </trkpt>
      <trkpt lat="46.307246731594205" lon="11.818682374432683">
        <ele>1920.8499999999999</ele>
        <time>2018-03-04T10:41:08Z</time>
      </trkpt>
      <trkpt lat="46.307250168174505" lon="11.818672651425004">
        <ele>1921.8099999999999</ele>
        <time>2018-03-04T10:41:31Z</time>
      </trkpt>
      <trkpt lat="46.307221921160817" lon="11.818641303107142">
        <ele>1919.8900000000001</ele>
        <time>2018-03-04T10:41:38Z</time>
      </trkpt>
      <trkpt lat="46.307161990553141" lon="11.818524794653058">
        <ele>1919.8900000000001</ele>
        <time>2018-03-04T10:41:48Z</time>
      </trkpt>
      <trkpt lat="46.307137347757816" lon="11.818470563739538">
        <ele>1919.4100000000001</ele>
        <time>2018-03-04T10:41:53Z</time>
      </trkpt>
      <trkpt lat="46.307095689699054" lon="11.818400574848056">
        <ele>1919.4100000000001</ele>
        <time>2018-03-04T10:41:59Z</time>
      </trkpt>
      <trkpt lat="46.307040955871344" lon="11.818278199061751">
        <ele>1919.8900000000001</ele>
        <time>2018-03-04T10:42:09Z</time>
      </trkpt>
      <trkpt lat="46.307056797668338" lon="11.8182532209903">
        <ele>1920.3699999999999</ele>
        <time>2018-03-04T10:42:18Z</time>
      </trkpt>
      <trkpt lat="46.3070138823241" lon="11.818197062239051">
        <ele>1920.8499999999999</ele>
        <time>2018-03-04T10:42:29Z</time>
      </trkpt>
      <trkpt lat="46.306992927566171" lon="11.818172419443727">
        <ele>1921.3299999999999</ele>
        <time>2018-03-04T10:42:37Z</time>
      </trkpt>
      <trkpt lat="46.307010529562831" lon="11.818207623437047">
        <ele>1920.8499999999999</ele>
        <time>2018-03-04T10:42:47Z</time>
      </trkpt>
      <trkpt lat="46.306982114911079" lon="11.818124307319522">
        <ele>1921.3299999999999</ele>
        <time>2018-03-04T10:42:55Z</time>
      </trkpt>
      <trkpt lat="46.30694062449038" lon="11.81804409250617">
        <ele>1921.8099999999999</ele>
        <time>2018-03-04T10:43:04Z</time>
      </trkpt>
      <trkpt lat="46.306881448253989" lon="11.8179751932621">
        <ele>1921.8099999999999</ele>
        <time>2018-03-04T10:43:14Z</time>
      </trkpt>
      <trkpt lat="46.306801065802574" lon="11.817909814417362">
        <ele>1922.77</ele>
        <time>2018-03-04T10:43:24Z</time>
      </trkpt>
      <trkpt lat="46.306785643100739" lon="11.817900091409683">
        <ele>1923.25</ele>
        <time>2018-03-04T10:43:26Z</time>
      </trkpt>
      <trkpt lat="46.306695370003581" lon="11.817816188558936">
        <ele>1923.74</ele>
        <time>2018-03-04T10:43:37Z</time>
      </trkpt>
      <trkpt lat="46.306657735258341" lon="11.817782241851091">
        <ele>1923.74</ele>
        <time>2018-03-04T10:43:41Z</time>
      </trkpt>
      <trkpt lat="46.306575508788228" lon="11.81769959628582">
        <ele>1924.22</ele>
        <time>2018-03-04T10:43:51Z</time>
      </trkpt>
      <trkpt lat="46.306467382237315" lon="11.817607311531901">
        <ele>1924.22</ele>
        <time>2018-03-04T10:44:03Z</time>
      </trkpt>
      <trkpt lat="46.306367134675384" lon="11.817520055919886">
        <ele>1925.1800000000001</ele>
        <time>2018-03-04T10:44:14Z</time>
      </trkpt>
      <trkpt lat="46.306358417496085" lon="11.817514356225729">
        <ele>1925.1800000000001</ele>
        <time>2018-03-04T10:44:15Z</time>
      </trkpt>
      <trkpt lat="46.306244255974889" lon="11.817428860813379">
        <ele>1926.1400000000001</ele>
        <time>2018-03-04T10:44:28Z</time>
      </trkpt>
      <trkpt lat="46.306145684793591" lon="11.81737219914794">
        <ele>1926.1400000000001</ele>
        <time>2018-03-04T10:44:40Z</time>
      </trkpt>
      <trkpt lat="46.306141996756196" lon="11.817367170006037">
        <ele>1926.1400000000001</ele>
        <time>2018-03-04T10:44:48Z</time>
      </trkpt>
      <trkpt lat="46.306152222678065" lon="11.817364571616054">
        <ele>1925.6600000000001</ele>
        <time>2018-03-04T10:45:09Z</time>
      </trkpt>
      <trkpt lat="46.306150211021304" lon="11.817352836951613">
        <ele>1926.6199999999999</ele>
        <time>2018-03-04T10:45:20Z</time>
      </trkpt>
      <trkpt lat="46.306123975664377" lon="11.817342862486839">
        <ele>1927.0999999999999</ele>
        <time>2018-03-04T10:45:30Z</time>
      </trkpt>
      <trkpt lat="46.306117102503777" lon="11.817326517775655">
        <ele>1926.6199999999999</ele>
        <time>2018-03-04T10:45:45Z</time>
      </trkpt>
      <trkpt lat="46.306052142754197" lon="11.817296929657459">
        <ele>1927.0999999999999</ele>
        <time>2018-03-04T10:45:53Z</time>
      </trkpt>
      <trkpt lat="46.306002689525485" lon="11.817278573289514">
        <ele>1926.1400000000001</ele>
        <time>2018-03-04T10:46:06Z</time>
      </trkpt>
      <trkpt lat="46.305927000939846" lon="11.817232305184007">
        <ele>1927.5799999999999</ele>
        <time>2018-03-04T10:46:14Z</time>
      </trkpt>
      <trkpt lat="46.305839158594608" lon="11.817173128947616">
        <ele>1929.02</ele>
        <time>2018-03-04T10:46:26Z</time>
      </trkpt>
      <trkpt lat="46.305748634040356" lon="11.81710104458034">
        <ele>1929.5</ele>
        <time>2018-03-04T10:46:36Z</time>
      </trkpt>
      <trkpt lat="46.305650314316154" lon="11.817033570259809">
        <ele>1929.98</ele>
        <time>2018-03-04T10:46:47Z</time>
      </trkpt>
      <trkpt lat="46.305597340688109" lon="11.816992918029428">
        <ele>1928.54</ele>
        <time>2018-03-04T10:46:53Z</time>
      </trkpt>
      <trkpt lat="46.30554461851716" lon="11.816984117031097">
        <ele>1929.98</ele>
        <time>2018-03-04T10:47:03Z</time>
      </trkpt>
      <trkpt lat="46.305551156401634" lon="11.816985458135605">
        <ele>1928.54</ele>
        <time>2018-03-04T10:47:07Z</time>
      </trkpt>
      <trkpt lat="46.305562136694789" lon="11.816968275234103">
        <ele>1926.6199999999999</ele>
        <time>2018-03-04T10:47:15Z</time>
      </trkpt>
      <trkpt lat="46.305565405637026" lon="11.816961569711566">
        <ele>1927.0999999999999</ele>
        <time>2018-03-04T10:47:33Z</time>
      </trkpt>
      <trkpt lat="46.305534560233355" lon="11.816947404295206">
        <ele>1927.5799999999999</ele>
        <time>2018-03-04T10:47:53Z</time>
      </trkpt>
      <trkpt lat="46.305550569668412" lon="11.816961318254471">
        <ele>1928.0599999999999</ele>
        <time>2018-03-04T10:48:19Z</time>
      </trkpt>
      <trkpt lat="46.305554928258061" lon="11.81695201434195">
        <ele>1929.5</ele>
        <time>2018-03-04T10:48:35Z</time>
      </trkpt>
      <trkpt lat="46.30555534735322" lon="11.816965257748961">
        <ele>1929.5</ele>
        <time>2018-03-04T10:48:45Z</time>
      </trkpt>
      <trkpt lat="46.305551324039698" lon="11.816968861967325">
        <ele>1929.98</ele>
        <time>2018-03-04T10:48:55Z</time>
      </trkpt>
      <trkpt lat="46.305540008470416" lon="11.816958636045456">
        <ele>1929.98</ele>
        <time>2018-03-04T10:49:06Z</time>
      </trkpt>
      <trkpt lat="46.305509582161903" lon="11.816941536962986">
        <ele>1930.95</ele>
        <time>2018-03-04T10:49:17Z</time>
      </trkpt>
      <trkpt lat="46.305484436452389" lon="11.816938519477844">
        <ele>1930.46</ele>
        <time>2018-03-04T10:49:30Z</time>
      </trkpt>
      <trkpt lat="46.305417884141207" lon="11.816902058199048">
        <ele>1930.46</ele>
        <time>2018-03-04T10:49:39Z</time>
      </trkpt>
      <trkpt lat="46.305344458669424" lon="11.816831985488534">
        <ele>1929.5</ele>
        <time>2018-03-04T10:49:49Z</time>
      </trkpt>
      <trkpt lat="46.305258041247725" lon="11.816792925819755">
        <ele>1929.5</ele>
        <time>2018-03-04T10:49:59Z</time>
      </trkpt>
      <trkpt lat="46.305156201124191" lon="11.816733833402395">
        <ele>1929.02</ele>
        <time>2018-03-04T10:50:11Z</time>
      </trkpt>
      <trkpt lat="46.305023599416018" lon="11.816644482314587">
        <ele>1928.54</ele>
        <time>2018-03-04T10:50:26Z</time>
      </trkpt>
      <trkpt lat="46.304916646331549" lon="11.816610200330615">
        <ele>1929.98</ele>
        <time>2018-03-04T10:50:39Z</time>
      </trkpt>
      <trkpt lat="46.304885381832719" lon="11.816594358533621">
        <ele>1930.46</ele>
        <time>2018-03-04T10:50:43Z</time>
      </trkpt>
      <trkpt lat="46.304863253608346" lon="11.816592011600733">
        <ele>1930.95</ele>
        <time>2018-03-04T10:50:45Z</time>
      </trkpt>
      <trkpt lat="46.304748589172959" lon="11.816529147326946">
        <ele>1931.4300000000001</ele>
        <time>2018-03-04T10:50:57Z</time>
      </trkpt>
      <trkpt lat="46.304663931950927" lon="11.816491596400738">
        <ele>1931.9100000000001</ele>
        <time>2018-03-04T10:51:07Z</time>
      </trkpt>
      <trkpt lat="46.304564354941249" lon="11.81644968688488">
        <ele>1933.3499999999999</ele>
        <time>2018-03-04T10:51:18Z</time>
      </trkpt>
      <trkpt lat="46.304479110985994" lon="11.816401155665517">
        <ele>1933.3499999999999</ele>
        <time>2018-03-04T10:51:28Z</time>
      </trkpt>
      <trkpt lat="46.304432088509202" lon="11.816380117088556">
        <ele>1934.3099999999999</ele>
        <time>2018-03-04T10:51:33Z</time>
      </trkpt>
      <trkpt lat="46.304333936423063" lon="11.816322868689895">
        <ele>1933.8299999999999</ele>
        <time>2018-03-04T10:51:44Z</time>
      </trkpt>
      <trkpt lat="46.304223462939262" lon="11.816266039386392">
        <ele>1934.79</ele>
        <time>2018-03-04T10:51:55Z</time>
      </trkpt>
      <trkpt lat="46.304133106023073" lon="11.816218430176377">
        <ele>1934.3099999999999</ele>
        <time>2018-03-04T10:52:05Z</time>
      </trkpt>
      <trkpt lat="46.304085412994027" lon="11.816196721047163">
        <ele>1935.27</ele>
        <time>2018-03-04T10:52:10Z</time>
      </trkpt>
      <trkpt lat="46.304059764370322" lon="11.816184734925628">
        <ele>1935.27</ele>
        <time>2018-03-04T10:52:13Z</time>
      </trkpt>
      <trkpt lat="46.303948033601046" lon="11.816130504012108">
        <ele>1935.75</ele>
        <time>2018-03-04T10:52:25Z</time>
      </trkpt>
      <trkpt lat="46.303860526531935" lon="11.81608909741044">
        <ele>1935.75</ele>
        <time>2018-03-04T10:52:35Z</time>
      </trkpt>
      <trkpt lat="46.30379531532526" lon="11.816050792112947">
        <ele>1936.71</ele>
        <time>2018-03-04T10:52:43Z</time>
      </trkpt>
      <trkpt lat="46.30369171500206" lon="11.816011229529977">
        <ele>1937.6700000000001</ele>
        <time>2018-03-04T10:52:54Z</time>
      </trkpt>
      <trkpt lat="46.303603872656822" lon="11.815963787958026">
        <ele>1937.6700000000001</ele>
        <time>2018-03-04T10:53:03Z</time>
      </trkpt>
      <trkpt lat="46.303491219878197" lon="11.815918022766709">
        <ele>1938.6400000000001</ele>
        <time>2018-03-04T10:53:14Z</time>
      </trkpt>
      <trkpt lat="46.303415028378367" lon="11.815872341394424">
        <ele>1939.5999999999999</ele>
        <time>2018-03-04T10:53:23Z</time>
      </trkpt>
      <trkpt lat="46.303368005901575" lon="11.815849877893925">
        <ele>1940.0799999999999</ele>
        <time>2018-03-04T10:53:29Z</time>
      </trkpt>
      <trkpt lat="46.303285025060177" lon="11.815821630880237">
        <ele>1940.5599999999999</ele>
        <time>2018-03-04T10:53:38Z</time>
      </trkpt>
      <trkpt lat="46.303189136087894" lon="11.815776955336332">
        <ele>1941.52</ele>
        <time>2018-03-04T10:53:49Z</time>
      </trkpt>
      <trkpt lat="46.303123086690903" lon="11.81574166752398">
        <ele>1942</ele>
        <time>2018-03-04T10:53:58Z</time>
      </trkpt>
      <trkpt lat="46.30303499288857" lon="11.815683580935001">
        <ele>1942.48</ele>
        <time>2018-03-04T10:54:08Z</time>
      </trkpt>
      <trkpt lat="46.303001213818789" lon="11.815665895119309">
        <ele>1943.9200000000001</ele>
        <time>2018-03-04T10:54:17Z</time>
      </trkpt>
      <trkpt lat="46.302921585738659" lon="11.81563270278275">
        <ele>1944.8800000000001</ele>
        <time>2018-03-04T10:54:26Z</time>
      </trkpt>
      <trkpt lat="46.302843634039164" lon="11.815604120492935">
        <ele>1945.8499999999999</ele>
        <time>2018-03-04T10:54:36Z</time>
      </trkpt>
      <trkpt lat="46.302783619612455" lon="11.815584842115641">
        <ele>1945.8499999999999</ele>
        <time>2018-03-04T10:54:43Z</time>
      </trkpt>
      <trkpt lat="46.30271153524518" lon="11.815560702234507">
        <ele>1947.77</ele>
        <time>2018-03-04T10:54:51Z</time>
      </trkpt>
      <trkpt lat="46.302687646821141" lon="11.81554913520813">
        <ele>1948.25</ele>
        <time>2018-03-04T10:54:54Z</time>
      </trkpt>
      <trkpt lat="46.302614137530327" lon="11.815519211813807">
        <ele>1948.25</ele>
        <time>2018-03-04T10:55:04Z</time>
      </trkpt>
      <trkpt lat="46.302584297955036" lon="11.815510410815477">
        <ele>1947.77</ele>
        <time>2018-03-04T10:55:08Z</time>
      </trkpt>
      <trkpt lat="46.302503412589431" lon="11.815494820475578">
        <ele>1949.21</ele>
        <time>2018-03-04T10:55:19Z</time>
      </trkpt>
      <trkpt lat="46.302442559972405" lon="11.815457101911306">
        <ele>1949.6900000000001</ele>
        <time>2018-03-04T10:55:29Z</time>
      </trkpt>
      <trkpt lat="46.302373828366399" lon="11.815401613712311">
        <ele>1950.1700000000001</ele>
        <time>2018-03-04T10:55:38Z</time>
      </trkpt>
      <trkpt lat="46.302295541390777" lon="11.815328942611814">
        <ele>1951.6099999999999</ele>
        <time>2018-03-04T10:55:48Z</time>
      </trkpt>
      <trkpt lat="46.302233682945371" lon="11.815271023660898">
        <ele>1952.0899999999999</ele>
        <time>2018-03-04T10:55:57Z</time>
      </trkpt>
      <trkpt lat="46.30218087695539" lon="11.815199945122004">
        <ele>1951.6099999999999</ele>
        <time>2018-03-04T10:56:06Z</time>
      </trkpt>
      <trkpt lat="46.302154222503304" lon="11.815160633996129">
        <ele>1952.5699999999999</ele>
        <time>2018-03-04T10:56:11Z</time>
      </trkpt>
      <trkpt lat="46.30210317671299" lon="11.815058877691627">
        <ele>1953.0599999999999</ele>
        <time>2018-03-04T10:56:21Z</time>
      </trkpt>
      <trkpt lat="46.302049700170755" lon="11.814946560189128">
        <ele>1955.46</ele>
        <time>2018-03-04T10:56:32Z</time>
      </trkpt>
      <trkpt lat="46.302027488127351" lon="11.814897023141384">
        <ele>1955.46</ele>
        <time>2018-03-04T10:56:37Z</time>
      </trkpt>
      <trkpt lat="46.301998319104314" lon="11.814819322898984">
        <ele>1955.9400000000001</ele>
        <time>2018-03-04T10:56:43Z</time>
      </trkpt>
      <trkpt lat="46.301987925544381" lon="11.814798284322023">
        <ele>1955.46</ele>
        <time>2018-03-04T10:56:45Z</time>
      </trkpt>
      <trkpt lat="46.301953895017505" lon="11.81470574811101">
        <ele>1955.46</ele>
        <time>2018-03-04T10:56:52Z</time>
      </trkpt>
      <trkpt lat="46.301938304677606" lon="11.814643638208508">
        <ele>1955.46</ele>
        <time>2018-03-04T10:56:57Z</time>
      </trkpt>
      <trkpt lat="46.301904777064919" lon="11.814515730366111">
        <ele>1956.9000000000001</ele>
        <time>2018-03-04T10:57:08Z</time>
      </trkpt>
      <trkpt lat="46.301872758194804" lon="11.814430737867951">
        <ele>1958.8199999999999</ele>
        <time>2018-03-04T10:57:17Z</time>
      </trkpt>
      <trkpt lat="46.301844762638211" lon="11.814380111172795">
        <ele>1958.8199999999999</ele>
        <time>2018-03-04T10:57:23Z</time>
      </trkpt>
      <trkpt lat="46.301783574745059" lon="11.814301740378141">
        <ele>1960.27</ele>
        <time>2018-03-04T10:57:33Z</time>
      </trkpt>
      <trkpt lat="46.301736887544394" lon="11.814262680709362">
        <ele>1961.23</ele>
        <time>2018-03-04T10:57:41Z</time>
      </trkpt>
      <trkpt lat="46.301711406558752" lon="11.814277684316039">
        <ele>1961.71</ele>
        <time>2018-03-04T10:57:50Z</time>
      </trkpt>
      <trkpt lat="46.301725236698985" lon="11.814277349039912">
        <ele>1961.23</ele>
        <time>2018-03-04T10:58:10Z</time>
      </trkpt>
      <trkpt lat="46.301722470670938" lon="11.814228314906359">
        <ele>1961.71</ele>
        <time>2018-03-04T10:58:22Z</time>
      </trkpt>
      <trkpt lat="46.30171618424356" lon="11.814195206388831">
        <ele>1961.71</ele>
        <time>2018-03-04T10:58:37Z</time>
      </trkpt>
      <trkpt lat="46.30171861499548" lon="11.814205767586827">
        <ele>1961.71</ele>
        <time>2018-03-04T10:58:52Z</time>
      </trkpt>
      <trkpt lat="46.30171568132937" lon="11.814210461452603">
        <ele>1962.1900000000001</ele>
        <time>2018-03-04T10:59:03Z</time>
      </trkpt>
      <trkpt lat="46.301707550883293" lon="11.81420149281621">
        <ele>1962.1900000000001</ele>
        <time>2018-03-04T10:59:16Z</time>
      </trkpt>
      <trkpt lat="46.30167854949832" lon="11.814153045415878">
        <ele>1961.71</ele>
        <time>2018-03-04T10:59:27Z</time>
      </trkpt>
      <trkpt lat="46.301658013835549" lon="11.814102083444595">
        <ele>1964.5899999999999</ele>
        <time>2018-03-04T10:59:37Z</time>
      </trkpt>
      <trkpt lat="46.301646111533046" lon="11.81406419724226">
        <ele>1965.55</ele>
        <time>2018-03-04T10:59:45Z</time>
      </trkpt>
      <trkpt lat="46.301626078784466" lon="11.814010553061962">
        <ele>1967.48</ele>
        <time>2018-03-04T10:59:54Z</time>
      </trkpt>
      <trkpt lat="46.301601519808173" lon="11.813973002135754">
        <ele>1969.4000000000001</ele>
        <time>2018-03-04T11:00:03Z</time>
      </trkpt>
      <trkpt lat="46.301565980538726" lon="11.813970236107707">
        <ele>1970.3599999999999</ele>
        <time>2018-03-04T11:00:15Z</time>
      </trkpt>
      <trkpt lat="46.301550725474954" lon="11.813978450372815">
        <ele>1970.8399999999999</ele>
        <time>2018-03-04T11:00:33Z</time>
      </trkpt>
      <trkpt lat="46.301557850092649" lon="11.813924638554454">
        <ele>1970.8399999999999</ele>
        <time>2018-03-04T11:00:50Z</time>
      </trkpt>
      <trkpt lat="46.301532704383135" lon="11.813909132033587">
        <ele>1972.28</ele>
        <time>2018-03-04T11:00:58Z</time>
      </trkpt>
      <trkpt lat="46.301479311659932" lon="11.81390100158751">
        <ele>1973.72</ele>
        <time>2018-03-04T11:01:08Z</time>
      </trkpt>
      <trkpt lat="46.301446370780468" lon="11.813864875584841">
        <ele>1975.6500000000001</ele>
        <time>2018-03-04T11:01:19Z</time>
      </trkpt>
      <trkpt lat="46.301398845389485" lon="11.813844172284007">
        <ele>1977.0899999999999</ele>
        <time>2018-03-04T11:01:30Z</time>
      </trkpt>
      <trkpt lat="46.301361881196499" lon="11.813814835622907">
        <ele>1979.01</ele>
        <time>2018-03-04T11:01:41Z</time>
      </trkpt>
      <trkpt lat="46.30133455619216" lon="11.813798239454627">
        <ele>1980.45</ele>
        <time>2018-03-04T11:01:52Z</time>
      </trkpt>
      <trkpt lat="46.301335729658604" lon="11.813811399042606">
        <ele>1980.9300000000001</ele>
        <time>2018-03-04T11:02:04Z</time>
      </trkpt>
      <trkpt lat="46.301334220916033" lon="11.813777536153793">
        <ele>1979.97</ele>
        <time>2018-03-04T11:02:16Z</time>
      </trkpt>
      <trkpt lat="46.301329610869288" lon="11.813743840903044">
        <ele>1981.4100000000001</ele>
        <time>2018-03-04T11:02:27Z</time>
      </trkpt>
      <trkpt lat="46.301278313621879" lon="11.81374853476882">
        <ele>1982.8599999999999</ele>
        <time>2018-03-04T11:02:38Z</time>
      </trkpt>
      <trkpt lat="46.301231207326055" lon="11.813708553090692">
        <ele>1983.8199999999999</ele>
        <time>2018-03-04T11:02:48Z</time>
      </trkpt>
      <trkpt lat="46.30117429420352" lon="11.81366547010839">
        <ele>1984.3</ele>
        <time>2018-03-04T11:03:02Z</time>
      </trkpt>
      <trkpt lat="46.301125679165125" lon="11.813638564199209">
        <ele>1985.74</ele>
        <time>2018-03-04T11:03:11Z</time>
      </trkpt>
      <trkpt lat="46.301079411059618" lon="11.813606210052967">
        <ele>1986.7</ele>
        <time>2018-03-04T11:03:21Z</time>
      </trkpt>
      <trkpt lat="46.301030209288001" lon="11.813590954989195">
        <ele>1987.1800000000001</ele>
        <time>2018-03-04T11:03:30Z</time>
      </trkpt>
      <trkpt lat="46.300998441874981" lon="11.813562540337443">
        <ele>1988.1400000000001</ele>
        <time>2018-03-04T11:03:40Z</time>
      </trkpt>
      <trkpt lat="46.300950832664967" lon="11.813522139564157">
        <ele>1989.0999999999999</ele>
        <time>2018-03-04T11:03:52Z</time>
      </trkpt>
      <trkpt lat="46.300915712490678" lon="11.81347637437284">
        <ele>1989.5899999999999</ele>
        <time>2018-03-04T11:04:02Z</time>
      </trkpt>
      <trkpt lat="46.30087916739285" lon="11.813423652201891">
        <ele>1990.55</ele>
        <time>2018-03-04T11:04:11Z</time>
      </trkpt>
      <trkpt lat="46.300844885408878" lon="11.81336154229939">
        <ele>1990.0699999999999</ele>
        <time>2018-03-04T11:04:22Z</time>
      </trkpt>
      <trkpt lat="46.300819655880332" lon="11.81330974213779">
        <ele>1991.99</ele>
        <time>2018-03-04T11:04:32Z</time>
      </trkpt>
      <trkpt lat="46.300814626738429" lon="11.813318375498056">
        <ele>1991.99</ele>
        <time>2018-03-04T11:04:33Z</time>
      </trkpt>
      <trkpt lat="46.300801802426577" lon="11.81330437771976">
        <ele>1990.55</ele>
        <time>2018-03-04T11:04:40Z</time>
      </trkpt>
      <trkpt lat="46.300786882638931" lon="11.813223240897059">
        <ele>1991.51</ele>
        <time>2018-03-04T11:04:49Z</time>
      </trkpt>
      <trkpt lat="46.300744470208883" lon="11.813202369958162">
        <ele>1992.95</ele>
        <time>2018-03-04T11:04:57Z</time>
      </trkpt>
      <trkpt lat="46.30069543607533" lon="11.813180074095726">
        <ele>1993.4300000000001</ele>
        <time>2018-03-04T11:05:07Z</time>
      </trkpt>
      <trkpt lat="46.300648078322411" lon="11.813148809596896">
        <ele>1994.8699999999999</ele>
        <time>2018-03-04T11:05:16Z</time>
      </trkpt>
      <trkpt lat="46.300614718347788" lon="11.813123915344477">
        <ele>1995.8299999999999</ele>
        <time>2018-03-04T11:05:25Z</time>
      </trkpt>
      <trkpt lat="46.300579681992531" lon="11.81310161948204">
        <ele>1996.8</ele>
        <time>2018-03-04T11:05:35Z</time>
      </trkpt>
      <trkpt lat="46.300535509362817" lon="11.813074210658669">
        <ele>1998.72</ele>
        <time>2018-03-04T11:05:46Z</time>
      </trkpt>
      <trkpt lat="46.300510363653302" lon="11.813073623925447">
        <ele>1999.2</ele>
        <time>2018-03-04T11:05:52Z</time>
      </trkpt>
      <trkpt lat="46.3004604075104" lon="11.813044119626284">
        <ele>2001.1199999999999</ele>
        <time>2018-03-04T11:06:01Z</time>
      </trkpt>
      <trkpt lat="46.300408691167831" lon="11.813021823763847">
        <ele>2002.5599999999999</ele>
        <time>2018-03-04T11:06:12Z</time>
      </trkpt>
      <trkpt lat="46.300360495224595" lon="11.812999695539474">
        <ele>2004.01</ele>
        <time>2018-03-04T11:06:22Z</time>
      </trkpt>
      <trkpt lat="46.300304755568504" lon="11.812964826822281">
        <ele>2004.97</ele>
        <time>2018-03-04T11:06:31Z</time>
      </trkpt>
      <trkpt lat="46.300253625959158" lon="11.812950745224953">
        <ele>2005.9300000000001</ele>
        <time>2018-03-04T11:06:42Z</time>
      </trkpt>
      <trkpt lat="46.300229234620929" lon="11.812924006953835">
        <ele>2006.4100000000001</ele>
        <time>2018-03-04T11:06:51Z</time>
      </trkpt>
      <trkpt lat="46.300201155245304" lon="11.81289978325367">
        <ele>2006.8900000000001</ele>
        <time>2018-03-04T11:07:01Z</time>
      </trkpt>
      <trkpt lat="46.300206184387207" lon="11.812841109931469">
        <ele>2007.8499999999999</ele>
        <time>2018-03-04T11:07:10Z</time>
      </trkpt>
      <trkpt lat="46.300177937373519" lon="11.812727032229304">
        <ele>2008.3299999999999</ele>
        <time>2018-03-04T11:07:21Z</time>
      </trkpt>
      <trkpt lat="46.300133597105742" lon="11.812676740810275">
        <ele>2009.29</ele>
        <time>2018-03-04T11:07:30Z</time>
      </trkpt>
      <trkpt lat="46.300070397555828" lon="11.812624773010612">
        <ele>2010.73</ele>
        <time>2018-03-04T11:07:40Z</time>
      </trkpt>
      <trkpt lat="46.300005605444312" lon="11.812642207369208">
        <ele>2011.22</ele>
        <time>2018-03-04T11:07:49Z</time>
      </trkpt>
      <trkpt lat="46.299959337338805" lon="11.812695348635316">
        <ele>2011.7</ele>
        <time>2018-03-04T11:07:58Z</time>
      </trkpt>
      <trkpt lat="46.29994785413146" lon="11.812740862369537">
        <ele>2011.7</ele>
        <time>2018-03-04T11:08:06Z</time>
      </trkpt>
      <trkpt lat="46.299924552440643" lon="11.812828034162521">
        <ele>2013.6199999999999</ele>
        <time>2018-03-04T11:08:14Z</time>
      </trkpt>
      <trkpt lat="46.299854060634971" lon="11.812891233712435">
        <ele>2013.6199999999999</ele>
        <time>2018-03-04T11:08:23Z</time>
      </trkpt>
      <trkpt lat="46.299831178039312" lon="11.81289492174983">
        <ele>2014.0999999999999</ele>
        <time>2018-03-04T11:08:30Z</time>
      </trkpt>
      <trkpt lat="46.299777114763856" lon="11.812918810173869">
        <ele>2015.54</ele>
        <time>2018-03-04T11:08:39Z</time>
      </trkpt>
      <trkpt lat="46.299710478633642" lon="11.812932807952166">
        <ele>2016.02</ele>
        <time>2018-03-04T11:08:50Z</time>
      </trkpt>
      <trkpt lat="46.29965515807271" lon="11.812935657799244">
        <ele>2016.98</ele>
        <time>2018-03-04T11:09:02Z</time>
      </trkpt>
      <trkpt lat="46.299607213586569" lon="11.812923504039645">
        <ele>2018.4300000000001</ele>
        <time>2018-03-04T11:09:12Z</time>
      </trkpt>
      <trkpt lat="46.299552815034986" lon="11.812886539846659">
        <ele>2020.8299999999999</ele>
        <time>2018-03-04T11:09:24Z</time>
      </trkpt>
      <trkpt lat="46.299519538879395" lon="11.812856364995241">
        <ele>2023.23</ele>
        <time>2018-03-04T11:09:32Z</time>
      </trkpt>
      <trkpt lat="46.29950319416821" lon="11.812804397195578">
        <ele>2025.1500000000001</ele>
        <time>2018-03-04T11:09:41Z</time>
      </trkpt>
      <trkpt lat="46.299488944932818" lon="11.812782688066363">
        <ele>2025.6400000000001</ele>
        <time>2018-03-04T11:09:52Z</time>
      </trkpt>
      <trkpt lat="46.299489615485072" lon="11.812767768278718">
        <ele>2026.5999999999999</ele>
        <time>2018-03-04T11:10:00Z</time>
      </trkpt>
      <trkpt lat="46.299506546929479" lon="11.812771540135145">
        <ele>2027.0799999999999</ele>
        <time>2018-03-04T11:10:09Z</time>
      </trkpt>
      <trkpt lat="46.299495650455356" lon="11.812767600640655">
        <ele>2026.1199999999999</ele>
        <time>2018-03-04T11:10:21Z</time>
      </trkpt>
      <trkpt lat="46.299488274380565" lon="11.812746478244662">
        <ele>2026.5999999999999</ele>
        <time>2018-03-04T11:10:37Z</time>
      </trkpt>
      <trkpt lat="46.299513084813952" lon="11.812728624790907">
        <ele>2026.5999999999999</ele>
        <time>2018-03-04T11:10:48Z</time>
      </trkpt>
      <trkpt lat="46.299539403989911" lon="11.812633238732815">
        <ele>2027.0799999999999</ele>
        <time>2018-03-04T11:10:57Z</time>
      </trkpt>
      <trkpt lat="46.299521215260029" lon="11.812655283138156">
        <ele>2028.04</ele>
        <time>2018-03-04T11:11:11Z</time>
      </trkpt>
      <trkpt lat="46.29956672899425" lon="11.812568614259362">
        <ele>2028.04</ele>
        <time>2018-03-04T11:11:22Z</time>
      </trkpt>
      <trkpt lat="46.299608554691076" lon="11.812502983957529">
        <ele>2029.48</ele>
        <time>2018-03-04T11:11:30Z</time>
      </trkpt>
      <trkpt lat="46.299625318497419" lon="11.812459481880069">
        <ele>2029.48</ele>
        <time>2018-03-04T11:11:34Z</time>
      </trkpt>
      <trkpt lat="46.299681225791574" lon="11.812395108863711">
        <ele>2029.96</ele>
        <time>2018-03-04T11:11:43Z</time>
      </trkpt>
      <trkpt lat="46.299782814458013" lon="11.812326377257705">
        <ele>2030.9200000000001</ele>
        <time>2018-03-04T11:11:56Z</time>
      </trkpt>
      <trkpt lat="46.299843918532133" lon="11.812285054475069">
        <ele>2031.4000000000001</ele>
        <time>2018-03-04T11:12:05Z</time>
      </trkpt>
      <trkpt lat="46.299914075061679" lon="11.812221016734838">
        <ele>2031.8800000000001</ele>
        <time>2018-03-04T11:12:15Z</time>
      </trkpt>
      <trkpt lat="46.299965707585216" lon="11.812182124704123">
        <ele>2032.3599999999999</ele>
        <time>2018-03-04T11:12:24Z</time>
      </trkpt>
      <trkpt lat="46.299972161650658" lon="11.812173658981919">
        <ele>2032.8399999999999</ele>
        <time>2018-03-04T11:12:30Z</time>
      </trkpt>
      <trkpt lat="46.300058662891388" lon="11.812066622078419">
        <ele>2033.8099999999999</ele>
        <time>2018-03-04T11:12:41Z</time>
      </trkpt>
      <trkpt lat="46.300067380070686" lon="11.812057150527835">
        <ele>2033.8099999999999</ele>
        <time>2018-03-04T11:12:42Z</time>
      </trkpt>
      <trkpt lat="46.300101410597563" lon="11.812012726441026">
        <ele>2034.29</ele>
        <time>2018-03-04T11:12:48Z</time>
      </trkpt>
      <trkpt lat="46.300123371183872" lon="11.811996465548873">
        <ele>2034.77</ele>
        <time>2018-03-04T11:12:51Z</time>
      </trkpt>
      <trkpt lat="46.300183217972517" lon="11.811938462778926">
        <ele>2034.29</ele>
        <time>2018-03-04T11:13:00Z</time>
      </trkpt>
      <trkpt lat="46.300223534926772" lon="11.81192010641098">
        <ele>2036.21</ele>
        <time>2018-03-04T11:13:04Z</time>
      </trkpt>
      <trkpt lat="46.30026645027101" lon="11.811898732557893">
        <ele>2036.6900000000001</ele>
        <time>2018-03-04T11:13:09Z</time>
      </trkpt>
      <trkpt lat="46.30029771476984" lon="11.811895212158561">
        <ele>2038.1300000000001</ele>
        <time>2018-03-04T11:13:13Z</time>
      </trkpt>
      <trkpt lat="46.300332583487034" lon="11.811885992065072">
        <ele>2036.21</ele>
        <time>2018-03-04T11:13:17Z</time>
      </trkpt>
      <trkpt lat="46.300410283729434" lon="11.811880962923169">
        <ele>2037.1700000000001</ele>
        <time>2018-03-04T11:13:26Z</time>
      </trkpt>
      <trkpt lat="46.300507094711065" lon="11.811864199116826">
        <ele>2038.1300000000001</ele>
        <time>2018-03-04T11:13:36Z</time>
      </trkpt>
      <trkpt lat="46.300602816045284" lon="11.811824049800634">
        <ele>2039.0899999999999</ele>
        <time>2018-03-04T11:13:46Z</time>
      </trkpt>
      <trkpt lat="46.300689904019237" lon="11.811788594350219">
        <ele>2039.5699999999999</ele>
        <time>2018-03-04T11:13:56Z</time>
      </trkpt>
      <trkpt lat="46.300727454945445" lon="11.811759509146214">
        <ele>2039.5699999999999</ele>
        <time>2018-03-04T11:14:01Z</time>
      </trkpt>
      <trkpt lat="46.300768442451954" lon="11.811655322089791">
        <ele>2039.5699999999999</ele>
        <time>2018-03-04T11:14:13Z</time>
      </trkpt>
      <trkpt lat="46.300740782171488" lon="11.811566557735205">
        <ele>2041.98</ele>
        <time>2018-03-04T11:14:23Z</time>
      </trkpt>
      <trkpt lat="46.300680432468653" lon="11.811524396762252">
        <ele>2042.9400000000001</ele>
        <time>2018-03-04T11:14:33Z</time>
      </trkpt>
      <trkpt lat="46.300582867115736" lon="11.811471339315176">
        <ele>2042.46</ele>
        <time>2018-03-04T11:14:46Z</time>
      </trkpt>
      <trkpt lat="46.300557721406221" lon="11.81145541369915">
        <ele>2043.9000000000001</ele>
        <time>2018-03-04T11:14:51Z</time>
      </trkpt>
      <trkpt lat="46.300483960658312" lon="11.811442421749234">
        <ele>2045.3399999999999</ele>
        <time>2018-03-04T11:15:01Z</time>
      </trkpt>
      <trkpt lat="46.300402907654643" lon="11.811427669599652">
        <ele>2045.3399999999999</ele>
        <time>2018-03-04T11:15:10Z</time>
      </trkpt>
      <trkpt lat="46.300345910713077" lon="11.811402942985296">
        <ele>2045.3399999999999</ele>
        <time>2018-03-04T11:15:17Z</time>
      </trkpt>
      <trkpt lat="46.300270557403564" lon="11.811365811154246">
        <ele>2047.75</ele>
        <time>2018-03-04T11:15:29Z</time>
      </trkpt>
      <trkpt lat="46.300276089459658" lon="11.811375450342894">
        <ele>2047.26</ele>
        <time>2018-03-04T11:15:44Z</time>
      </trkpt>
      <trkpt lat="46.300215907394886" lon="11.811360530555248">
        <ele>2047.26</ele>
        <time>2018-03-04T11:15:56Z</time>
      </trkpt>
      <trkpt lat="46.300125969573855" lon="11.811326751485467">
        <ele>2047.75</ele>
        <time>2018-03-04T11:16:07Z</time>
      </trkpt>
      <trkpt lat="46.300049694254994" lon="11.81130344979465">
        <ele>2047.75</ele>
        <time>2018-03-04T11:16:17Z</time>
      </trkpt>
      <trkpt lat="46.299965623766184" lon="11.81127998046577">
        <ele>2049.1900000000001</ele>
        <time>2018-03-04T11:16:28Z</time>
      </trkpt>
      <trkpt lat="46.299903010949492" lon="11.811277884989977">
        <ele>2050.6300000000001</ele>
        <time>2018-03-04T11:16:37Z</time>
      </trkpt>
      <trkpt lat="46.299831345677376" lon="11.811308898031712">
        <ele>2051.5900000000001</ele>
        <time>2018-03-04T11:16:47Z</time>
      </trkpt>
      <trkpt lat="46.299743670970201" lon="11.811368074268103">
        <ele>2053.0300000000002</ele>
        <time>2018-03-04T11:16:57Z</time>
      </trkpt>
      <trkpt lat="46.299734869971871" lon="11.81137477979064">
        <ele>2052.5500000000002</ele>
        <time>2018-03-04T11:16:58Z</time>
      </trkpt>
      <trkpt lat="46.299661695957184" lon="11.811437141150236">
        <ele>2053.9899999999998</ele>
        <time>2018-03-04T11:17:08Z</time>
      </trkpt>
      <trkpt lat="46.299631269648671" lon="11.811456754803658">
        <ele>2055.4400000000001</ele>
        <time>2018-03-04T11:17:17Z</time>
      </trkpt>
      <trkpt lat="46.299621630460024" lon="11.811452647671103">
        <ele>2054.96</ele>
        <time>2018-03-04T11:17:29Z</time>
      </trkpt>
      <trkpt lat="46.299625737592578" lon="11.811411743983626">
        <ele>2053.5100000000002</ele>
        <time>2018-03-04T11:17:40Z</time>
      </trkpt>
      <trkpt lat="46.299628335982561" lon="11.811405876651406">
        <ele>2054.96</ele>
        <time>2018-03-04T11:17:50Z</time>
      </trkpt>
      <trkpt lat="46.299636801704764" lon="11.811377378180623">
        <ele>2054.4699999999998</ele>
        <time>2018-03-04T11:17:57Z</time>
      </trkpt>
      <trkpt lat="46.299639316275716" lon="11.811380311846733">
        <ele>2053.5100000000002</ele>
        <time>2018-03-04T11:17:59Z</time>
      </trkpt>
      <trkpt lat="46.299609895795584" lon="11.811422137543559">
        <ele>2053.0300000000002</ele>
        <time>2018-03-04T11:18:11Z</time>
      </trkpt>
      <trkpt lat="46.299614338204265" lon="11.811423981562257">
        <ele>2055.9200000000001</ele>
        <time>2018-03-04T11:18:13Z</time>
      </trkpt>
      <trkpt lat="46.299633448943496" lon="11.811411576345563">
        <ele>2056.4000000000001</ele>
        <time>2018-03-04T11:18:19Z</time>
      </trkpt>
      <trkpt lat="46.299658343195915" lon="11.811426328495145">
        <ele>2055.9200000000001</ele>
        <time>2018-03-04T11:18:33Z</time>
      </trkpt>
      <trkpt lat="46.299654571339488" lon="11.811413336545229">
        <ele>2054.4699999999998</ele>
        <time>2018-03-04T11:18:46Z</time>
      </trkpt>
      <trkpt lat="46.299628084525466" lon="11.8113958183676">
        <ele>2054.4699999999998</ele>
        <time>2018-03-04T11:18:59Z</time>
      </trkpt>
      <trkpt lat="46.299625318497419" lon="11.811391543596983">
        <ele>2053.0300000000002</ele>
        <time>2018-03-04T11:19:15Z</time>
      </trkpt>
      <trkpt lat="46.299635544419289" lon="11.811377042904496">
        <ele>2054.4699999999998</ele>
        <time>2018-03-04T11:19:31Z</time>
      </trkpt>
      <trkpt lat="46.299640825018287" lon="11.811361871659756">
        <ele>2054.4699999999998</ele>
        <time>2018-03-04T11:19:44Z</time>
      </trkpt>
      <trkpt lat="46.299638142809272" lon="11.811396153643727">
        <ele>2054.4699999999998</ele>
        <time>2018-03-04T11:19:56Z</time>
      </trkpt>
      <trkpt lat="46.299644513055682" lon="11.811423478648067">
        <ele>2053.5100000000002</ele>
        <time>2018-03-04T11:20:01Z</time>
      </trkpt>
      <trkpt lat="46.299650045111775" lon="11.8114114087075">
        <ele>2053.5100000000002</ele>
        <time>2018-03-04T11:20:14Z</time>
      </trkpt>
      <trkpt lat="46.299621043726802" lon="11.811434626579285">
        <ele>2054.4699999999998</ele>
        <time>2018-03-04T11:20:32Z</time>
      </trkpt>
      <trkpt lat="46.299601262435317" lon="11.811438398435712">
        <ele>2054.4699999999998</ele>
        <time>2018-03-04T11:20:40Z</time>
      </trkpt>
      <trkpt lat="46.299607632681727" lon="11.81146907620132">
        <ele>2054.96</ele>
        <time>2018-03-04T11:20:55Z</time>
      </trkpt>
      <trkpt lat="46.299624061211944" lon="11.811377294361591">
        <ele>2054.4699999999998</ele>
        <time>2018-03-04T11:21:12Z</time>
      </trkpt>
      <trkpt lat="46.299610650166869" lon="11.81138014420867">
        <ele>2055.9200000000001</ele>
        <time>2018-03-04T11:21:17Z</time>
      </trkpt>
      <trkpt lat="46.299606710672379" lon="11.811379389837384">
        <ele>2053.9899999999998</ele>
        <time>2018-03-04T11:21:20Z</time>
      </trkpt>
      <trkpt lat="46.29963562823832" lon="11.81141585111618">
        <ele>2056.8800000000001</ele>
        <time>2018-03-04T11:21:28Z</time>
      </trkpt>
      <trkpt lat="46.299634454771876" lon="11.81141727603972">
        <ele>2055.9200000000001</ele>
        <time>2018-03-04T11:21:43Z</time>
      </trkpt>
      <trkpt lat="46.299613164737821" lon="11.811426663771272">
        <ele>2055.9200000000001</ele>
        <time>2018-03-04T11:22:00Z</time>
      </trkpt>
      <trkpt lat="46.299607884138823" lon="11.811435548588634">
        <ele>2055.9200000000001</ele>
        <time>2018-03-04T11:22:14Z</time>
      </trkpt>
      <trkpt lat="46.299619283527136" lon="11.811411660164595">
        <ele>2054.96</ele>
        <time>2018-03-04T11:22:27Z</time>
      </trkpt>
      <trkpt lat="46.299594976007938" lon="11.811395734548569">
        <ele>2054.96</ele>
        <time>2018-03-04T11:22:47Z</time>
      </trkpt>
      <trkpt lat="46.299586510285735" lon="11.811408726498485">
        <ele>2057.3600000000001</ele>
        <time>2018-03-04T11:22:58Z</time>
      </trkpt>
      <trkpt lat="46.299606878310442" lon="11.811396069824696">
        <ele>2055.9200000000001</ele>
        <time>2018-03-04T11:23:01Z</time>
      </trkpt>
      <trkpt lat="46.299599753692746" lon="11.811416940763593">
        <ele>2055.4400000000001</ele>
        <time>2018-03-04T11:23:14Z</time>
      </trkpt>
      <trkpt lat="46.299649206921458" lon="11.811428675428033">
        <ele>2054.4699999999998</ele>
        <time>2018-03-04T11:23:32Z</time>
      </trkpt>
      <trkpt lat="46.299658343195915" lon="11.811420125886798">
        <ele>2056.8800000000001</ele>
        <time>2018-03-04T11:23:35Z</time>
      </trkpt>
      <trkpt lat="46.299665216356516" lon="11.811388693749905">
        <ele>2054.96</ele>
        <time>2018-03-04T11:23:52Z</time>
      </trkpt>
      <trkpt lat="46.299682566896081" lon="11.811413001269102">
        <ele>2055.9200000000001</ele>
        <time>2018-03-04T11:23:59Z</time>
      </trkpt>
      <trkpt lat="46.299682399258018" lon="11.81141585111618">
        <ele>2055.9200000000001</ele>
        <time>2018-03-04T11:24:12Z</time>
      </trkpt>
      <trkpt lat="46.299684327095747" lon="11.811438649892807">
        <ele>2056.4000000000001</ele>
        <time>2018-03-04T11:24:32Z</time>
      </trkpt>
      <trkpt lat="46.299698241055012" lon="11.811416856944561">
        <ele>2056.8800000000001</ele>
        <time>2018-03-04T11:24:59Z</time>
      </trkpt>
      <trkpt lat="46.299683153629303" lon="11.81142607703805">
        <ele>2057.3600000000001</ele>
        <time>2018-03-04T11:25:12Z</time>
      </trkpt>
      <trkpt lat="46.299672592431307" lon="11.811415012925863">
        <ele>2057.3600000000001</ele>
        <time>2018-03-04T11:25:31Z</time>
      </trkpt>
      <trkpt lat="46.299642249941826" lon="11.81140311062336">
        <ele>2054.4699999999998</ele>
        <time>2018-03-04T11:25:53Z</time>
      </trkpt>
      <trkpt lat="46.29967225715518" lon="11.811375115066767">
        <ele>2056.4000000000001</ele>
        <time>2018-03-04T11:26:07Z</time>
      </trkpt>
      <trkpt lat="46.299819024279714" lon="11.811277382075787">
        <ele>2053.9899999999998</ele>
        <time>2018-03-04T11:26:20Z</time>
      </trkpt>
      <trkpt lat="46.299987165257335" lon="11.811271766200662">
        <ele>2051.5900000000001</ele>
        <time>2018-03-04T11:26:32Z</time>
      </trkpt>
      <trkpt lat="46.300147259607911" lon="11.811303785070777">
        <ele>2049.6700000000001</ele>
        <time>2018-03-04T11:26:44Z</time>
      </trkpt>
      <trkpt lat="46.300317160785198" lon="11.811380563303828">
        <ele>2049.1900000000001</ele>
        <time>2018-03-04T11:26:57Z</time>
      </trkpt>
      <trkpt lat="46.300512794405222" lon="11.811454324051738">
        <ele>2047.26</ele>
        <time>2018-03-04T11:27:11Z</time>
      </trkpt>
      <trkpt lat="46.300712116062641" lon="11.811534203588963">
        <ele>2045.3399999999999</ele>
        <time>2018-03-04T11:27:25Z</time>
      </trkpt>
      <trkpt lat="46.300757881253958" lon="11.811565803363919">
        <ele>2044.8599999999999</ele>
        <time>2018-03-04T11:27:28Z</time>
      </trkpt>
      <trkpt lat="46.300787637010217" lon="11.811697985976934">
        <ele>2043.4200000000001</ele>
        <time>2018-03-04T11:27:34Z</time>
      </trkpt>
      <trkpt lat="46.300709098577499" lon="11.811792869120836">
        <ele>2042.46</ele>
        <time>2018-03-04T11:27:40Z</time>
      </trkpt>
      <trkpt lat="46.30055570974946" lon="11.811864953488111">
        <ele>2040.54</ele>
        <time>2018-03-04T11:27:52Z</time>
      </trkpt>
      <trkpt lat="46.300364602357149" lon="11.811914155259728">
        <ele>2038.1300000000001</ele>
        <time>2018-03-04T11:28:06Z</time>
      </trkpt>
      <trkpt lat="46.300191767513752" lon="11.81195623241365">
        <ele>2037.1700000000001</ele>
        <time>2018-03-04T11:28:20Z</time>
      </trkpt>
      <trkpt lat="46.300046257674694" lon="11.812125546857715">
        <ele>2034.77</ele>
        <time>2018-03-04T11:28:34Z</time>
      </trkpt>
      <trkpt lat="46.299891611561179" lon="11.812258902937174">
        <ele>2032.8399999999999</ele>
        <time>2018-03-04T11:28:47Z</time>
      </trkpt>
      <trkpt lat="46.299745934084058" lon="11.812412459403276">
        <ele>2031.4000000000001</ele>
        <time>2018-03-04T11:29:02Z</time>
      </trkpt>
      <trkpt lat="46.299636550247669" lon="11.812571296468377">
        <ele>2029.96</ele>
        <time>2018-03-04T11:29:14Z</time>
      </trkpt>
      <trkpt lat="46.299533285200596" lon="11.812700461596251">
        <ele>2028.52</ele>
        <time>2018-03-04T11:29:23Z</time>
      </trkpt>
      <trkpt lat="46.299502104520798" lon="11.812788639217615">
        <ele>2027.5599999999999</ele>
        <time>2018-03-04T11:29:28Z</time>
      </trkpt>
      <trkpt lat="46.299435133114457" lon="11.813007742166519">
        <ele>2026.5999999999999</ele>
        <time>2018-03-04T11:29:40Z</time>
      </trkpt>
      <trkpt lat="46.299562202766538" lon="11.81323891505599">
        <ele>2023.23</ele>
        <time>2018-03-04T11:29:55Z</time>
      </trkpt>
      <trkpt lat="46.299703102558851" lon="11.813427088782191">
        <ele>2021.3099999999999</ele>
        <time>2018-03-04T11:30:09Z</time>
      </trkpt>
      <trkpt lat="46.299839308485389" lon="11.813411833718419">
        <ele>2019.3900000000001</ele>
        <time>2018-03-04T11:30:20Z</time>
      </trkpt>
      <trkpt lat="46.299863867461681" lon="11.813368080183864">
        <ele>2018.4300000000001</ele>
        <time>2018-03-04T11:30:23Z</time>
      </trkpt>
      <trkpt lat="46.299884486943483" lon="11.813205303624272">
        <ele>2016.02</ele>
        <time>2018-03-04T11:30:32Z</time>
      </trkpt>
      <trkpt lat="46.299885492771864" lon="11.813060631975532">
        <ele>2014.0999999999999</ele>
        <time>2018-03-04T11:30:39Z</time>
      </trkpt>
      <trkpt lat="46.299912733957171" lon="11.812829123809934">
        <ele>2013.6199999999999</ele>
        <time>2018-03-04T11:30:50Z</time>
      </trkpt>
      <trkpt lat="46.299926228821278" lon="11.81281378492713">
        <ele>2013.6199999999999</ele>
        <time>2018-03-04T11:30:51Z</time>
      </trkpt>
      <trkpt lat="46.300075678154826" lon="11.812851587310433">
        <ele>2011.22</ele>
        <time>2018-03-04T11:31:01Z</time>
      </trkpt>
      <trkpt lat="46.300136195495725" lon="11.812883941456676">
        <ele>2009.77</ele>
        <time>2018-03-04T11:31:05Z</time>
      </trkpt>
      <trkpt lat="46.300172572955489" lon="11.812894335016608">
        <ele>2008.8099999999999</ele>
        <time>2018-03-04T11:31:07Z</time>
      </trkpt>
      <trkpt lat="46.30030257627368" lon="11.812939597293735">
        <ele>2006.8900000000001</ele>
        <time>2018-03-04T11:31:17Z</time>
      </trkpt>
      <trkpt lat="46.300430819392204" lon="11.812998773530126">
        <ele>2004.49</ele>
        <time>2018-03-04T11:31:28Z</time>
      </trkpt>
      <trkpt lat="46.300466023385525" lon="11.813000785186887">
        <ele>2004.01</ele>
        <time>2018-03-04T11:31:31Z</time>
      </trkpt>
      <trkpt lat="46.300518997013569" lon="11.813039928674698">
        <ele>2002.0799999999999</ele>
        <time>2018-03-04T11:31:35Z</time>
      </trkpt>
      <trkpt lat="46.30062460899353" lon="11.813124921172857">
        <ele>1998.24</ele>
        <time>2018-03-04T11:31:42Z</time>
      </trkpt>
      <trkpt lat="46.300651347264647" lon="11.813140008598566">
        <ele>1997.28</ele>
        <time>2018-03-04T11:31:44Z</time>
      </trkpt>
      <trkpt lat="46.300703901797533" lon="11.813165992498398">
        <ele>1996.3199999999999</ele>
        <time>2018-03-04T11:31:48Z</time>
      </trkpt>
      <trkpt lat="46.300817979499698" lon="11.813272526487708">
        <ele>1993.9100000000001</ele>
        <time>2018-03-04T11:31:59Z</time>
      </trkpt>
      <trkpt lat="46.300847148522735" lon="11.813332038000226">
        <ele>1992.95</ele>
        <time>2018-03-04T11:32:03Z</time>
      </trkpt>
      <trkpt lat="46.300906073302031" lon="11.813430190086365">
        <ele>1991.99</ele>
        <time>2018-03-04T11:32:11Z</time>
      </trkpt>
      <trkpt lat="46.300928452983499" lon="11.81346514262259">
        <ele>1991.51</ele>
        <time>2018-03-04T11:32:14Z</time>
      </trkpt>
      <trkpt lat="46.301016882061958" lon="11.81357410736382">
        <ele>1989.0999999999999</ele>
        <time>2018-03-04T11:32:25Z</time>
      </trkpt>
      <trkpt lat="46.30103456787765" lon="11.813580309972167">
        <ele>1988.6199999999999</ele>
        <time>2018-03-04T11:32:27Z</time>
      </trkpt>
      <trkpt lat="46.301121152937412" lon="11.813630685210228">
        <ele>1986.7</ele>
        <time>2018-03-04T11:32:36Z</time>
      </trkpt>
      <trkpt lat="46.301207235082984" lon="11.813675947487354">
        <ele>1985.26</ele>
        <time>2018-03-04T11:32:45Z</time>
      </trkpt>
      <trkpt lat="46.301246797665954" lon="11.813736045733094">
        <ele>1983.8199999999999</ele>
        <time>2018-03-04T11:32:51Z</time>
      </trkpt>
      <trkpt lat="46.301322905346751" lon="11.813771836459637">
        <ele>1982.3800000000001</ele>
        <time>2018-03-04T11:33:01Z</time>
      </trkpt>
      <trkpt lat="46.301343021914363" lon="11.813783990219235">
        <ele>1981.4100000000001</ele>
        <time>2018-03-04T11:33:04Z</time>
      </trkpt>
      <trkpt lat="46.301348218694329" lon="11.813814081251621">
        <ele>1981.9000000000001</ele>
        <time>2018-03-04T11:33:16Z</time>
      </trkpt>
      <trkpt lat="46.301342854276299" lon="11.813827827572823">
        <ele>1981.9000000000001</ele>
        <time>2018-03-04T11:33:24Z</time>
      </trkpt>
      <trkpt lat="46.301391385495663" lon="11.813845010474324">
        <ele>1979.97</ele>
        <time>2018-03-04T11:33:30Z</time>
      </trkpt>
      <trkpt lat="46.30148702301085" lon="11.813894212245941">
        <ele>1976.1300000000001</ele>
        <time>2018-03-04T11:33:42Z</time>
      </trkpt>
      <trkpt lat="46.301515437662601" lon="11.813902677968144">
        <ele>1974.6900000000001</ele>
        <time>2018-03-04T11:33:46Z</time>
      </trkpt>
      <trkpt lat="46.301599172875285" lon="11.813961267471313">
        <ele>1971.8</ele>
        <time>2018-03-04T11:33:56Z</time>
      </trkpt>
      <trkpt lat="46.301653319969773" lon="11.814058246091008">
        <ele>1968.4400000000001</ele>
        <time>2018-03-04T11:34:06Z</time>
      </trkpt>
      <trkpt lat="46.301657594740391" lon="11.814068891108036">
        <ele>1967.96</ele>
        <time>2018-03-04T11:34:07Z</time>
      </trkpt>
      <trkpt lat="46.30169908516109" lon="11.814146088436246">
        <ele>1965.0699999999999</ele>
        <time>2018-03-04T11:34:16Z</time>
      </trkpt>
      <trkpt lat="46.301719537004828" lon="11.814177185297012">
        <ele>1964.5899999999999</ele>
        <time>2018-03-04T11:34:19Z</time>
      </trkpt>
      <trkpt lat="46.301728589460254" lon="11.814241642132401">
        <ele>1962.6700000000001</ele>
        <time>2018-03-04T11:34:23Z</time>
      </trkpt>
      <trkpt lat="46.301850881427526" lon="11.814347421750426">
        <ele>1961.71</ele>
        <time>2018-03-04T11:34:35Z</time>
      </trkpt>
      <trkpt lat="46.301938137039542" lon="11.814540540799499">
        <ele>1959.78</ele>
        <time>2018-03-04T11:34:47Z</time>
      </trkpt>
      <trkpt lat="46.30201474763453" lon="11.814814964309335">
        <ele>1958.3399999999999</ele>
        <time>2018-03-04T11:35:02Z</time>
      </trkpt>
      <trkpt lat="46.302100159227848" lon="11.81499358266592">
        <ele>1957.3800000000001</ele>
        <time>2018-03-04T11:35:13Z</time>
      </trkpt>
      <trkpt lat="46.302168304100633" lon="11.81514018215239">
        <ele>1956.4200000000001</ele>
        <time>2018-03-04T11:35:24Z</time>
      </trkpt>
      <trkpt lat="46.302299983799458" lon="11.815315280109644">
        <ele>1953.54</ele>
        <time>2018-03-04T11:35:39Z</time>
      </trkpt>
      <trkpt lat="46.302462257444859" lon="11.815433548763394">
        <ele>1952.0899999999999</ele>
        <time>2018-03-04T11:35:53Z</time>
      </trkpt>
      <trkpt lat="46.302537694573402" lon="11.815472776070237">
        <ele>1951.1300000000001</ele>
        <time>2018-03-04T11:35:59Z</time>
      </trkpt>
      <trkpt lat="46.302661411464214" lon="11.815521894022822">
        <ele>1951.1300000000001</ele>
        <time>2018-03-04T11:36:08Z</time>
      </trkpt>
      <trkpt lat="46.302829552441835" lon="11.815575119107962">
        <ele>1947.77</ele>
        <time>2018-03-04T11:36:21Z</time>
      </trkpt>
      <trkpt lat="46.303017055615783" lon="11.815667068585753">
        <ele>1945.3599999999999</ele>
        <time>2018-03-04T11:36:36Z</time>
      </trkpt>
      <trkpt lat="46.303159883245826" lon="11.815731693059206">
        <ele>1943.9200000000001</ele>
        <time>2018-03-04T11:36:48Z</time>
      </trkpt>
      <trkpt lat="46.303332215175033" lon="11.815812075510621">
        <ele>1942</ele>
        <time>2018-03-04T11:37:01Z</time>
      </trkpt>
      <trkpt lat="46.30348208360374" lon="11.81587602943182">
        <ele>1940.5599999999999</ele>
        <time>2018-03-04T11:37:14Z</time>
      </trkpt>
      <trkpt lat="46.303556431084871" lon="11.815914083272219">
        <ele>1940.0799999999999</ele>
        <time>2018-03-04T11:37:24Z</time>
      </trkpt>
      <trkpt lat="46.303660869598389" lon="11.815960519015789">
        <ele>1939.5999999999999</ele>
        <time>2018-03-04T11:37:35Z</time>
      </trkpt>
      <trkpt lat="46.303722895681858" lon="11.815990693867207">
        <ele>1938.1600000000001</ele>
        <time>2018-03-04T11:37:45Z</time>
      </trkpt>
      <trkpt lat="46.303827501833439" lon="11.816022964194417">
        <ele>1938.1600000000001</ele>
        <time>2018-03-04T11:37:59Z</time>
      </trkpt>
      <trkpt lat="46.304030762985349" lon="11.816136622801423">
        <ele>1937.6700000000001</ele>
        <time>2018-03-04T11:38:15Z</time>
      </trkpt>
      <trkpt lat="46.30412514321506" lon="11.816167132928967">
        <ele>1937.1900000000001</ele>
        <time>2018-03-04T11:38:27Z</time>
      </trkpt>
      <trkpt lat="46.304244417697191" lon="11.816237205639482">
        <ele>1936.71</ele>
        <time>2018-03-04T11:38:38Z</time>
      </trkpt>
      <trkpt lat="46.304374504834414" lon="11.816305434331298">
        <ele>1936.23</ele>
        <time>2018-03-04T11:38:50Z</time>
      </trkpt>
      <trkpt lat="46.304526384919882" lon="11.816368047147989">
        <ele>1935.75</ele>
        <time>2018-03-04T11:39:02Z</time>
      </trkpt>
      <trkpt lat="46.304662171751261" lon="11.816456476226449">
        <ele>1934.79</ele>
        <time>2018-03-04T11:39:15Z</time>
      </trkpt>
      <trkpt lat="46.304810363799334" lon="11.816527973860502">
        <ele>1933.8299999999999</ele>
        <time>2018-03-04T11:39:28Z</time>
      </trkpt>
      <trkpt lat="46.304952437058091" lon="11.816586898639798">
        <ele>1933.8299999999999</ele>
        <time>2018-03-04T11:39:40Z</time>
      </trkpt>
      <trkpt lat="46.30510238930583" lon="11.81666711345315">
        <ele>1932.8699999999999</ele>
        <time>2018-03-04T11:39:53Z</time>
      </trkpt>
      <trkpt lat="46.305221077054739" lon="11.816728971898556">
        <ele>1932.3900000000001</ele>
        <time>2018-03-04T11:40:05Z</time>
      </trkpt>
      <trkpt lat="46.305347057059407" lon="11.816812204197049">
        <ele>1932.3900000000001</ele>
        <time>2018-03-04T11:40:18Z</time>
      </trkpt>
      <trkpt lat="46.305467840284109" lon="11.816883282735944">
        <ele>1932.3900000000001</ele>
        <time>2018-03-04T11:40:30Z</time>
      </trkpt>
      <trkpt lat="46.305629527196288" lon="11.816987469792366">
        <ele>1932.8699999999999</ele>
        <time>2018-03-04T11:40:44Z</time>
      </trkpt>
      <trkpt lat="46.305749388411641" lon="11.81708000600338">
        <ele>1931.4300000000001</ele>
        <time>2018-03-04T11:40:56Z</time>
      </trkpt>
      <trkpt lat="46.305847875773907" lon="11.817144379019737">
        <ele>1930.95</ele>
        <time>2018-03-04T11:41:08Z</time>
      </trkpt>
      <trkpt lat="46.305807810276747" lon="11.817153431475163">
        <ele>1930.46</ele>
        <time>2018-03-04T11:41:17Z</time>
      </trkpt>
      <trkpt lat="46.305815856903791" lon="11.817131135612726">
        <ele>1929.5</ele>
        <time>2018-03-04T11:41:26Z</time>
      </trkpt>
      <trkpt lat="46.305850390344858" lon="11.817135661840439">
        <ele>1928.54</ele>
        <time>2018-03-04T11:41:43Z</time>
      </trkpt>
      <trkpt lat="46.305865561589599" lon="11.817130632698536">
        <ele>1929.02</ele>
        <time>2018-03-04T11:41:57Z</time>
      </trkpt>
      <trkpt lat="46.305869417265058" lon="11.817146390676498">
        <ele>1929.02</ele>
        <time>2018-03-04T11:42:17Z</time>
      </trkpt>
      <trkpt lat="46.305857095867395" lon="11.817145384848118">
        <ele>1929.5</ele>
        <time>2018-03-04T11:42:38Z</time>
      </trkpt>
      <trkpt lat="46.305846786126494" lon="11.81714840233326">
        <ele>1929.5</ele>
        <time>2018-03-04T11:42:53Z</time>
      </trkpt>
      <trkpt lat="46.305884420871735" lon="11.81713817641139">
        <ele>1929.5</ele>
        <time>2018-03-04T11:43:12Z</time>
      </trkpt>
      <trkpt lat="46.305896574631333" lon="11.817139433696866">
        <ele>1929.5</ele>
        <time>2018-03-04T11:43:31Z</time>
      </trkpt>
      <trkpt lat="46.305866064503789" lon="11.817156616598368">
        <ele>1928.54</ele>
        <time>2018-03-04T11:43:49Z</time>
      </trkpt>
      <trkpt lat="46.305873524397612" lon="11.817164830863476">
        <ele>1928.54</ele>
        <time>2018-03-04T11:44:03Z</time>
      </trkpt>
      <trkpt lat="46.30587151274085" lon="11.817150833085179">
        <ele>1929.02</ele>
        <time>2018-03-04T11:44:20Z</time>
      </trkpt>
      <trkpt lat="46.305870339274406" lon="11.817139098420739">
        <ele>1928.54</ele>
        <time>2018-03-04T11:44:49Z</time>
      </trkpt>
      <trkpt lat="46.305876290425658" lon="11.81712401099503">
        <ele>1929.02</ele>
        <time>2018-03-04T11:44:59Z</time>
      </trkpt>
      <trkpt lat="46.305837398394942" lon="11.817136416211724">
        <ele>1930.46</ele>
        <time>2018-03-04T11:45:07Z</time>
      </trkpt>
      <trkpt lat="46.305837733671069" lon="11.817135829478502">
        <ele>1930.46</ele>
        <time>2018-03-04T11:45:08Z</time>
      </trkpt>
      <trkpt lat="46.305828848853707" lon="11.817131973803043">
        <ele>1929.02</ele>
        <time>2018-03-04T11:45:16Z</time>
      </trkpt>
      <trkpt lat="46.305817533284426" lon="11.81712007150054">
        <ele>1929.02</ele>
        <time>2018-03-04T11:45:34Z</time>
      </trkpt>
      <trkpt lat="46.305827926844358" lon="11.817132979631424">
        <ele>1929.98</ele>
        <time>2018-03-04T11:45:54Z</time>
      </trkpt>
      <trkpt lat="46.305830609053373" lon="11.817130884155631">
        <ele>1930.46</ele>
        <time>2018-03-04T11:45:55Z</time>
      </trkpt>
      <trkpt lat="46.305832704529166" lon="11.817137254402041">
        <ele>1930.46</ele>
        <time>2018-03-04T11:46:03Z</time>
      </trkpt>
      <trkpt lat="46.305868998169899" lon="11.817165082320571">
        <ele>1930.95</ele>
        <time>2018-03-04T11:46:15Z</time>
      </trkpt>
      <trkpt lat="46.305888779461384" lon="11.817173548042774">
        <ele>1930.46</ele>
        <time>2018-03-04T11:46:25Z</time>
      </trkpt>
      <trkpt lat="46.305960193276405" lon="11.81722367182374">
        <ele>1929.98</ele>
        <time>2018-03-04T11:46:34Z</time>
      </trkpt>
      <trkpt lat="46.306043593212962" lon="11.817273376509547">
        <ele>1929.5</ele>
        <time>2018-03-04T11:46:42Z</time>
      </trkpt>
      <trkpt lat="46.306179463863373" lon="11.817366164177656">
        <ele>1929.02</ele>
        <time>2018-03-04T11:46:55Z</time>
      </trkpt>
      <trkpt lat="46.306274766102433" lon="11.817438080906868">
        <ele>1928.54</ele>
        <time>2018-03-04T11:47:05Z</time>
      </trkpt>
      <trkpt lat="46.306325392797589" lon="11.817467417567968">
        <ele>1928.0599999999999</ele>
        <time>2018-03-04T11:47:10Z</time>
      </trkpt>
      <trkpt lat="46.306456737220287" lon="11.817586608231068">
        <ele>1927.5799999999999</ele>
        <time>2018-03-04T11:47:23Z</time>
      </trkpt>
      <trkpt lat="46.306589255109429" lon="11.817703451961279">
        <ele>1926.1400000000001</ele>
        <time>2018-03-04T11:47:36Z</time>
      </trkpt>
      <trkpt lat="46.306705344468355" lon="11.817828509956598">
        <ele>1926.6199999999999</ele>
        <time>2018-03-04T11:47:48Z</time>
      </trkpt>
      <trkpt lat="46.306832078844309" lon="11.817942839115858">
        <ele>1925.6600000000001</ele>
        <time>2018-03-04T11:48:01Z</time>
      </trkpt>
      <trkpt lat="46.306959819048643" lon="11.818063957616687">
        <ele>1924.7</ele>
        <time>2018-03-04T11:48:13Z</time>
      </trkpt>
      <trkpt lat="46.3070207554847" lon="11.818192033097148">
        <ele>1923.74</ele>
        <time>2018-03-04T11:48:23Z</time>
      </trkpt>
      <trkpt lat="46.307073645293713" lon="11.818363862112164">
        <ele>1922.29</ele>
        <time>2018-03-04T11:48:36Z</time>
      </trkpt>
      <trkpt lat="46.307132486253977" lon="11.818524543195963">
        <ele>1922.29</ele>
        <time>2018-03-04T11:48:48Z</time>
      </trkpt>
      <trkpt lat="46.307209180667996" lon="11.81866804137826">
        <ele>1922.77</ele>
        <time>2018-03-04T11:49:00Z</time>
      </trkpt>
      <trkpt lat="46.307284701615572" lon="11.81877113878727">
        <ele>1923.25</ele>
        <time>2018-03-04T11:49:10Z</time>
      </trkpt>
      <trkpt lat="46.307304482907057" lon="11.818805504590273">
        <ele>1923.74</ele>
        <time>2018-03-04T11:49:13Z</time>
      </trkpt>
      <trkpt lat="46.30736667662859" lon="11.818792931735516">
        <ele>1922.29</ele>
        <time>2018-03-04T11:49:19Z</time>
      </trkpt>
      <trkpt lat="46.307506822049618" lon="11.818733168765903">
        <ele>1917.97</ele>
        <time>2018-03-04T11:49:33Z</time>
      </trkpt>
      <trkpt lat="46.307626264169812" lon="11.81874331086874">
        <ele>1915.5599999999999</ele>
        <time>2018-03-04T11:49:41Z</time>
      </trkpt>
      <trkpt lat="46.307757189497352" lon="11.818760074675083">
        <ele>1913.1600000000001</ele>
        <time>2018-03-04T11:49:50Z</time>
      </trkpt>
      <trkpt lat="46.307928012683988" lon="11.81891187094152">
        <ele>1913.1600000000001</ele>
        <time>2018-03-04T11:50:05Z</time>
      </trkpt>
      <trkpt lat="46.307951901108027" lon="11.818934921175241">
        <ele>1910.28</ele>
        <time>2018-03-04T11:50:07Z</time>
      </trkpt>
      <trkpt lat="46.308050807565451" lon="11.819039192050695">
        <ele>1908.8299999999999</ele>
        <time>2018-03-04T11:50:17Z</time>
      </trkpt>
      <trkpt lat="46.308242501690984" lon="11.819139523431659">
        <ele>1906.4300000000001</ele>
        <time>2018-03-04T11:50:30Z</time>
      </trkpt>
      <trkpt lat="46.308350712060928" lon="11.819160226732492">
        <ele>1904.99</ele>
        <time>2018-03-04T11:50:38Z</time>
      </trkpt>
      <trkpt lat="46.308388011530042" lon="11.819172129034996">
        <ele>1904.99</ele>
        <time>2018-03-04T11:50:41Z</time>
      </trkpt>
      <trkpt lat="46.308589512482285" lon="11.819155951961875">
        <ele>1903.0699999999999</ele>
        <time>2018-03-04T11:50:56Z</time>
      </trkpt>
      <trkpt lat="46.308733429759741" lon="11.819155449047685">
        <ele>1901.6300000000001</ele>
        <time>2018-03-04T11:51:06Z</time>
      </trkpt>
      <trkpt lat="46.308909617364407" lon="11.819161400198936">
        <ele>1899.7</ele>
        <time>2018-03-04T11:51:18Z</time>
      </trkpt>
      <trkpt lat="46.309071807190776" lon="11.819190485402942">
        <ele>1898.26</ele>
        <time>2018-03-04T11:51:30Z</time>
      </trkpt>
      <trkpt lat="46.309254784137011" lon="11.81919869966805">
        <ele>1896.3399999999999</ele>
        <time>2018-03-04T11:51:43Z</time>
      </trkpt>
      <trkpt lat="46.309423763304949" lon="11.819198280572891">
        <ele>1894.9000000000001</ele>
        <time>2018-03-04T11:51:55Z</time>
      </trkpt>
      <trkpt lat="46.309585114941001" lon="11.819171207025647">
        <ele>1893.45</ele>
        <time>2018-03-04T11:52:08Z</time>
      </trkpt>
      <trkpt lat="46.309747053310275" lon="11.81913809850812">
        <ele>1891.53</ele>
        <time>2018-03-04T11:52:19Z</time>
      </trkpt>
      <trkpt lat="46.309941429644823" lon="11.819108342751861">
        <ele>1889.6099999999999</ele>
        <time>2018-03-04T11:52:33Z</time>
      </trkpt>
      <trkpt lat="46.310115102678537" lon="11.819133488461375">
        <ele>1887.6900000000001</ele>
        <time>2018-03-04T11:52:47Z</time>
      </trkpt>
      <trkpt lat="46.310266396030784" lon="11.81907657533884">
        <ele>1886.72</ele>
        <time>2018-03-04T11:52:59Z</time>
      </trkpt>
      <trkpt lat="46.310459598898888" lon="11.81899887509644">
        <ele>1883.3599999999999</ele>
        <time>2018-03-04T11:53:14Z</time>
      </trkpt>
      <trkpt lat="46.310610808432102" lon="11.819028547033668">
        <ele>1883.3599999999999</ele>
        <time>2018-03-04T11:53:26Z</time>
      </trkpt>
      <trkpt lat="46.310796551406384" lon="11.818998958915472">
        <ele>1880.48</ele>
        <time>2018-03-04T11:53:39Z</time>
      </trkpt>
      <trkpt lat="46.31093468517065" lon="11.818979512900114">
        <ele>1878.55</ele>
        <time>2018-03-04T11:53:50Z</time>
      </trkpt>
      <trkpt lat="46.311051025986671" lon="11.81893290951848">
        <ele>1877.5899999999999</ele>
        <time>2018-03-04T11:53:59Z</time>
      </trkpt>
      <trkpt lat="46.311209695413709" lon="11.818884126842022">
        <ele>1875.6700000000001</ele>
        <time>2018-03-04T11:54:10Z</time>
      </trkpt>
      <trkpt lat="46.311304494738579" lon="11.818809192627668">
        <ele>1874.71</ele>
        <time>2018-03-04T11:54:19Z</time>
      </trkpt>
      <trkpt lat="46.311315391212702" lon="11.818800056353211">
        <ele>1874.23</ele>
        <time>2018-03-04T11:54:20Z</time>
      </trkpt>
      <trkpt lat="46.311326455324888" lon="11.818793099373579">
        <ele>1874.23</ele>
        <time>2018-03-04T11:54:21Z</time>
      </trkpt>
      <trkpt lat="46.31133777089417" lon="11.818782538175583">
        <ele>1874.23</ele>
        <time>2018-03-04T11:54:22Z</time>
      </trkpt>
      <trkpt lat="46.311352774500847" lon="11.818771809339523">
        <ele>1873.75</ele>
        <time>2018-03-04T11:54:23Z</time>
      </trkpt>
      <trkpt lat="46.311520161107183" lon="11.818678518757224">
        <ele>1871.8199999999999</ele>
        <time>2018-03-04T11:54:36Z</time>
      </trkpt>
      <trkpt lat="46.311682434752584" lon="11.81875504553318">
        <ele>1870.3800000000001</ele>
        <time>2018-03-04T11:54:49Z</time>
      </trkpt>
      <trkpt lat="46.311801541596651" lon="11.818788321688771">
        <ele>1869.4200000000001</ele>
        <time>2018-03-04T11:54:58Z</time>
      </trkpt>
      <trkpt lat="46.311914948746562" lon="11.818691678345203">
        <ele>1867.98</ele>
        <time>2018-03-04T11:55:08Z</time>
      </trkpt>
      <trkpt lat="46.31202575750649" lon="11.818464864045382">
        <ele>1866.54</ele>
        <time>2018-03-04T11:55:21Z</time>
      </trkpt>
      <trkpt lat="46.312127849087119" lon="11.818180549889803">
        <ele>1864.1300000000001</ele>
        <time>2018-03-04T11:55:37Z</time>
      </trkpt>
      <trkpt lat="46.3121806550771" lon="11.817891709506512">
        <ele>1861.73</ele>
        <time>2018-03-04T11:55:53Z</time>
      </trkpt>
      <trkpt lat="46.312204040586948" lon="11.817842591553926">
        <ele>1861.25</ele>
        <time>2018-03-04T11:55:57Z</time>
      </trkpt>
      <trkpt lat="46.312207812443376" lon="11.817816440016031">
        <ele>1860.77</ele>
        <time>2018-03-04T11:55:59Z</time>
      </trkpt>
      <trkpt lat="46.312198592349887" lon="11.817804705351591">
        <ele>1860.77</ele>
        <time>2018-03-04T11:56:00Z</time>
      </trkpt>
      <trkpt lat="46.312296241521835" lon="11.817675791680813">
        <ele>1859.3299999999999</ele>
        <time>2018-03-04T11:56:10Z</time>
      </trkpt>
      <trkpt lat="46.312449043616652" lon="11.817508824169636">
        <ele>1856.9200000000001</ele>
        <time>2018-03-04T11:56:24Z</time>
      </trkpt>
      <trkpt lat="46.312574604526162" lon="11.817309921607375">
        <ele>1855</ele>
        <time>2018-03-04T11:56:39Z</time>
      </trkpt>
      <trkpt lat="46.312580471858382" lon="11.817293073982">
        <ele>1854.52</ele>
        <time>2018-03-04T11:56:40Z</time>
      </trkpt>
      <trkpt lat="46.312588267028332" lon="11.817273711785674">
        <ele>1854.52</ele>
        <time>2018-03-04T11:56:41Z</time>
      </trkpt>
      <trkpt lat="46.312685329467058" lon="11.817088136449456">
        <ele>1853.0799999999999</ele>
        <time>2018-03-04T11:56:53Z</time>
      </trkpt>
      <trkpt lat="46.312789767980576" lon="11.816877918317914">
        <ele>1851.1600000000001</ele>
        <time>2018-03-04T11:57:07Z</time>
      </trkpt>
      <trkpt lat="46.312905438244343" lon="11.816689660772681">
        <ele>1849.23</ele>
        <time>2018-03-04T11:57:20Z</time>
      </trkpt>
      <trkpt lat="46.312993364408612" lon="11.816531745716929">
        <ele>1847.79</ele>
        <time>2018-03-04T11:57:30Z</time>
      </trkpt>
      <trkpt lat="46.313026221469045" lon="11.816433677449822">
        <ele>1846.8299999999999</ele>
        <time>2018-03-04T11:57:36Z</time>
      </trkpt>
      <trkpt lat="46.313030496239662" lon="11.81641791947186">
        <ele>1846.3499999999999</ele>
        <time>2018-03-04T11:57:37Z</time>
      </trkpt>
      <trkpt lat="46.313036447390914" lon="11.816404340788722">
        <ele>1846.3499999999999</ele>
        <time>2018-03-04T11:57:38Z</time>
      </trkpt>
      <trkpt lat="46.313065700232983" lon="11.816343488171697">
        <ele>1845.8699999999999</ele>
        <time>2018-03-04T11:57:42Z</time>
      </trkpt>
      <trkpt lat="46.313071148470044" lon="11.816324209794402">
        <ele>1845.8699999999999</ele>
        <time>2018-03-04T11:57:43Z</time>
      </trkpt>
      <trkpt lat="46.313142227008939" lon="11.816130839288235">
        <ele>1843.95</ele>
        <time>2018-03-04T11:57:54Z</time>
      </trkpt>
      <trkpt lat="46.313272649422288" lon="11.815913496538997">
        <ele>1842.5</ele>
        <time>2018-03-04T11:58:07Z</time>
      </trkpt>
      <trkpt lat="46.313320174813271" lon="11.815763879567385">
        <ele>1841.0599999999999</ele>
        <time>2018-03-04T11:58:19Z</time>
      </trkpt>
      <trkpt lat="46.313304835930467" lon="11.815751139074564">
        <ele>1841.0599999999999</ele>
        <time>2018-03-04T11:58:33Z</time>
      </trkpt>
      <trkpt lat="46.313307099044323" lon="11.815734123811126">
        <ele>1841.0599999999999</ele>
        <time>2018-03-04T11:58:34Z</time>
      </trkpt>
      <trkpt lat="46.313310200348496" lon="11.815711911767721">
        <ele>1840.5799999999999</ele>
        <time>2018-03-04T11:58:35Z</time>
      </trkpt>
      <trkpt lat="46.313337022438645" lon="11.815460957586765">
        <ele>1839.1400000000001</ele>
        <time>2018-03-04T11:58:47Z</time>
      </trkpt>
      <trkpt lat="46.313402066007257" lon="11.815292565152049">
        <ele>1838.1800000000001</ele>
        <time>2018-03-04T11:58:58Z</time>
      </trkpt>
      <trkpt lat="46.313544139266014" lon="11.815098188817501">
        <ele>1835.77</ele>
        <time>2018-03-04T11:59:12Z</time>
      </trkpt>
      <trkpt lat="46.313695935532451" lon="11.814956367015839">
        <ele>1833.8499999999999</ele>
        <time>2018-03-04T11:59:25Z</time>
      </trkpt>
      <trkpt lat="46.313781514763832" lon="11.814864333719015">
        <ele>1831.45</ele>
        <time>2018-03-04T11:59:33Z</time>
      </trkpt>
      <trkpt lat="46.313936915248632" lon="11.814698288217187">
        <ele>1830.49</ele>
        <time>2018-03-04T11:59:47Z</time>
      </trkpt>
      <trkpt lat="46.313944961875677" lon="11.814682697877288">
        <ele>1830.01</ele>
        <time>2018-03-04T11:59:58Z</time>
      </trkpt>
      <trkpt lat="46.313931718468666" lon="11.814692253246903">
        <ele>1829.53</ele>
        <time>2018-03-04T12:00:13Z</time>
      </trkpt>
      <trkpt lat="46.313941106200218" lon="11.814674064517021">
        <ele>1830.01</ele>
        <time>2018-03-04T12:00:14Z</time>
      </trkpt>
      <trkpt lat="46.313950577750802" lon="11.814659899100661">
        <ele>1829.53</ele>
        <time>2018-03-04T12:00:15Z</time>
      </trkpt>
      <trkpt lat="46.313960552215576" lon="11.814644476398826">
        <ele>1829.53</ele>
        <time>2018-03-04T12:00:16Z</time>
      </trkpt>
      <trkpt lat="46.313969604671001" lon="11.814630562439561">
        <ele>1829.53</ele>
        <time>2018-03-04T12:00:17Z</time>
      </trkpt>
      <trkpt lat="46.314042191952467" lon="11.814498798921704">
        <ele>1828.0799999999999</ele>
        <time>2018-03-04T12:00:26Z</time>
      </trkpt>
      <trkpt lat="46.314111007377505" lon="11.814235607162118">
        <ele>1826.6400000000001</ele>
        <time>2018-03-04T12:00:40Z</time>
      </trkpt>
      <trkpt lat="46.314175128936768" lon="11.814022036269307">
        <ele>1827.1199999999999</ele>
        <time>2018-03-04T12:00:52Z</time>
      </trkpt>
      <trkpt lat="46.314209075644612" lon="11.813788935542107">
        <ele>1826.6400000000001</ele>
        <time>2018-03-04T12:01:04Z</time>
      </trkpt>
      <trkpt lat="46.314242016524076" lon="11.813559690490365">
        <ele>1823.76</ele>
        <time>2018-03-04T12:01:16Z</time>
      </trkpt>
      <trkpt lat="46.314236903563142" lon="11.813367744907737">
        <ele>1821.3499999999999</ele>
        <time>2018-03-04T12:01:27Z</time>
      </trkpt>
      <trkpt lat="46.314233131706715" lon="11.813336564227939">
        <ele>1820.8699999999999</ele>
        <time>2018-03-04T12:01:29Z</time>
      </trkpt>
      <trkpt lat="46.314216451719403" lon="11.813137074932456">
        <ele>1817.99</ele>
        <time>2018-03-04T12:01:41Z</time>
      </trkpt>
      <trkpt lat="46.31421385332942" lon="11.813023583963513">
        <ele>1817.03</ele>
        <time>2018-03-04T12:01:47Z</time>
      </trkpt>
      <trkpt lat="46.314215026795864" lon="11.813003467395902">
        <ele>1816.55</ele>
        <time>2018-03-04T12:01:48Z</time>
      </trkpt>
      <trkpt lat="46.314215445891023" lon="11.812981925904751">
        <ele>1816.55</ele>
        <time>2018-03-04T12:01:49Z</time>
      </trkpt>
      <trkpt lat="46.314218295738101" lon="11.812962479889393">
        <ele>1816.0699999999999</ele>
        <time>2018-03-04T12:01:50Z</time>
      </trkpt>
      <trkpt lat="46.314220642670989" lon="11.812945799902081">
        <ele>1816.0699999999999</ele>
        <time>2018-03-04T12:01:51Z</time>
      </trkpt>
      <trkpt lat="46.314252074807882" lon="11.812702557072043">
        <ele>1814.6300000000001</ele>
        <time>2018-03-04T12:02:04Z</time>
      </trkpt>
      <trkpt lat="46.314255511388183" lon="11.812682775780559">
        <ele>1814.6300000000001</ele>
        <time>2018-03-04T12:02:05Z</time>
      </trkpt>
      <trkpt lat="46.314257690683007" lon="11.812662659212947">
        <ele>1814.1500000000001</ele>
        <time>2018-03-04T12:02:06Z</time>
      </trkpt>
      <trkpt lat="46.314288200810552" lon="11.812498960644007">
        <ele>1812.22</ele>
        <time>2018-03-04T12:02:15Z</time>
      </trkpt>
      <trkpt lat="46.31435357965529" lon="11.812244150787592">
        <ele>1809.8199999999999</ele>
        <time>2018-03-04T12:02:29Z</time>
      </trkpt>
      <trkpt lat="46.31440294906497" lon="11.811990514397621">
        <ele>1808.3800000000001</ele>
        <time>2018-03-04T12:02:42Z</time>
      </trkpt>
      <trkpt lat="46.314458437263966" lon="11.811789181083441">
        <ele>1807.4200000000001</ele>
        <time>2018-03-04T12:02:53Z</time>
      </trkpt>
      <trkpt lat="46.314536808058619" lon="11.81162104010582">
        <ele>1806.45</ele>
        <time>2018-03-04T12:03:04Z</time>
      </trkpt>
      <trkpt lat="46.314670918509364" lon="11.811440829187632">
        <ele>1804.53</ele>
        <time>2018-03-04T12:03:17Z</time>
      </trkpt>
      <trkpt lat="46.314759515225887" lon="11.811317531391978">
        <ele>1804.53</ele>
        <time>2018-03-04T12:03:27Z</time>
      </trkpt>
      <trkpt lat="46.314819864928722" lon="11.81121208705008">
        <ele>1803.0899999999999</ele>
        <time>2018-03-04T12:03:35Z</time>
      </trkpt>
      <trkpt lat="46.314833611249924" lon="11.811182079836726">
        <ele>1803.0899999999999</ele>
        <time>2018-03-04T12:03:37Z</time>
      </trkpt>
      <trkpt lat="46.314954981207848" lon="11.810999941080809">
        <ele>1802.1300000000001</ele>
        <time>2018-03-04T12:03:50Z</time>
      </trkpt>
      <trkpt lat="46.31503963842988" lon="11.810861807316542">
        <ele>1801.1700000000001</ele>
        <time>2018-03-04T12:03:59Z</time>
      </trkpt>
      <trkpt lat="46.315054725855589" lon="11.810831045731902">
        <ele>1801.6500000000001</ele>
        <time>2018-03-04T12:04:01Z</time>
      </trkpt>
      <trkpt lat="46.315065454691648" lon="11.810815539211035">
        <ele>1800.6900000000001</ele>
        <time>2018-03-04T12:04:02Z</time>
      </trkpt>
      <trkpt lat="46.315132761374116" lon="11.810657205060124">
        <ele>1798.28</ele>
        <time>2018-03-04T12:04:12Z</time>
      </trkpt>
      <trkpt lat="46.315139466896653" lon="11.810639267787337">
        <ele>1798.28</ele>
        <time>2018-03-04T12:04:13Z</time>
      </trkpt>
      <trkpt lat="46.31515933200717" lon="11.810604650527239">
        <ele>1797.8</ele>
        <time>2018-03-04T12:04:15Z</time>
      </trkpt>
      <trkpt lat="46.315175760537386" lon="11.810563746839762">
        <ele>1797.8</ele>
        <time>2018-03-04T12:04:17Z</time>
      </trkpt>
      <trkpt lat="46.315221777185798" lon="11.810342213138938">
        <ele>1795.8800000000001</ele>
        <time>2018-03-04T12:04:28Z</time>
      </trkpt>
      <trkpt lat="46.315243486315012" lon="11.810137443244457">
        <ele>1794.4400000000001</ele>
        <time>2018-03-04T12:04:38Z</time>
      </trkpt>
      <trkpt lat="46.315283970907331" lon="11.809880034998059">
        <ele>1792.52</ele>
        <time>2018-03-04T12:04:51Z</time>
      </trkpt>
      <trkpt lat="46.315297465771437" lon="11.809629164636135">
        <ele>1791.55</ele>
        <time>2018-03-04T12:05:03Z</time>
      </trkpt>
      <trkpt lat="46.315321354195476" lon="11.809381982311606">
        <ele>1789.6300000000001</ele>
        <time>2018-03-04T12:05:15Z</time>
      </trkpt>
      <trkpt lat="46.315364018082619" lon="11.809128262102604">
        <ele>1788.6700000000001</ele>
        <time>2018-03-04T12:05:28Z</time>
      </trkpt>
      <trkpt lat="46.31536653265357" lon="11.809098087251186">
        <ele>1788.1900000000001</ele>
        <time>2018-03-04T12:05:29Z</time>
      </trkpt>
      <trkpt lat="46.315394025295973" lon="11.808912344276905">
        <ele>1787.23</ele>
        <time>2018-03-04T12:05:39Z</time>
      </trkpt>
      <trkpt lat="46.315432665869594" lon="11.808656947687268">
        <ele>1786.27</ele>
        <time>2018-03-04T12:05:52Z</time>
      </trkpt>
      <trkpt lat="46.31544859148562" lon="11.808405825868249">
        <ele>1785.3099999999999</ele>
        <time>2018-03-04T12:06:04Z</time>
      </trkpt>
      <trkpt lat="46.315500475466251" lon="11.808162247762084">
        <ele>1784.8199999999999</ele>
        <time>2018-03-04T12:06:17Z</time>
      </trkpt>
      <trkpt lat="46.315538361668587" lon="11.807998633012176">
        <ele>1783.8599999999999</ele>
        <time>2018-03-04T12:06:26Z</time>
      </trkpt>
      <trkpt lat="46.315597873181105" lon="11.807761676609516">
        <ele>1783.3800000000001</ele>
        <time>2018-03-04T12:06:38Z</time>
      </trkpt>
      <trkpt lat="46.31570222787559" lon="11.807522708550096">
        <ele>1782.4200000000001</ele>
        <time>2018-03-04T12:06:52Z</time>
      </trkpt>
      <trkpt lat="46.315807001665235" lon="11.807334031909704">
        <ele>1781.9400000000001</ele>
        <time>2018-03-04T12:07:05Z</time>
      </trkpt>
      <trkpt lat="46.315848575904965" lon="11.80724979378283">
        <ele>1782.4200000000001</ele>
        <time>2018-03-04T12:07:10Z</time>
      </trkpt>
      <trkpt lat="46.315855449065566" lon="11.807231353595853">
        <ele>1781.9400000000001</ele>
        <time>2018-03-04T12:07:11Z</time>
      </trkpt>
      <trkpt lat="46.315928371623158" lon="11.807027673348784">
        <ele>1781.46</ele>
        <time>2018-03-04T12:07:23Z</time>
      </trkpt>
      <trkpt lat="46.316029625013471" lon="11.806865567341447">
        <ele>1781.46</ele>
        <time>2018-03-04T12:07:35Z</time>
      </trkpt>
      <trkpt lat="46.316114868968725" lon="11.806694408878684">
        <ele>1782.4200000000001</ele>
        <time>2018-03-04T12:07:46Z</time>
      </trkpt>
      <trkpt lat="46.316190138459206" lon="11.806551581248641">
        <ele>1782.4200000000001</ele>
        <time>2018-03-04T12:07:56Z</time>
      </trkpt>
      <trkpt lat="46.316343694925308" lon="11.806516377255321">
        <ele>1781.9400000000001</ele>
        <time>2018-03-04T12:08:08Z</time>
      </trkpt>
      <trkpt lat="46.31636431440711" lon="11.806494416669011">
        <ele>1781.9400000000001</ele>
        <time>2018-03-04T12:08:10Z</time>
      </trkpt>
      <trkpt lat="46.316372528672218" lon="11.806477149948478">
        <ele>1782.4200000000001</ele>
        <time>2018-03-04T12:08:11Z</time>
      </trkpt>
      <trkpt lat="46.316382838413119" lon="11.806463403627276">
        <ele>1782.4200000000001</ele>
        <time>2018-03-04T12:08:12Z</time>
      </trkpt>
      <trkpt lat="46.316395411267877" lon="11.806436665356159">
        <ele>1782.4200000000001</ele>
        <time>2018-03-04T12:08:14Z</time>
      </trkpt>
      <trkpt lat="46.316405637189746" lon="11.806417554616928">
        <ele>1782.4200000000001</ele>
        <time>2018-03-04T12:08:15Z</time>
      </trkpt>
      <trkpt lat="46.316409576684237" lon="11.806402802467346">
        <ele>1782.4200000000001</ele>
        <time>2018-03-04T12:08:16Z</time>
      </trkpt>
      <trkpt lat="46.316422903910279" lon="11.806366676464677">
        <ele>1782.4200000000001</ele>
        <time>2018-03-04T12:08:19Z</time>
      </trkpt>
      <trkpt lat="46.316435225307941" lon="11.806340273469687">
        <ele>1782.4200000000001</ele>
        <time>2018-03-04T12:08:21Z</time>
      </trkpt>
      <trkpt lat="46.316501777619123" lon="11.806215299293399">
        <ele>1782.9000000000001</ele>
        <time>2018-03-04T12:08:30Z</time>
      </trkpt>
      <trkpt lat="46.316512925550342" lon="11.806203229352832">
        <ele>1782.9000000000001</ele>
        <time>2018-03-04T12:08:31Z</time>
      </trkpt>
      <trkpt lat="46.316606216132641" lon="11.806049924343824">
        <ele>1783.3800000000001</ele>
        <time>2018-03-04T12:08:42Z</time>
      </trkpt>
      <trkpt lat="46.316639743745327" lon="11.805984377861023">
        <ele>1783.8599999999999</ele>
        <time>2018-03-04T12:08:46Z</time>
      </trkpt>
      <trkpt lat="46.31677133962512" lon="11.805816488340497">
        <ele>1783.8599999999999</ele>
        <time>2018-03-04T12:08:59Z</time>
      </trkpt>
      <trkpt lat="46.316887764260173" lon="11.805676594376564">
        <ele>1783.3800000000001</ele>
        <time>2018-03-04T12:09:10Z</time>
      </trkpt>
      <trkpt lat="46.317010810598731" lon="11.805506777018309">
        <ele>1783.3800000000001</ele>
        <time>2018-03-04T12:09:23Z</time>
      </trkpt>
      <trkpt lat="46.317117009311914" lon="11.805324135348201">
        <ele>1782.4200000000001</ele>
        <time>2018-03-04T12:09:36Z</time>
      </trkpt>
      <trkpt lat="46.317208036780357" lon="11.805089274421334">
        <ele>1781.46</ele>
        <time>2018-03-04T12:09:50Z</time>
      </trkpt>
      <trkpt lat="46.317285234108567" lon="11.804857682436705">
        <ele>1780.98</ele>
        <time>2018-03-04T12:10:03Z</time>
      </trkpt>
      <trkpt lat="46.317340470850468" lon="11.80464243516326">
        <ele>1780.02</ele>
        <time>2018-03-04T12:10:15Z</time>
      </trkpt>
      <trkpt lat="46.317404508590698" lon="11.804401120170951">
        <ele>1780.5</ele>
        <time>2018-03-04T12:10:29Z</time>
      </trkpt>
      <trkpt lat="46.317457985132933" lon="11.804185202345252">
        <ele>1780.02</ele>
        <time>2018-03-04T12:10:41Z</time>
      </trkpt>
      <trkpt lat="46.317517999559641" lon="11.803969703614712">
        <ele>1779.54</ele>
        <time>2018-03-04T12:10:53Z</time>
      </trkpt>
      <trkpt lat="46.317577678710222" lon="11.803790163248777">
        <ele>1779.0599999999999</ele>
        <time>2018-03-04T12:11:04Z</time>
      </trkpt>
      <trkpt lat="46.317665353417397" lon="11.803586399182677">
        <ele>1778.5799999999999</ele>
        <time>2018-03-04T12:11:17Z</time>
      </trkpt>
      <trkpt lat="46.31774079054594" lon="11.803445583209395">
        <ele>1778.0999999999999</ele>
        <time>2018-03-04T12:11:27Z</time>
      </trkpt>
      <trkpt lat="46.317765768617392" lon="11.803356818854809">
        <ele>1778.0999999999999</ele>
        <time>2018-03-04T12:11:33Z</time>
      </trkpt>
      <trkpt lat="46.317892838269472" lon="11.803148863837123">
        <ele>1777.6099999999999</ele>
        <time>2018-03-04T12:11:47Z</time>
      </trkpt>
      <trkpt lat="46.317985542118549" lon="11.803001426160336">
        <ele>1777.1300000000001</ele>
        <time>2018-03-04T12:11:58Z</time>
      </trkpt>
      <trkpt lat="46.318068355321884" lon="11.802848037332296">
        <ele>1777.1300000000001</ele>
        <time>2018-03-04T12:12:09Z</time>
      </trkpt>
      <trkpt lat="46.318178409710526" lon="11.802655756473541">
        <ele>1776.6500000000001</ele>
        <time>2018-03-04T12:12:23Z</time>
      </trkpt>
      <trkpt lat="46.318296175450087" lon="11.802461296319962">
        <ele>1776.6500000000001</ele>
        <time>2018-03-04T12:12:37Z</time>
      </trkpt>
      <trkpt lat="46.318389466032386" lon="11.802282594144344">
        <ele>1776.1700000000001</ele>
        <time>2018-03-04T12:12:49Z</time>
      </trkpt>
      <trkpt lat="46.3184820022434" lon="11.802093582227826">
        <ele>1775.6900000000001</ele>
        <time>2018-03-04T12:13:01Z</time>
      </trkpt>
      <trkpt lat="46.318583255633712" lon="11.801906665787101">
        <ele>1775.21</ele>
        <time>2018-03-04T12:13:13Z</time>
      </trkpt>
      <trkpt lat="46.318658273667097" lon="11.801723437383771">
        <ele>1774.73</ele>
        <time>2018-03-04T12:13:25Z</time>
      </trkpt>
      <trkpt lat="46.318723233416677" lon="11.801537610590458">
        <ele>1774.73</ele>
        <time>2018-03-04T12:13:36Z</time>
      </trkpt>
      <trkpt lat="46.318754246458411" lon="11.801467956975102">
        <ele>1773.77</ele>
        <time>2018-03-04T12:13:42Z</time>
      </trkpt>
      <trkpt lat="46.318772351369262" lon="11.80142386816442">
        <ele>1773.77</ele>
        <time>2018-03-04T12:13:45Z</time>
      </trkpt>
      <trkpt lat="46.318829851225019" lon="11.801244160160422">
        <ele>1773.29</ele>
        <time>2018-03-04T12:13:56Z</time>
      </trkpt>
      <trkpt lat="46.318914256989956" lon="11.801019106060266">
        <ele>1773.29</ele>
        <time>2018-03-04T12:14:10Z</time>
      </trkpt>
      <trkpt lat="46.3189965672791" lon="11.800835290923715">
        <ele>1773.29</ele>
        <time>2018-03-04T12:14:21Z</time>
      </trkpt>
      <trkpt lat="46.319077620282769" lon="11.800662791356444">
        <ele>1773.29</ele>
        <time>2018-03-04T12:14:32Z</time>
      </trkpt>
      <trkpt lat="46.319083152338862" lon="11.800649128854275">
        <ele>1773.29</ele>
        <time>2018-03-04T12:14:33Z</time>
      </trkpt>
      <trkpt lat="46.319090696051717" lon="11.800635633990169">
        <ele>1772.8099999999999</ele>
        <time>2018-03-04T12:14:34Z</time>
      </trkpt>
      <trkpt lat="46.319187926128507" lon="11.8004544172436">
        <ele>1772.3299999999999</ele>
        <time>2018-03-04T12:14:47Z</time>
      </trkpt>
      <trkpt lat="46.319327149540186" lon="11.800257693976164">
        <ele>1771.3699999999999</ele>
        <time>2018-03-04T12:15:02Z</time>
      </trkpt>
      <trkpt lat="46.319423709064722" lon="11.800078153610229">
        <ele>1771.3699999999999</ele>
        <time>2018-03-04T12:15:14Z</time>
      </trkpt>
      <trkpt lat="46.319459332153201" lon="11.800006320700049">
        <ele>1771.3699999999999</ele>
        <time>2018-03-04T12:15:19Z</time>
      </trkpt>
      <trkpt lat="46.319468803703785" lon="11.79999559186399">
        <ele>1770.8900000000001</ele>
        <time>2018-03-04T12:15:20Z</time>
      </trkpt>
      <trkpt lat="46.319478191435337" lon="11.799983186647296">
        <ele>1771.3699999999999</ele>
        <time>2018-03-04T12:15:21Z</time>
      </trkpt>
      <trkpt lat="46.319484813138843" lon="11.799971787258983">
        <ele>1771.3699999999999</ele>
        <time>2018-03-04T12:15:22Z</time>
      </trkpt>
      <trkpt lat="46.319492943584919" lon="11.799956448376179">
        <ele>1771.3699999999999</ele>
        <time>2018-03-04T12:15:23Z</time>
      </trkpt>
      <trkpt lat="46.319555891677737" lon="11.799829378724098">
        <ele>1771.8499999999999</ele>
        <time>2018-03-04T12:15:32Z</time>
      </trkpt>
      <trkpt lat="46.319565195590258" lon="11.799817560240626">
        <ele>1771.8499999999999</ele>
        <time>2018-03-04T12:15:33Z</time>
      </trkpt>
      <trkpt lat="46.319636441767216" lon="11.799698201939464">
        <ele>1771.3699999999999</ele>
        <time>2018-03-04T12:15:42Z</time>
      </trkpt>
      <trkpt lat="46.319742556661367" lon="11.799545483663678">
        <ele>1771.3699999999999</ele>
        <time>2018-03-04T12:15:54Z</time>
      </trkpt>
      <trkpt lat="46.319833165034652" lon="11.799399806186557">
        <ele>1770.4100000000001</ele>
        <time>2018-03-04T12:16:05Z</time>
      </trkpt>
      <trkpt lat="46.319914972409606" lon="11.799251614138484">
        <ele>1770.4100000000001</ele>
        <time>2018-03-04T12:16:16Z</time>
      </trkpt>
      <trkpt lat="46.319931233301759" lon="11.799211129546165">
        <ele>1770.4100000000001</ele>
        <time>2018-03-04T12:16:19Z</time>
      </trkpt>
      <trkpt lat="46.319957049563527" lon="11.799050699919462">
        <ele>1770.8900000000001</ele>
        <time>2018-03-04T12:16:29Z</time>
      </trkpt>
      <trkpt lat="46.319977836683393" lon="11.798934610560536">
        <ele>1770.8900000000001</ele>
        <time>2018-03-04T12:16:37Z</time>
      </trkpt>
      <trkpt lat="46.319984709843993" lon="11.79889471270144">
        <ele>1770.8900000000001</ele>
        <time>2018-03-04T12:16:40Z</time>
      </trkpt>
      <trkpt lat="46.320009268820286" lon="11.798899993300438">
        <ele>1770.8900000000001</ele>
        <time>2018-03-04T12:16:47Z</time>
      </trkpt>
      <trkpt lat="46.320014130324125" lon="11.798904435709119">
        <ele>1770.8900000000001</ele>
        <time>2018-03-04T12:16:53Z</time>
      </trkpt>
      <trkpt lat="46.320012370124459" lon="11.798891611397266">
        <ele>1771.3699999999999</ele>
        <time>2018-03-04T12:17:01Z</time>
      </trkpt>
      <trkpt lat="46.320017818361521" lon="11.798890521749854">
        <ele>1770.8900000000001</ele>
        <time>2018-03-04T12:17:10Z</time>
      </trkpt>
      <trkpt lat="46.320007676258683" lon="11.798887252807617">
        <ele>1770.8900000000001</ele>
        <time>2018-03-04T12:17:21Z</time>
      </trkpt>
      <trkpt lat="46.319994684308767" lon="11.798864370211959">
        <ele>1770.8900000000001</ele>
        <time>2018-03-04T12:17:29Z</time>
      </trkpt>
      <trkpt lat="46.319991666823626" lon="11.798881217837334">
        <ele>1770.4100000000001</ele>
        <time>2018-03-04T12:17:43Z</time>
      </trkpt>
      <trkpt lat="46.320015471428633" lon="11.798864789307117">
        <ele>1770.8900000000001</ele>
        <time>2018-03-04T12:17:55Z</time>
      </trkpt>
      <trkpt lat="46.319991247728467" lon="11.798899741843343">
        <ele>1771.3699999999999</ele>
        <time>2018-03-04T12:18:05Z</time>
      </trkpt>
      <trkpt lat="46.319982195273042" lon="11.798916254192591">
        <ele>1771.3699999999999</ele>
        <time>2018-03-04T12:18:16Z</time>
      </trkpt>
      <trkpt lat="46.319969119504094" lon="11.798868980258703">
        <ele>1770.8900000000001</ele>
        <time>2018-03-04T12:18:28Z</time>
      </trkpt>
      <trkpt lat="46.320001473650336" lon="11.798852048814297">
        <ele>1770.8900000000001</ele>
        <time>2018-03-04T12:18:48Z</time>
      </trkpt>
      <trkpt lat="46.319979010149837" lon="11.798890437930822">
        <ele>1771.8499999999999</ele>
        <time>2018-03-04T12:18:56Z</time>
      </trkpt>
      <trkpt lat="46.319962246343493" lon="11.798912063241005">
        <ele>1770.8900000000001</ele>
        <time>2018-03-04T12:19:14Z</time>
      </trkpt>
      <trkpt lat="46.31997968070209" lon="11.798888929188251">
        <ele>1770.8900000000001</ele>
        <time>2018-03-04T12:19:30Z</time>
      </trkpt>
      <trkpt lat="46.319946320727468" lon="11.798916924744844">
        <ele>1770.8900000000001</ele>
        <time>2018-03-04T12:19:36Z</time>
      </trkpt>
      <trkpt lat="46.319934334605932" lon="11.798825226724148">
        <ele>1771.3699999999999</ele>
        <time>2018-03-04T12:19:41Z</time>
      </trkpt>
      <trkpt lat="46.319933831691742" lon="11.798807373270392">
        <ele>1770.8900000000001</ele>
        <time>2018-03-04T12:19:42Z</time>
      </trkpt>
      <trkpt lat="46.319935005158186" lon="11.798787843436003">
        <ele>1770.8900000000001</ele>
        <time>2018-03-04T12:19:43Z</time>
      </trkpt>
      <trkpt lat="46.31993324495852" lon="11.798770911991596">
        <ele>1770.8900000000001</ele>
        <time>2018-03-04T12:19:44Z</time>
      </trkpt>
      <trkpt lat="46.319948583841324" lon="11.798740485683084">
        <ele>1771.3699999999999</ele>
        <time>2018-03-04T12:19:53Z</time>
      </trkpt>
      <trkpt lat="46.319958055391908" lon="11.798875015228987">
        <ele>1770.8900000000001</ele>
        <time>2018-03-04T12:20:02Z</time>
      </trkpt>
      <trkpt lat="46.31995914503932" lon="11.798909716308117">
        <ele>1770.8900000000001</ele>
        <time>2018-03-04T12:20:05Z</time>
      </trkpt>
      <trkpt lat="46.319979429244995" lon="11.79889764636755">
        <ele>1770.8900000000001</ele>
        <time>2018-03-04T12:20:14Z</time>
      </trkpt>
      <trkpt lat="46.319975070655346" lon="11.798919523134828">
        <ele>1770.8900000000001</ele>
        <time>2018-03-04T12:20:30Z</time>
      </trkpt>
      <trkpt lat="46.319968281313777" lon="11.798917427659035">
        <ele>1770.8900000000001</ele>
        <time>2018-03-04T12:20:47Z</time>
      </trkpt>
      <trkpt lat="46.31999870762229" lon="11.798927485942841">
        <ele>1771.3699999999999</ele>
        <time>2018-03-04T12:21:10Z</time>
      </trkpt>
      <trkpt lat="46.31996551528573" lon="11.798932515084743">
        <ele>1770.8900000000001</ele>
        <time>2018-03-04T12:21:25Z</time>
      </trkpt>
      <trkpt lat="46.319984123110771" lon="11.798938550055027">
        <ele>1771.3699999999999</ele>
        <time>2018-03-04T12:21:43Z</time>
      </trkpt>
      <trkpt lat="46.319979345425963" lon="11.798938633874059">
        <ele>1770.8900000000001</ele>
        <time>2018-03-04T12:22:06Z</time>
      </trkpt>
      <trkpt lat="46.319983704015613" lon="11.798963528126478">
        <ele>1771.8499999999999</ele>
        <time>2018-03-04T12:22:26Z</time>
      </trkpt>
      <trkpt lat="46.319993762299418" lon="11.798927318304777">
        <ele>1771.8499999999999</ele>
        <time>2018-03-04T12:22:49Z</time>
      </trkpt>
      <trkpt lat="46.319995354861021" lon="11.798921031877398">
        <ele>1771.8499999999999</ele>
        <time>2018-03-04T12:23:09Z</time>
      </trkpt>
      <trkpt lat="46.319988397881389" lon="11.798929665237665">
        <ele>1771.8499999999999</ele>
        <time>2018-03-04T12:23:24Z</time>
      </trkpt>
      <trkpt lat="46.3199826143682" lon="11.798910889774561">
        <ele>1771.8499999999999</ele>
        <time>2018-03-04T12:23:36Z</time>
      </trkpt>
      <trkpt lat="46.319973729550838" lon="11.798928743228316">
        <ele>1771.8499999999999</ele>
        <time>2018-03-04T12:23:52Z</time>
      </trkpt>
      <trkpt lat="46.319981189444661" lon="11.79893184453249">
        <ele>1772.3299999999999</ele>
        <time>2018-03-04T12:24:10Z</time>
      </trkpt>
      <trkpt lat="46.319978088140488" lon="11.798907620832324">
        <ele>1772.3299999999999</ele>
        <time>2018-03-04T12:24:27Z</time>
      </trkpt>
      <trkpt lat="46.319977501407266" lon="11.798920193687081">
        <ele>1772.8099999999999</ele>
        <time>2018-03-04T12:24:43Z</time>
      </trkpt>
      <trkpt lat="46.319971969351172" lon="11.798900160938501">
        <ele>1772.8099999999999</ele>
        <time>2018-03-04T12:25:07Z</time>
      </trkpt>
      <trkpt lat="46.319984961301088" lon="11.798911644145846">
        <ele>1773.77</ele>
        <time>2018-03-04T12:25:31Z</time>
      </trkpt>
      <trkpt lat="46.319981776177883" lon="11.798926815390587">
        <ele>1773.77</ele>
        <time>2018-03-04T12:25:53Z</time>
      </trkpt>
      <trkpt lat="46.319979345425963" lon="11.798929665237665">
        <ele>1773.29</ele>
        <time>2018-03-04T12:26:10Z</time>
      </trkpt>
      <trkpt lat="46.319997617974877" lon="11.798943746834993">
        <ele>1773.29</ele>
        <time>2018-03-04T12:26:32Z</time>
      </trkpt>
      <trkpt lat="46.319971801713109" lon="11.798953134566545">
        <ele>1773.29</ele>
        <time>2018-03-04T12:26:53Z</time>
      </trkpt>
      <trkpt lat="46.319988146424294" lon="11.798937963321805">
        <ele>1772.8099999999999</ele>
        <time>2018-03-04T12:27:07Z</time>
      </trkpt>
      <trkpt lat="46.319990660995245" lon="11.798881804570556">
        <ele>1773.29</ele>
        <time>2018-03-04T12:27:27Z</time>
      </trkpt>
      <trkpt lat="46.319995857775211" lon="11.798844924196601">
        <ele>1772.8099999999999</ele>
        <time>2018-03-04T12:27:29Z</time>
      </trkpt>
      <trkpt lat="46.319996193051338" lon="11.798824053257704">
        <ele>1773.77</ele>
        <time>2018-03-04T12:27:30Z</time>
      </trkpt>
      <trkpt lat="46.320032319054008" lon="11.798694720491767">
        <ele>1774.25</ele>
        <time>2018-03-04T12:27:39Z</time>
      </trkpt>
      <trkpt lat="46.320090154185891" lon="11.79853898473084">
        <ele>1774.73</ele>
        <time>2018-03-04T12:27:50Z</time>
      </trkpt>
      <trkpt lat="46.320100296288729" lon="11.798529429361224">
        <ele>1774.73</ele>
        <time>2018-03-04T12:27:51Z</time>
      </trkpt>
      <trkpt lat="46.320105157792568" lon="11.798515263944864">
        <ele>1774.73</ele>
        <time>2018-03-04T12:27:52Z</time>
      </trkpt>
      <trkpt lat="46.320110438391566" lon="11.798501685261726">
        <ele>1774.73</ele>
        <time>2018-03-04T12:27:53Z</time>
      </trkpt>
      <trkpt lat="46.32011747919023" lon="11.798488944768906">
        <ele>1774.73</ele>
        <time>2018-03-04T12:27:54Z</time>
      </trkpt>
      <trkpt lat="46.320133823901415" lon="11.798454159870744">
        <ele>1775.21</ele>
        <time>2018-03-04T12:27:57Z</time>
      </trkpt>
      <trkpt lat="46.320159640163183" lon="11.798368915915489">
        <ele>1775.6900000000001</ele>
        <time>2018-03-04T12:28:03Z</time>
      </trkpt>
      <trkpt lat="46.32016240619123" lon="11.798350978642702">
        <ele>1775.6900000000001</ele>
        <time>2018-03-04T12:28:04Z</time>
      </trkpt>
      <trkpt lat="46.32016927935183" lon="11.798337232321501">
        <ele>1775.6900000000001</ele>
        <time>2018-03-04T12:28:05Z</time>
      </trkpt>
      <trkpt lat="46.320176739245653" lon="11.798323318362236">
        <ele>1775.6900000000001</ele>
        <time>2018-03-04T12:28:06Z</time>
      </trkpt>
      <trkpt lat="46.320215798914433" lon="11.798246456310153">
        <ele>1776.1700000000001</ele>
        <time>2018-03-04T12:28:12Z</time>
      </trkpt>
      <trkpt lat="46.320275226607919" lon="11.798112262040377">
        <ele>1776.6500000000001</ele>
        <time>2018-03-04T12:28:22Z</time>
      </trkpt>
      <trkpt lat="46.320295678451657" lon="11.798058617860079">
        <ele>1776.1700000000001</ele>
        <time>2018-03-04T12:28:26Z</time>
      </trkpt>
      <trkpt lat="46.320306155830622" lon="11.798037998378277">
        <ele>1776.1700000000001</ele>
        <time>2018-03-04T12:28:28Z</time>
      </trkpt>
      <trkpt lat="46.320314202457666" lon="11.798024335876107">
        <ele>1776.6500000000001</ele>
        <time>2018-03-04T12:28:29Z</time>
      </trkpt>
      <trkpt lat="46.320340521633625" lon="11.797961471602321">
        <ele>1776.6500000000001</ele>
        <time>2018-03-04T12:28:33Z</time>
      </trkpt>
      <trkpt lat="46.320350328460336" lon="11.797946132719517">
        <ele>1776.6500000000001</ele>
        <time>2018-03-04T12:28:34Z</time>
      </trkpt>
      <trkpt lat="46.320357369259" lon="11.797929536551237">
        <ele>1776.6500000000001</ele>
        <time>2018-03-04T12:28:35Z</time>
      </trkpt>
      <trkpt lat="46.32036566734314" lon="11.79790623486042">
        <ele>1776.6500000000001</ele>
        <time>2018-03-04T12:28:37Z</time>
      </trkpt>
      <trkpt lat="46.320372456684709" lon="11.797895673662424">
        <ele>1777.1300000000001</ele>
        <time>2018-03-04T12:28:38Z</time>
      </trkpt>
      <trkpt lat="46.3203798327595" lon="11.797883352264762">
        <ele>1777.1300000000001</ele>
        <time>2018-03-04T12:28:39Z</time>
      </trkpt>
      <trkpt lat="46.320394081994891" lon="11.797857619822025">
        <ele>1777.1300000000001</ele>
        <time>2018-03-04T12:28:41Z</time>
      </trkpt>
      <trkpt lat="46.32040087133646" lon="11.797830797731876">
        <ele>1777.1300000000001</ele>
        <time>2018-03-04T12:28:43Z</time>
      </trkpt>
      <trkpt lat="46.320406403392553" lon="11.79781780578196">
        <ele>1777.1300000000001</ele>
        <time>2018-03-04T12:28:44Z</time>
      </trkpt>
      <trkpt lat="46.320413108915091" lon="11.7978002037853">
        <ele>1777.1300000000001</ele>
        <time>2018-03-04T12:28:45Z</time>
      </trkpt>
      <trkpt lat="46.32048393599689" lon="11.797666344791651">
        <ele>1777.6099999999999</ele>
        <time>2018-03-04T12:28:56Z</time>
      </trkpt>
      <trkpt lat="46.320554260164499" lon="11.797549333423376">
        <ele>1777.1300000000001</ele>
        <time>2018-03-04T12:29:06Z</time>
      </trkpt>
      <trkpt lat="46.320627853274345" lon="11.797410529106855">
        <ele>1777.1300000000001</ele>
        <time>2018-03-04T12:29:17Z</time>
      </trkpt>
      <trkpt lat="46.32063346914947" lon="11.797395776957273">
        <ele>1777.1300000000001</ele>
        <time>2018-03-04T12:29:18Z</time>
      </trkpt>
      <trkpt lat="46.320641096681356" lon="11.79738094098866">
        <ele>1777.1300000000001</ele>
        <time>2018-03-04T12:29:19Z</time>
      </trkpt>
      <trkpt lat="46.320694824680686" lon="11.7972441483289">
        <ele>1777.6099999999999</ele>
        <time>2018-03-04T12:29:29Z</time>
      </trkpt>
      <trkpt lat="46.320756431668997" lon="11.797090759500861">
        <ele>1778.5799999999999</ele>
        <time>2018-03-04T12:29:40Z</time>
      </trkpt>
      <trkpt lat="46.320834802463651" lon="11.796912979334593">
        <ele>1778.0999999999999</ele>
        <time>2018-03-04T12:29:52Z</time>
      </trkpt>
      <trkpt lat="46.320926919579506" lon="11.796785742044449">
        <ele>1778.5799999999999</ele>
        <time>2018-03-04T12:30:03Z</time>
      </trkpt>
      <trkpt lat="46.321026412770152" lon="11.79666755720973">
        <ele>1778.5799999999999</ele>
        <time>2018-03-04T12:30:13Z</time>
      </trkpt>
      <trkpt lat="46.321048708632588" lon="11.796638388186693">
        <ele>1778.0999999999999</ele>
        <time>2018-03-04T12:30:16Z</time>
      </trkpt>
      <trkpt lat="46.321059437468648" lon="11.796627743169665">
        <ele>1778.5799999999999</ele>
        <time>2018-03-04T12:30:17Z</time>
      </trkpt>
      <trkpt lat="46.321098916232586" lon="11.796579547226429">
        <ele>1778.0999999999999</ele>
        <time>2018-03-04T12:30:21Z</time>
      </trkpt>
      <trkpt lat="46.321107633411884" lon="11.796565633267164">
        <ele>1778.5799999999999</ele>
        <time>2018-03-04T12:30:22Z</time>
      </trkpt>
      <trkpt lat="46.321224477142096" lon="11.796420961618423">
        <ele>1778.0999999999999</ele>
        <time>2018-03-04T12:30:35Z</time>
      </trkpt>
      <trkpt lat="46.321262866258621" lon="11.796380812302232">
        <ele>1778.0999999999999</ele>
        <time>2018-03-04T12:30:39Z</time>
      </trkpt>
      <trkpt lat="46.321306116878986" lon="11.796340830624104">
        <ele>1778.5799999999999</ele>
        <time>2018-03-04T12:30:43Z</time>
      </trkpt>
      <trkpt lat="46.321318103000522" lon="11.796329934149981">
        <ele>1778.5799999999999</ele>
        <time>2018-03-04T12:30:44Z</time>
      </trkpt>
      <trkpt lat="46.321327071636915" lon="11.79631962440908">
        <ele>1778.5799999999999</ele>
        <time>2018-03-04T12:30:45Z</time>
      </trkpt>
      <trkpt lat="46.321334782987833" lon="11.796310404315591">
        <ele>1778.5799999999999</ele>
        <time>2018-03-04T12:30:46Z</time>
      </trkpt>
      <trkpt lat="46.321344925090671" lon="11.796298753470182">
        <ele>1778.5799999999999</ele>
        <time>2018-03-04T12:30:47Z</time>
      </trkpt>
      <trkpt lat="46.32135322317481" lon="11.796288443729281">
        <ele>1778.5799999999999</ele>
        <time>2018-03-04T12:30:48Z</time>
      </trkpt>
      <trkpt lat="46.321403346955776" lon="11.796241085976362">
        <ele>1779.0599999999999</ele>
        <time>2018-03-04T12:30:54Z</time>
      </trkpt>
      <trkpt lat="46.321413991972804" lon="11.796230189502239">
        <ele>1779.0599999999999</ele>
        <time>2018-03-04T12:30:55Z</time>
      </trkpt>
      <trkpt lat="46.321425726637244" lon="11.796220131218433">
        <ele>1778.5799999999999</ele>
        <time>2018-03-04T12:30:56Z</time>
      </trkpt>
      <trkpt lat="46.321566123515368" lon="11.796152740716934">
        <ele>1779.54</ele>
        <time>2018-03-04T12:31:09Z</time>
      </trkpt>
      <trkpt lat="46.321586575359106" lon="11.796140922233462">
        <ele>1779.54</ele>
        <time>2018-03-04T12:31:11Z</time>
      </trkpt>
      <trkpt lat="46.321597974747419" lon="11.796140251681209">
        <ele>1780.02</ele>
        <time>2018-03-04T12:31:12Z</time>
      </trkpt>
      <trkpt lat="46.321610799059272" lon="11.796142095699906">
        <ele>1780.02</ele>
        <time>2018-03-04T12:31:13Z</time>
      </trkpt>
      <trkpt lat="46.321728397160769" lon="11.796112088486552">
        <ele>1780.98</ele>
        <time>2018-03-04T12:31:23Z</time>
      </trkpt>
      <trkpt lat="46.321836272254586" lon="11.796081326901913">
        <ele>1781.9400000000001</ele>
        <time>2018-03-04T12:31:35Z</time>
      </trkpt>
      <trkpt lat="46.321878433227539" lon="11.796095827594399">
        <ele>1782.9000000000001</ele>
        <time>2018-03-04T12:31:45Z</time>
      </trkpt>
      <trkpt lat="46.321866447106004" lon="11.796100856736302">
        <ele>1782.4200000000001</ele>
        <time>2018-03-04T12:31:54Z</time>
      </trkpt>
      <trkpt lat="46.321879355236888" lon="11.796119548380375">
        <ele>1782.9000000000001</ele>
        <time>2018-03-04T12:32:07Z</time>
      </trkpt>
      <trkpt lat="46.321925036609173" lon="11.796156596392393">
        <ele>1783.3800000000001</ele>
        <time>2018-03-04T12:32:19Z</time>
      </trkpt>
      <trkpt lat="46.321955462917686" lon="11.796173863112926">
        <ele>1782.9000000000001</ele>
        <time>2018-03-04T12:32:31Z</time>
      </trkpt>
      <trkpt lat="46.321961749345064" lon="11.796129606664181">
        <ele>1783.3800000000001</ele>
        <time>2018-03-04T12:32:42Z</time>
      </trkpt>
      <trkpt lat="46.321967951953411" lon="11.796129439026117">
        <ele>1782.9000000000001</ele>
        <time>2018-03-04T12:32:45Z</time>
      </trkpt>
      <trkpt lat="46.321973986923695" lon="11.796118039637804">
        <ele>1782.4200000000001</ele>
        <time>2018-03-04T12:32:56Z</time>
      </trkpt>
      <trkpt lat="46.321903830394149" lon="11.796044362708926">
        <ele>1782.9000000000001</ele>
        <time>2018-03-04T12:33:18Z</time>
      </trkpt>
      <trkpt lat="46.321882121264935" lon="11.796015864238143">
        <ele>1782.9000000000001</ele>
        <time>2018-03-04T12:33:40Z</time>
      </trkpt>
      <trkpt lat="46.322010448202491" lon="11.796102365478873">
        <ele>1782.9000000000001</ele>
        <time>2018-03-04T12:34:04Z</time>
      </trkpt>
      <trkpt lat="46.321974070742726" lon="11.796096414327621">
        <ele>1782.4200000000001</ele>
        <time>2018-03-04T12:34:27Z</time>
      </trkpt>
      <trkpt lat="46.3219288084656" lon="11.796069759875536">
        <ele>1782.4200000000001</ele>
        <time>2018-03-04T12:34:50Z</time>
      </trkpt>
      <trkpt lat="46.321995612233877" lon="11.796135473996401">
        <ele>1781.9400000000001</ele>
        <time>2018-03-04T12:35:10Z</time>
      </trkpt>
      <trkpt lat="46.3219547085464" lon="11.796084260568023">
        <ele>1782.4200000000001</ele>
        <time>2018-03-04T12:35:31Z</time>
      </trkpt>
      <trkpt lat="46.321932664141059" lon="11.796059282496572">
        <ele>1782.4200000000001</ele>
        <time>2018-03-04T12:35:36Z</time>
      </trkpt>
      <trkpt lat="46.321866782382131" lon="11.796021731570363">
        <ele>1782.9000000000001</ele>
        <time>2018-03-04T12:35:58Z</time>
      </trkpt>
      <trkpt lat="46.321879858151078" lon="11.796034891158342">
        <ele>1782.9000000000001</ele>
        <time>2018-03-04T12:36:23Z</time>
      </trkpt>
      <trkpt lat="46.321983626112342" lon="11.796105382964015">
        <ele>1782.9000000000001</ele>
        <time>2018-03-04T12:36:48Z</time>
      </trkpt>
      <trkpt lat="46.32192000746727" lon="11.796115273609757">
        <ele>1782.9000000000001</ele>
        <time>2018-03-04T12:37:14Z</time>
      </trkpt>
      <trkpt lat="46.321977339684963" lon="11.796068754047155">
        <ele>1782.9000000000001</ele>
        <time>2018-03-04T12:37:42Z</time>
      </trkpt>
      <trkpt lat="46.322055459022522" lon="11.796112675219774">
        <ele>1783.3800000000001</ele>
        <time>2018-03-04T12:38:09Z</time>
      </trkpt>
      <trkpt lat="46.322113294154406" lon="11.796126756817102">
        <ele>1783.3800000000001</ele>
        <time>2018-03-04T12:38:28Z</time>
      </trkpt>
      <trkpt lat="46.322018159553409" lon="11.796128936111927">
        <ele>1783.3800000000001</ele>
        <time>2018-03-04T12:38:51Z</time>
      </trkpt>
      <trkpt lat="46.321976752951741" lon="11.796090546995401">
        <ele>1782.9000000000001</ele>
        <time>2018-03-04T12:39:19Z</time>
      </trkpt>
      <trkpt lat="46.321962084621191" lon="11.796102114021778">
        <ele>1783.3800000000001</ele>
        <time>2018-03-04T12:39:48Z</time>
      </trkpt>
      <trkpt lat="46.321957306936383" lon="11.796100186184049">
        <ele>1783.3800000000001</ele>
        <time>2018-03-04T12:40:17Z</time>
      </trkpt>
      <trkpt lat="46.321964599192142" lon="11.796097755432129">
        <ele>1781.9400000000001</ele>
        <time>2018-03-04T12:40:48Z</time>
      </trkpt>
      <trkpt lat="46.321956971660256" lon="11.796109657734632">
        <ele>1783.3800000000001</ele>
        <time>2018-03-04T12:41:08Z</time>
      </trkpt>
      <trkpt lat="46.321991924196482" lon="11.796102281659842">
        <ele>1783.3800000000001</ele>
        <time>2018-03-04T12:41:30Z</time>
      </trkpt>
      <trkpt lat="46.321967784315348" lon="11.79613396525383">
        <ele>1782.9000000000001</ele>
        <time>2018-03-04T12:41:53Z</time>
      </trkpt>
      <trkpt lat="46.321975495666265" lon="11.796125583350658">
        <ele>1782.9000000000001</ele>
        <time>2018-03-04T12:42:26Z</time>
      </trkpt>
      <trkpt lat="46.321939788758755" lon="11.796125583350658">
        <ele>1782.9000000000001</ele>
        <time>2018-03-04T12:42:53Z</time>
      </trkpt>
      <trkpt lat="46.321919336915016" lon="11.796097420156002">
        <ele>1782.9000000000001</ele>
        <time>2018-03-04T12:43:21Z</time>
      </trkpt>
      <trkpt lat="46.321926796808839" lon="11.796099180355668">
        <ele>1783.3800000000001</ele>
        <time>2018-03-04T12:43:48Z</time>
      </trkpt>
      <trkpt lat="46.321936687454581" lon="11.796089541167021">
        <ele>1782.9000000000001</ele>
        <time>2018-03-04T12:44:16Z</time>
      </trkpt>
      <trkpt lat="46.321938615292311" lon="11.796090798452497">
        <ele>1781.46</ele>
        <time>2018-03-04T12:44:17Z</time>
      </trkpt>
      <trkpt lat="46.321932328864932" lon="11.796075878664851">
        <ele>1783.3800000000001</ele>
        <time>2018-03-04T12:44:43Z</time>
      </trkpt>
      <trkpt lat="46.321983458474278" lon="11.796058276668191">
        <ele>1783.3800000000001</ele>
        <time>2018-03-04T12:45:05Z</time>
      </trkpt>
      <trkpt lat="46.321972562000155" lon="11.796110915020108">
        <ele>1783.3800000000001</ele>
        <time>2018-03-04T12:45:26Z</time>
      </trkpt>
      <trkpt lat="46.321946745738387" lon="11.796097755432129">
        <ele>1783.3800000000001</ele>
        <time>2018-03-04T12:45:41Z</time>
      </trkpt>
      <trkpt lat="46.321911625564098" lon="11.796099515631795">
        <ele>1783.3800000000001</ele>
        <time>2018-03-04T12:45:57Z</time>
      </trkpt>
      <trkpt lat="46.321993432939053" lon="11.796072861179709">
        <ele>1782.9000000000001</ele>
        <time>2018-03-04T12:46:05Z</time>
      </trkpt>
      <trkpt lat="46.322079515084624" lon="11.796069424599409">
        <ele>1783.3800000000001</ele>
        <time>2018-03-04T12:46:25Z</time>
      </trkpt>
      <trkpt lat="46.322011118754745" lon="11.796116698533297">
        <ele>1780.02</ele>
        <time>2018-03-04T12:46:51Z</time>
      </trkpt>
      <trkpt lat="46.322009023278952" lon="11.79611736908555">
        <ele>1786.27</ele>
        <time>2018-03-04T12:46:52Z</time>
      </trkpt>
      <trkpt lat="46.322006341069937" lon="11.796114854514599">
        <ele>1781.46</ele>
        <time>2018-03-04T12:46:53Z</time>
      </trkpt>
      <trkpt lat="46.322005083784461" lon="11.796115105971694">
        <ele>1786.75</ele>
        <time>2018-03-04T12:46:54Z</time>
      </trkpt>
      <trkpt lat="46.322004497051239" lon="11.796115357428789">
        <ele>1782.4200000000001</ele>
        <time>2018-03-04T12:46:55Z</time>
      </trkpt>
      <trkpt lat="46.321966191753745" lon="11.796103119850159">
        <ele>1783.3800000000001</ele>
        <time>2018-03-04T12:47:18Z</time>
      </trkpt>
      <trkpt lat="46.321993516758084" lon="11.796102952212095">
        <ele>1782.4200000000001</ele>
        <time>2018-03-04T12:47:39Z</time>
      </trkpt>
      <trkpt lat="46.32195227779448" lon="11.796132791787386">
        <ele>1783.8599999999999</ele>
        <time>2018-03-04T12:47:55Z</time>
      </trkpt>
      <trkpt lat="46.321966527029872" lon="11.796170342713594">
        <ele>1783.8599999999999</ele>
        <time>2018-03-04T12:48:05Z</time>
      </trkpt>
      <trkpt lat="46.321931490674615" lon="11.796195236966014">
        <ele>1783.3800000000001</ele>
        <time>2018-03-04T12:48:15Z</time>
      </trkpt>
      <trkpt lat="46.321921180933714" lon="11.79612617008388">
        <ele>1782.4200000000001</ele>
        <time>2018-03-04T12:48:25Z</time>
      </trkpt>
      <trkpt lat="46.321905590593815" lon="11.796140503138304">
        <ele>1782.9000000000001</ele>
        <time>2018-03-04T12:48:40Z</time>
      </trkpt>
      <trkpt lat="46.321885474026203" lon="11.796138994395733">
        <ele>1782.9000000000001</ele>
        <time>2018-03-04T12:48:42Z</time>
      </trkpt>
      <trkpt lat="46.321828896179795" lon="11.796171935275197">
        <ele>1782.9000000000001</ele>
        <time>2018-03-04T12:48:54Z</time>
      </trkpt>
      <trkpt lat="46.321804085746408" lon="11.796179143711925">
        <ele>1782.9000000000001</ele>
        <time>2018-03-04T12:49:06Z</time>
      </trkpt>
      <trkpt lat="46.321806684136391" lon="11.796202193945646">
        <ele>1782.9000000000001</ele>
        <time>2018-03-04T12:49:13Z</time>
      </trkpt>
      <trkpt lat="46.321786232292652" lon="11.796213928610086">
        <ele>1782.9000000000001</ele>
        <time>2018-03-04T12:49:15Z</time>
      </trkpt>
      <trkpt lat="46.321692438796163" lon="11.796220550313592">
        <ele>1781.9400000000001</ele>
        <time>2018-03-04T12:49:23Z</time>
      </trkpt>
      <trkpt lat="46.321656564250588" lon="11.796346949413419">
        <ele>1782.9000000000001</ele>
        <time>2018-03-04T12:49:34Z</time>
      </trkpt>
      <trkpt lat="46.321684643626213" lon="11.79644719697535">
        <ele>1783.3800000000001</ele>
        <time>2018-03-04T12:49:46Z</time>
      </trkpt>
      <trkpt lat="46.321675004437566" lon="11.796434037387371">
        <ele>1783.3800000000001</ele>
        <time>2018-03-04T12:49:55Z</time>
      </trkpt>
      <trkpt lat="46.321669137105346" lon="11.796428505331278">
        <ele>1783.8599999999999</ele>
        <time>2018-03-04T12:50:05Z</time>
      </trkpt>
      <trkpt lat="46.321667460724711" lon="11.796406041830778">
        <ele>1783.3800000000001</ele>
        <time>2018-03-04T12:50:23Z</time>
      </trkpt>
      <trkpt lat="46.321679363027215" lon="11.796412076801062">
        <ele>1783.8599999999999</ele>
        <time>2018-03-04T12:50:36Z</time>
      </trkpt>
      <trkpt lat="46.321675591170788" lon="11.796422386541963">
        <ele>1783.8599999999999</ele>
        <time>2018-03-04T12:50:51Z</time>
      </trkpt>
      <trkpt lat="46.321697300300002" lon="11.796440994367003">
        <ele>1783.8599999999999</ele>
        <time>2018-03-04T12:51:05Z</time>
      </trkpt>
      <trkpt lat="46.321732420474291" lon="11.796495309099555">
        <ele>1784.8199999999999</ele>
        <time>2018-03-04T12:51:15Z</time>
      </trkpt>
      <trkpt lat="46.321723032742739" lon="11.796505870297551">
        <ele>1785.3099999999999</ele>
        <time>2018-03-04T12:51:26Z</time>
      </trkpt>
      <trkpt lat="46.321725966408849" lon="11.796509893611073">
        <ele>1784.8199999999999</ele>
        <time>2018-03-04T12:51:39Z</time>
      </trkpt>
      <trkpt lat="46.321716997772455" lon="11.796501511707902">
        <ele>1784.8199999999999</ele>
        <time>2018-03-04T12:52:02Z</time>
      </trkpt>
      <trkpt lat="46.321725966408849" lon="11.796489274129272">
        <ele>1784.8199999999999</ele>
        <time>2018-03-04T12:52:15Z</time>
      </trkpt>
      <trkpt lat="46.321720685809851" lon="11.796497907489538">
        <ele>1784.8199999999999</ele>
        <time>2018-03-04T12:52:30Z</time>
      </trkpt>
      <trkpt lat="46.32171867415309" lon="11.796505283564329">
        <ele>1784.8199999999999</ele>
        <time>2018-03-04T12:52:50Z</time>
      </trkpt>
      <trkpt lat="46.321728229522705" lon="11.79651265963912">
        <ele>1784.8199999999999</ele>
        <time>2018-03-04T12:53:04Z</time>
      </trkpt>
      <trkpt lat="46.321739880368114" lon="11.796526741236448">
        <ele>1784.8199999999999</ele>
        <time>2018-03-04T12:53:26Z</time>
      </trkpt>
      <trkpt lat="46.32173040881753" lon="11.796509977430105">
        <ele>1784.3399999999999</ele>
        <time>2018-03-04T12:53:38Z</time>
      </trkpt>
      <trkpt lat="46.321724960580468" lon="11.796489525586367">
        <ele>1784.3399999999999</ele>
        <time>2018-03-04T12:53:49Z</time>
      </trkpt>
      <trkpt lat="46.321732839569449" lon="11.796479551121593">
        <ele>1784.3399999999999</ele>
        <time>2018-03-04T12:54:08Z</time>
      </trkpt>
      <trkpt lat="46.321715740486979" lon="11.796478964388371">
        <ele>1784.3399999999999</ele>
        <time>2018-03-04T12:54:27Z</time>
      </trkpt>
      <trkpt lat="46.321696378290653" lon="11.79647309705615">
        <ele>1783.8599999999999</ele>
        <time>2018-03-04T12:54:41Z</time>
      </trkpt>
      <trkpt lat="46.321671651676297" lon="11.796434121206403">
        <ele>1783.3800000000001</ele>
        <time>2018-03-04T12:54:50Z</time>
      </trkpt>
      <trkpt lat="46.32165027782321" lon="11.796378381550312">
        <ele>1781.9400000000001</ele>
        <time>2018-03-04T12:54:54Z</time>
      </trkpt>
      <trkpt lat="46.321613481268287" lon="11.796267153695226">
        <ele>1780.5</ele>
        <time>2018-03-04T12:55:02Z</time>
      </trkpt>
      <trkpt lat="46.321571990847588" lon="11.796204373240471">
        <ele>1779.54</ele>
        <time>2018-03-04T12:55:08Z</time>
      </trkpt>
      <trkpt lat="46.32156134583056" lon="11.796174198389053">
        <ele>1778.5799999999999</ele>
        <time>2018-03-04T12:55:13Z</time>
      </trkpt>
      <trkpt lat="46.32152521982789" lon="11.796153578907251">
        <ele>1778.5799999999999</ele>
        <time>2018-03-04T12:55:17Z</time>
      </trkpt>
      <trkpt lat="46.321432096883655" lon="11.796108316630125">
        <ele>1777.1300000000001</ele>
        <time>2018-03-04T12:55:27Z</time>
      </trkpt>
      <trkpt lat="46.321408962830901" lon="11.796081326901913">
        <ele>1776.1700000000001</ele>
        <time>2018-03-04T12:55:38Z</time>
      </trkpt>
      <trkpt lat="46.321365376934409" lon="11.796036818996072">
        <ele>1775.21</ele>
        <time>2018-03-04T12:55:49Z</time>
      </trkpt>
      <trkpt lat="46.321301339194179" lon="11.795906228944659">
        <ele>1774.25</ele>
        <time>2018-03-04T12:56:00Z</time>
      </trkpt>
      <trkpt lat="46.321236547082663" lon="11.795756779611111">
        <ele>1772.3299999999999</ele>
        <time>2018-03-04T12:56:11Z</time>
      </trkpt>
      <trkpt lat="46.321150213479996" lon="11.795589812099934">
        <ele>1770.4100000000001</ele>
        <time>2018-03-04T12:56:23Z</time>
      </trkpt>
      <trkpt lat="46.321095312014222" lon="11.795435333624482">
        <ele>1768.96</ele>
        <time>2018-03-04T12:56:34Z</time>
      </trkpt>
      <trkpt lat="46.321053318679333" lon="11.795278508216143">
        <ele>1767.52</ele>
        <time>2018-03-04T12:56:45Z</time>
      </trkpt>
      <trkpt lat="46.321023646742105" lon="11.795087400823832">
        <ele>1765.5999999999999</ele>
        <time>2018-03-04T12:56:56Z</time>
      </trkpt>
      <trkpt lat="46.32097746245563" lon="11.794904842972755">
        <ele>1763.6800000000001</ele>
        <time>2018-03-04T12:57:09Z</time>
      </trkpt>
      <trkpt lat="46.320973606780171" lon="11.794896041974425">
        <ele>1763.6800000000001</ele>
        <time>2018-03-04T12:57:10Z</time>
      </trkpt>
      <trkpt lat="46.320961285382509" lon="11.794640142470598">
        <ele>1761.27</ele>
        <time>2018-03-04T12:57:25Z</time>
      </trkpt>
      <trkpt lat="46.320980731397867" lon="11.794570991769433">
        <ele>1760.79</ele>
        <time>2018-03-04T12:57:30Z</time>
      </trkpt>
      <trkpt lat="46.321018785238266" lon="11.794451884925365">
        <ele>1760.3099999999999</ele>
        <time>2018-03-04T12:57:39Z</time>
      </trkpt>
      <trkpt lat="46.321099083870649" lon="11.79423856548965">
        <ele>1758.8699999999999</ele>
        <time>2018-03-04T12:57:53Z</time>
      </trkpt>
      <trkpt lat="46.321161612868309" lon="11.794039914384484">
        <ele>1757.9100000000001</ele>
        <time>2018-03-04T12:58:05Z</time>
      </trkpt>
      <trkpt lat="46.321228165179491" lon="11.793797174468637">
        <ele>1756.95</ele>
        <time>2018-03-04T12:58:19Z</time>
      </trkpt>
      <trkpt lat="46.321328664198518" lon="11.793540604412556">
        <ele>1755.02</ele>
        <time>2018-03-04T12:58:35Z</time>
      </trkpt>
      <trkpt lat="46.321416925638914" lon="11.793377073481679">
        <ele>1753.5799999999999</ele>
        <time>2018-03-04T12:58:46Z</time>
      </trkpt>
      <trkpt lat="46.321536703035235" lon="11.793229971081018">
        <ele>1752.6199999999999</ele>
        <time>2018-03-04T12:58:58Z</time>
      </trkpt>
      <trkpt lat="46.321561513468623" lon="11.793209854513407">
        <ele>1752.1400000000001</ele>
        <time>2018-03-04T12:59:00Z</time>
      </trkpt>
      <trkpt lat="46.321675088256598" lon="11.793073229491711">
        <ele>1750.7</ele>
        <time>2018-03-04T12:59:12Z</time>
      </trkpt>
      <trkpt lat="46.321690930053592" lon="11.793025536462665">
        <ele>1750.7</ele>
        <time>2018-03-04T12:59:15Z</time>
      </trkpt>
      <trkpt lat="46.321702999994159" lon="11.792994858697057">
        <ele>1750.22</ele>
        <time>2018-03-04T12:59:18Z</time>
      </trkpt>
      <trkpt lat="46.321777766570449" lon="11.792788663879037">
        <ele>1749.26</ele>
        <time>2018-03-04T12:59:32Z</time>
      </trkpt>
      <trkpt lat="46.321806767955422" lon="11.792724039405584">
        <ele>1748.78</ele>
        <time>2018-03-04T12:59:37Z</time>
      </trkpt>
      <trkpt lat="46.321867117658257" lon="11.792542571201921">
        <ele>1747.3299999999999</ele>
        <time>2018-03-04T12:59:49Z</time>
      </trkpt>
      <trkpt lat="46.321907266974449" lon="11.792447520419955">
        <ele>1746.8499999999999</ele>
        <time>2018-03-04T12:59:55Z</time>
      </trkpt>
      <trkpt lat="46.321993265300989" lon="11.792269740253687">
        <ele>1745.4100000000001</ele>
        <time>2018-03-04T13:00:07Z</time>
      </trkpt>
      <trkpt lat="46.32201137021184" lon="11.792228417471051">
        <ele>1744.9300000000001</ele>
        <time>2018-03-04T13:00:10Z</time>
      </trkpt>
      <trkpt lat="46.322094853967428" lon="11.792077459394932">
        <ele>1743.49</ele>
        <time>2018-03-04T13:00:21Z</time>
      </trkpt>
      <trkpt lat="46.322116898372769" lon="11.79201920516789">
        <ele>1743.49</ele>
        <time>2018-03-04T13:00:25Z</time>
      </trkpt>
      <trkpt lat="46.322215385735035" lon="11.791833629831672">
        <ele>1741.0799999999999</ele>
        <time>2018-03-04T13:00:38Z</time>
      </trkpt>
      <trkpt lat="46.322330217808485" lon="11.791669512167573">
        <ele>1740.1199999999999</ele>
        <time>2018-03-04T13:00:50Z</time>
      </trkpt>
      <trkpt lat="46.32243356667459" lon="11.791446972638369">
        <ele>1738.6800000000001</ele>
        <time>2018-03-04T13:01:03Z</time>
      </trkpt>
      <trkpt lat="46.322464495897293" lon="11.791383270174265">
        <ele>1738.2</ele>
        <time>2018-03-04T13:01:07Z</time>
      </trkpt>
      <trkpt lat="46.322494670748711" lon="11.791313951835036">
        <ele>1737.72</ele>
        <time>2018-03-04T13:01:11Z</time>
      </trkpt>
      <trkpt lat="46.322542363777757" lon="11.79124522022903">
        <ele>1737.24</ele>
        <time>2018-03-04T13:01:16Z</time>
      </trkpt>
      <trkpt lat="46.32260313257575" lon="11.791129717603326">
        <ele>1736.28</ele>
        <time>2018-03-04T13:01:24Z</time>
      </trkpt>
      <trkpt lat="46.322687538340688" lon="11.790955374017358">
        <ele>1734.8399999999999</ele>
        <time>2018-03-04T13:01:35Z</time>
      </trkpt>
      <trkpt lat="46.322696674615145" lon="11.790936347097158">
        <ele>1734.8399999999999</ele>
        <time>2018-03-04T13:01:36Z</time>
      </trkpt>
      <trkpt lat="46.322798766195774" lon="11.790718585252762">
        <ele>1733.3900000000001</ele>
        <time>2018-03-04T13:01:49Z</time>
      </trkpt>
      <trkpt lat="46.322836736217141" lon="11.790499649941921">
        <ele>1731.95</ele>
        <time>2018-03-04T13:02:01Z</time>
      </trkpt>
      <trkpt lat="46.322782170027494" lon="11.790300160646439">
        <ele>1730.51</ele>
        <time>2018-03-04T13:02:12Z</time>
      </trkpt>
      <trkpt lat="46.322714863345027" lon="11.79006664082408">
        <ele>1728.5899999999999</ele>
        <time>2018-03-04T13:02:25Z</time>
      </trkpt>
      <trkpt lat="46.322686029598117" lon="11.790004028007388">
        <ele>1727.6300000000001</ele>
        <time>2018-03-04T13:02:29Z</time>
      </trkpt>
      <trkpt lat="46.322563402354717" lon="11.789824822917581">
        <ele>1725.7</ele>
        <time>2018-03-04T13:02:42Z</time>
      </trkpt>
      <trkpt lat="46.322475727647543" lon="11.789718624204397">
        <ele>1724.74</ele>
        <time>2018-03-04T13:02:51Z</time>
      </trkpt>
      <trkpt lat="46.322447564452887" lon="11.789668332785368">
        <ele>1724.26</ele>
        <time>2018-03-04T13:02:55Z</time>
      </trkpt>
      <trkpt lat="46.322362907230854" lon="11.78947689011693">
        <ele>1722.3399999999999</ele>
        <time>2018-03-04T13:03:07Z</time>
      </trkpt>
      <trkpt lat="46.322268359363079" lon="11.789252087473869">
        <ele>1719.9400000000001</ele>
        <time>2018-03-04T13:03:20Z</time>
      </trkpt>
      <trkpt lat="46.322172386571765" lon="11.78903273306787">
        <ele>1718.01</ele>
        <time>2018-03-04T13:03:32Z</time>
      </trkpt>
      <trkpt lat="46.322140116244555" lon="11.788925612345338">
        <ele>1717.53</ele>
        <time>2018-03-04T13:03:38Z</time>
      </trkpt>
      <trkpt lat="46.322054704651237" lon="11.788673736155033">
        <ele>1715.1300000000001</ele>
        <time>2018-03-04T13:03:52Z</time>
      </trkpt>
      <trkpt lat="46.321980189532042" lon="11.788444072008133">
        <ele>1713.6900000000001</ele>
        <time>2018-03-04T13:04:06Z</time>
      </trkpt>
      <trkpt lat="46.321907183155417" lon="11.788265369832516">
        <ele>1712.25</ele>
        <time>2018-03-04T13:04:17Z</time>
      </trkpt>
      <trkpt lat="46.321890838444233" lon="11.788225471973419">
        <ele>1711.76</ele>
        <time>2018-03-04T13:04:20Z</time>
      </trkpt>
      <trkpt lat="46.321763684973121" lon="11.787973428145051">
        <ele>1710.3199999999999</ele>
        <time>2018-03-04T13:04:34Z</time>
      </trkpt>
      <trkpt lat="46.321671567857265" lon="11.787752397358418">
        <ele>1708.8800000000001</ele>
        <time>2018-03-04T13:04:46Z</time>
      </trkpt>
      <trkpt lat="46.3215765170753" lon="11.787541592493653">
        <ele>1707.4400000000001</ele>
        <time>2018-03-04T13:04:58Z</time>
      </trkpt>
      <trkpt lat="46.321490602567792" lon="11.787314526736736">
        <ele>1707.4400000000001</ele>
        <time>2018-03-04T13:05:12Z</time>
      </trkpt>
      <trkpt lat="46.321399742737412" lon="11.787160634994507">
        <ele>1705.52</ele>
        <time>2018-03-04T13:05:23Z</time>
      </trkpt>
      <trkpt lat="46.32131022401154" lon="11.787067847326398">
        <ele>1705.52</ele>
        <time>2018-03-04T13:05:33Z</time>
      </trkpt>
      <trkpt lat="46.321168402209878" lon="11.78697899915278">
        <ele>1704.55</ele>
        <time>2018-03-04T13:05:44Z</time>
      </trkpt>
      <trkpt lat="46.32110008969903" lon="11.786908423528075">
        <ele>1704.0699999999999</ele>
        <time>2018-03-04T13:05:50Z</time>
      </trkpt>
      <trkpt lat="46.321071423590183" lon="11.786856707185507">
        <ele>1703.5899999999999</ele>
        <time>2018-03-04T13:05:53Z</time>
      </trkpt>
      <trkpt lat="46.321036722511053" lon="11.786665851250291">
        <ele>1702.6300000000001</ele>
        <time>2018-03-04T13:06:03Z</time>
      </trkpt>
      <trkpt lat="46.321051139384508" lon="11.78637265227735">
        <ele>1701.6700000000001</ele>
        <time>2018-03-04T13:06:18Z</time>
      </trkpt>
      <trkpt lat="46.321046780794859" lon="11.786143239587545">
        <ele>1700.23</ele>
        <time>2018-03-04T13:06:31Z</time>
      </trkpt>
      <trkpt lat="46.321047451347113" lon="11.7861317563802">
        <ele>1700.23</ele>
        <time>2018-03-04T13:06:32Z</time>
      </trkpt>
      <trkpt lat="46.321030771359801" lon="11.786076854914427">
        <ele>1700.23</ele>
        <time>2018-03-04T13:06:36Z</time>
      </trkpt>
      <trkpt lat="46.321034040302038" lon="11.785853309556842">
        <ele>1699.27</ele>
        <time>2018-03-04T13:06:47Z</time>
      </trkpt>
      <trkpt lat="46.321082403883338" lon="11.785654574632645">
        <ele>1698.79</ele>
        <time>2018-03-04T13:06:56Z</time>
      </trkpt>
      <trkpt lat="46.321160439401865" lon="11.785442009568214">
        <ele>1698.3099999999999</ele>
        <time>2018-03-04T13:07:08Z</time>
      </trkpt>
      <trkpt lat="46.321276361122727" lon="11.785235395655036">
        <ele>1697.3399999999999</ele>
        <time>2018-03-04T13:07:21Z</time>
      </trkpt>
      <trkpt lat="46.321401754394174" lon="11.785089718177915">
        <ele>1696.3800000000001</ele>
        <time>2018-03-04T13:07:33Z</time>
      </trkpt>
      <trkpt lat="46.321491189301014" lon="11.784933311864734">
        <ele>1695.4200000000001</ele>
        <time>2018-03-04T13:07:43Z</time>
      </trkpt>
      <trkpt lat="46.321543324738741" lon="11.78468881174922">
        <ele>1694.46</ele>
        <time>2018-03-04T13:07:56Z</time>
      </trkpt>
      <trkpt lat="46.321556400507689" lon="11.784423189237714">
        <ele>1693.5</ele>
        <time>2018-03-04T13:08:10Z</time>
      </trkpt>
      <trkpt lat="46.321586156263947" lon="11.784203918650746">
        <ele>1693.02</ele>
        <time>2018-03-04T13:08:22Z</time>
      </trkpt>
      <trkpt lat="46.321598812937737" lon="11.783956820145249">
        <ele>1692.54</ele>
        <time>2018-03-04T13:08:35Z</time>
      </trkpt>
      <trkpt lat="46.32161415182054" lon="11.783720115199685">
        <ele>1692.54</ele>
        <time>2018-03-04T13:08:47Z</time>
      </trkpt>
      <trkpt lat="46.321624545380473" lon="11.78349070250988">
        <ele>1691.5799999999999</ele>
        <time>2018-03-04T13:08:59Z</time>
      </trkpt>
      <trkpt lat="46.321619180962443" lon="11.783239496871829">
        <ele>1691.0999999999999</ele>
        <time>2018-03-04T13:09:12Z</time>
      </trkpt>
      <trkpt lat="46.321609122678638" lon="11.783028021454811">
        <ele>1690.6199999999999</ele>
        <time>2018-03-04T13:09:23Z</time>
      </trkpt>
      <trkpt lat="46.321580959483981" lon="11.782777654007077">
        <ele>1690.1400000000001</ele>
        <time>2018-03-04T13:09:37Z</time>
      </trkpt>
      <trkpt lat="46.321575427427888" lon="11.782580679282546">
        <ele>1688.21</ele>
        <time>2018-03-04T13:09:48Z</time>
      </trkpt>
      <trkpt lat="46.321618929505348" lon="11.782361408695579">
        <ele>1688.21</ele>
        <time>2018-03-04T13:10:01Z</time>
      </trkpt>
      <trkpt lat="46.321659162640572" lon="11.78210886195302">
        <ele>1687.25</ele>
        <time>2018-03-04T13:10:14Z</time>
      </trkpt>
      <trkpt lat="46.321650864556432" lon="11.781924292445183">
        <ele>1686.29</ele>
        <time>2018-03-04T13:10:24Z</time>
      </trkpt>
      <trkpt lat="46.321609793230891" lon="11.781670320779085">
        <ele>1685.3299999999999</ele>
        <time>2018-03-04T13:10:36Z</time>
      </trkpt>
      <trkpt lat="46.321584647521377" lon="11.781444679945707">
        <ele>1685.3299999999999</ele>
        <time>2018-03-04T13:10:48Z</time>
      </trkpt>
      <trkpt lat="46.321532595902681" lon="11.781218871474266">
        <ele>1684.3699999999999</ele>
        <time>2018-03-04T13:11:01Z</time>
      </trkpt>
      <trkpt lat="46.321530500426888" lon="11.781202275305986">
        <ele>1684.3699999999999</ele>
        <time>2018-03-04T13:11:02Z</time>
      </trkpt>
      <trkpt lat="46.321510886773467" lon="11.780987279489636">
        <ele>1683.4100000000001</ele>
        <time>2018-03-04T13:11:13Z</time>
      </trkpt>
      <trkpt lat="46.321528740227222" lon="11.780767505988479">
        <ele>1682.4400000000001</ele>
        <time>2018-03-04T13:11:24Z</time>
      </trkpt>
      <trkpt lat="46.321507953107357" lon="11.78051982074976">
        <ele>1681.96</ele>
        <time>2018-03-04T13:11:36Z</time>
      </trkpt>
      <trkpt lat="46.321494122967124" lon="11.780477408319712">
        <ele>1681.96</ele>
        <time>2018-03-04T13:11:38Z</time>
      </trkpt>
      <trkpt lat="46.321465624496341" lon="11.780305663123727">
        <ele>1681.48</ele>
        <time>2018-03-04T13:11:47Z</time>
      </trkpt>
      <trkpt lat="46.321498900651932" lon="11.780136432498693">
        <ele>1681</ele>
        <time>2018-03-04T13:11:57Z</time>
      </trkpt>
      <trkpt lat="46.321421032771468" lon="11.780040543526411">
        <ele>1681</ele>
        <time>2018-03-04T13:12:08Z</time>
      </trkpt>
      <trkpt lat="46.321398904547095" lon="11.779988491907716">
        <ele>1680.52</ele>
        <time>2018-03-04T13:12:12Z</time>
      </trkpt>
      <trkpt lat="46.321398736909032" lon="11.779761677607894">
        <ele>1680.52</ele>
        <time>2018-03-04T13:12:24Z</time>
      </trkpt>
      <trkpt lat="46.321398233994842" lon="11.779741561040282">
        <ele>1680.04</ele>
        <time>2018-03-04T13:12:25Z</time>
      </trkpt>
      <trkpt lat="46.321405861526728" lon="11.779712056741118">
        <ele>1680.04</ele>
        <time>2018-03-04T13:12:27Z</time>
      </trkpt>
      <trkpt lat="46.321418853476644" lon="11.779642403125763">
        <ele>1680.52</ele>
        <time>2018-03-04T13:12:31Z</time>
      </trkpt>
      <trkpt lat="46.321449028328061" lon="11.779559757560492">
        <ele>1680.52</ele>
        <time>2018-03-04T13:12:37Z</time>
      </trkpt>
      <trkpt lat="46.321495715528727" lon="11.7794228810817">
        <ele>1680.52</ele>
        <time>2018-03-04T13:12:47Z</time>
      </trkpt>
      <trkpt lat="46.3215022534132" lon="11.779436124488711">
        <ele>1680.52</ele>
        <time>2018-03-04T13:12:50Z</time>
      </trkpt>
      <trkpt lat="46.321540558710694" lon="11.779278041794896">
        <ele>1680.52</ele>
        <time>2018-03-04T13:13:00Z</time>
      </trkpt>
      <trkpt lat="46.321563357487321" lon="11.77918391302228">
        <ele>1680.52</ele>
        <time>2018-03-04T13:13:05Z</time>
      </trkpt>
      <trkpt lat="46.321591688320041" lon="11.779053071513772">
        <ele>1680.52</ele>
        <time>2018-03-04T13:13:13Z</time>
      </trkpt>
      <trkpt lat="46.321624964475632" lon="11.779030943289399">
        <ele>1680.04</ele>
        <time>2018-03-04T13:13:17Z</time>
      </trkpt>
      <trkpt lat="46.321641728281975" lon="11.779020465910435">
        <ele>1680.04</ele>
        <time>2018-03-04T13:13:19Z</time>
      </trkpt>
      <trkpt lat="46.32168154232204" lon="11.779023483395576">
        <ele>1680.04</ele>
        <time>2018-03-04T13:13:22Z</time>
      </trkpt>
      <trkpt lat="46.32172747515142" lon="11.77904368378222">
        <ele>1679.5599999999999</ele>
        <time>2018-03-04T13:13:26Z</time>
      </trkpt>
      <trkpt lat="46.321874493733048" lon="11.779071260243654">
        <ele>1679.5599999999999</ele>
        <time>2018-03-04T13:13:40Z</time>
      </trkpt>
      <trkpt lat="46.321894526481628" lon="11.779052400961518">
        <ele>1679.5599999999999</ele>
        <time>2018-03-04T13:13:53Z</time>
      </trkpt>
    </trkseg>
  </trk>

</gpx>